<?xml version="1.0" encoding="utf-8"?>
<gpx xmlns:xsi="http://www.w3.org/2001/XMLSchema-instance" xmlns:xsd="http://www.w3.org/2001/XMLSchema" version="1.1" creator="Shapelink.com" xmlns="http://www.topografix.com/GPX/1/1" xmlns:gpxtpx="http://www.garmin.com/xmlschemas/TrackPointExtension/v1">
  <metadata>
    <name>Löpning 8.06 km, 2017-12-03</name>
    <desc></desc>
    <author><name>Bengt-Åke Forslund</name></author> 
    <time>2017-12-03T17:04:03Z</time>
  </metadata>
  <trk>
    <name>Löpning 8.06 km, 2017-12-03</name>
    <trkseg>
      <trkpt lat="62.635894773685" lon="17.967733955043">
        <ele>64.8</ele>
        <time>2017-12-03T17:04:03Z</time>
      </trkpt>
      <trkpt lat="62.635963421446" lon="17.968028159733">
        <ele>64.8</ele>
        <time>2017-12-03T17:05:20Z</time>
      </trkpt>
      <trkpt lat="62.635971887165" lon="17.96804601318">
        <ele>64.8</ele>
        <time>2017-12-03T17:05:21Z</time>
      </trkpt>
      <trkpt lat="62.635983118911" lon="17.968106698136">
        <ele>64.8</ele>
        <time>2017-12-03T17:05:22Z</time>
      </trkpt>
      <trkpt lat="62.635994183019" lon="17.968138716994">
        <ele>65</ele>
        <time>2017-12-03T17:05:23Z</time>
      </trkpt>
      <trkpt lat="62.636005414765" lon="17.968188756937">
        <ele>65.2</ele>
        <time>2017-12-03T17:05:24Z</time>
      </trkpt>
      <trkpt lat="62.636017819977" lon="17.968218177406">
        <ele>65.2</ele>
        <time>2017-12-03T17:05:25Z</time>
      </trkpt>
      <trkpt lat="62.636026369515" lon="17.96827316267">
        <ele>65.2</ele>
        <time>2017-12-03T17:05:26Z</time>
      </trkpt>
      <trkpt lat="62.63603852327" lon="17.968292860135">
        <ele>65.2</ele>
        <time>2017-12-03T17:05:27Z</time>
      </trkpt>
      <trkpt lat="62.63605444888" lon="17.968319598396">
        <ele>65.2</ele>
        <time>2017-12-03T17:05:28Z</time>
      </trkpt>
      <trkpt lat="62.636074397802" lon="17.968349689417">
        <ele>65.2</ele>
        <time>2017-12-03T17:05:29Z</time>
      </trkpt>
      <trkpt lat="62.636091915973" lon="17.968387659424">
        <ele>65.2</ele>
        <time>2017-12-03T17:05:30Z</time>
      </trkpt>
      <trkpt lat="62.636113876551" lon="17.968394784039">
        <ele>65.2</ele>
        <time>2017-12-03T17:05:31Z</time>
      </trkpt>
      <trkpt lat="62.636132316731" lon="17.968435100978">
        <ele>65.4</ele>
        <time>2017-12-03T17:05:32Z</time>
      </trkpt>
      <trkpt lat="62.63615503168" lon="17.968440884489">
        <ele>65.4</ele>
        <time>2017-12-03T17:05:33Z</time>
      </trkpt>
      <trkpt lat="62.636177243715" lon="17.968464605266">
        <ele>65.6</ele>
        <time>2017-12-03T17:05:34Z</time>
      </trkpt>
      <trkpt lat="62.636201048311" lon="17.968463347981">
        <ele>65.6</ele>
        <time>2017-12-03T17:05:35Z</time>
      </trkpt>
      <trkpt lat="62.636220661957" lon="17.968484721826">
        <ele>65.8</ele>
        <time>2017-12-03T17:05:36Z</time>
      </trkpt>
      <trkpt lat="62.636247316399" lon="17.968505760395">
        <ele>65.8</ele>
        <time>2017-12-03T17:05:37Z</time>
      </trkpt>
      <trkpt lat="62.636269779891" lon="17.968529062077">
        <ele>65.8</ele>
        <time>2017-12-03T17:05:38Z</time>
      </trkpt>
      <trkpt lat="62.636289728813" lon="17.968533923579">
        <ele>65.8</ele>
        <time>2017-12-03T17:05:39Z</time>
      </trkpt>
      <trkpt lat="62.636323843146" lon="17.968577677097">
        <ele>66</ele>
        <time>2017-12-03T17:05:40Z</time>
      </trkpt>
      <trkpt lat="62.636345636086" lon="17.968596117277">
        <ele>66</ele>
        <time>2017-12-03T17:05:41Z</time>
      </trkpt>
      <trkpt lat="62.636372709623" lon="17.968619083683">
        <ele>66</ele>
        <time>2017-12-03T17:05:42Z</time>
      </trkpt>
      <trkpt lat="62.636400369893" lon="17.968678092259">
        <ele>66</ele>
        <time>2017-12-03T17:05:43Z</time>
      </trkpt>
      <trkpt lat="62.636421827557" lon="17.968706842176">
        <ele>65.8</ele>
        <time>2017-12-03T17:05:44Z</time>
      </trkpt>
      <trkpt lat="62.636433897493" lon="17.968745566554">
        <ele>65.8</ele>
        <time>2017-12-03T17:05:45Z</time>
      </trkpt>
      <trkpt lat="62.636458791736" lon="17.968803066388">
        <ele>65.8</ele>
        <time>2017-12-03T17:05:46Z</time>
      </trkpt>
      <trkpt lat="62.636477651011" lon="17.968854195978">
        <ele>65.8</ele>
        <time>2017-12-03T17:05:47Z</time>
      </trkpt>
      <trkpt lat="62.636495504458" lon="17.968901386075">
        <ele>65.8</ele>
        <time>2017-12-03T17:05:48Z</time>
      </trkpt>
      <trkpt lat="62.636512771172" lon="17.968944720498">
        <ele>65.8</ele>
        <time>2017-12-03T17:05:49Z</time>
      </trkpt>
      <trkpt lat="62.636529115877" lon="17.968999454305">
        <ele>65.8</ele>
        <time>2017-12-03T17:05:50Z</time>
      </trkpt>
      <trkpt lat="62.636543868021" lon="17.969027868946">
        <ele>65.8</ele>
        <time>2017-12-03T17:05:51Z</time>
      </trkpt>
      <trkpt lat="62.63656239202" lon="17.96909375068">
        <ele>65.8</ele>
        <time>2017-12-03T17:05:52Z</time>
      </trkpt>
      <trkpt lat="62.636577898535" lon="17.969132642696">
        <ele>66</ele>
        <time>2017-12-03T17:05:53Z</time>
      </trkpt>
      <trkpt lat="62.636597931276" lon="17.969198859706">
        <ele>66</ele>
        <time>2017-12-03T17:05:54Z</time>
      </trkpt>
      <trkpt lat="62.636615030352" lon="17.969235572428">
        <ele>66</ele>
        <time>2017-12-03T17:05:55Z</time>
      </trkpt>
      <trkpt lat="62.636632380885" lon="17.969300364515">
        <ele>66</ele>
        <time>2017-12-03T17:05:56Z</time>
      </trkpt>
      <trkpt lat="62.636647552124" lon="17.969344537128">
        <ele>66</ele>
        <time>2017-12-03T17:05:57Z</time>
      </trkpt>
      <trkpt lat="62.636663896829" lon="17.969410167405">
        <ele>66.2</ele>
        <time>2017-12-03T17:05:58Z</time>
      </trkpt>
      <trkpt lat="62.636678229878" lon="17.969462805737">
        <ele>66</ele>
        <time>2017-12-03T17:05:59Z</time>
      </trkpt>
      <trkpt lat="62.636689377805" lon="17.96953128586">
        <ele>66.2</ele>
        <time>2017-12-03T17:06:00Z</time>
      </trkpt>
      <trkpt lat="62.636702872664" lon="17.969577721586">
        <ele>66</ele>
        <time>2017-12-03T17:06:01Z</time>
      </trkpt>
      <trkpt lat="62.636715864609" lon="17.969637652171">
        <ele>66.2</ele>
        <time>2017-12-03T17:06:02Z</time>
      </trkpt>
      <trkpt lat="62.636727012536" lon="17.969676376549">
        <ele>66</ele>
        <time>2017-12-03T17:06:03Z</time>
      </trkpt>
      <trkpt lat="62.636695915687" lon="17.969695487281">
        <ele>66.2</ele>
        <time>2017-12-03T17:06:04Z</time>
      </trkpt>
      <trkpt lat="62.636698933171" lon="17.969731026537">
        <ele>66.2</ele>
        <time>2017-12-03T17:06:05Z</time>
      </trkpt>
      <trkpt lat="62.636722570129" lon="17.969792130588">
        <ele>66.4</ele>
        <time>2017-12-03T17:06:06Z</time>
      </trkpt>
      <trkpt lat="62.636746877639" lon="17.969843343997">
        <ele>66.6</ele>
        <time>2017-12-03T17:06:07Z</time>
      </trkpt>
      <trkpt lat="62.636761713602" lon="17.969889276809">
        <ele>66.6</ele>
        <time>2017-12-03T17:06:08Z</time>
      </trkpt>
      <trkpt lat="62.63677529228" lon="17.969923810237">
        <ele>66.8</ele>
        <time>2017-12-03T17:06:09Z</time>
      </trkpt>
      <trkpt lat="62.636803287826" lon="17.96997468837">
        <ele>66.8</ele>
        <time>2017-12-03T17:06:10Z</time>
      </trkpt>
      <trkpt lat="62.636825080766" lon="17.970013664205">
        <ele>66.8</ele>
        <time>2017-12-03T17:06:11Z</time>
      </trkpt>
      <trkpt lat="62.636844442955" lon="17.970044509597">
        <ele>67</ele>
        <time>2017-12-03T17:06:12Z</time>
      </trkpt>
      <trkpt lat="62.636868582827" lon="17.970072337505">
        <ele>67</ele>
        <time>2017-12-03T17:06:13Z</time>
      </trkpt>
      <trkpt lat="62.63688928612" lon="17.970103350535">
        <ele>66.8</ele>
        <time>2017-12-03T17:06:14Z</time>
      </trkpt>
      <trkpt lat="62.636907893938" lon="17.970121623077">
        <ele>66.8</ele>
        <time>2017-12-03T17:06:15Z</time>
      </trkpt>
      <trkpt lat="62.636944690479" lon="17.970151714098">
        <ele>66.8</ele>
        <time>2017-12-03T17:06:16Z</time>
      </trkpt>
      <trkpt lat="62.636972015473" lon="17.970160598912">
        <ele>66.8</ele>
        <time>2017-12-03T17:06:17Z</time>
      </trkpt>
      <trkpt lat="62.637007135634" lon="17.970175267237">
        <ele>66.8</ele>
        <time>2017-12-03T17:06:18Z</time>
      </trkpt>
      <trkpt lat="62.637042842528" lon="17.97017753035">
        <ele>66.8</ele>
        <time>2017-12-03T17:06:19Z</time>
      </trkpt>
      <trkpt lat="62.63707955525" lon="17.970174848142">
        <ele>66.8</ele>
        <time>2017-12-03T17:06:20Z</time>
      </trkpt>
      <trkpt lat="62.637111238832" lon="17.970167136794">
        <ele>66.8</ele>
        <time>2017-12-03T17:06:21Z</time>
      </trkpt>
      <trkpt lat="62.637153148332" lon="17.970152887564">
        <ele>66.8</ele>
        <time>2017-12-03T17:06:22Z</time>
      </trkpt>
      <trkpt lat="62.637190699244" lon="17.970134279746">
        <ele>66.6</ele>
        <time>2017-12-03T17:06:23Z</time>
      </trkpt>
      <trkpt lat="62.637230932364" lon="17.970113744091">
        <ele>66.4</ele>
        <time>2017-12-03T17:06:24Z</time>
      </trkpt>
      <trkpt lat="62.637270075837" lon="17.970082898699">
        <ele>66.2</ele>
        <time>2017-12-03T17:06:25Z</time>
      </trkpt>
      <trkpt lat="62.637311566242" lon="17.970059429379">
        <ele>66</ele>
        <time>2017-12-03T17:06:26Z</time>
      </trkpt>
      <trkpt lat="62.637346602584" lon="17.970040234828">
        <ele>65.8</ele>
        <time>2017-12-03T17:06:27Z</time>
      </trkpt>
      <trkpt lat="62.63739639107" lon="17.970027997254">
        <ele>65.6</ele>
        <time>2017-12-03T17:06:28Z</time>
      </trkpt>
      <trkpt lat="62.637442407701" lon="17.9700224652">
        <ele>65.4</ele>
        <time>2017-12-03T17:06:29Z</time>
      </trkpt>
      <trkpt lat="62.637486496495" lon="17.970028164892">
        <ele>65.2</ele>
        <time>2017-12-03T17:06:30Z</time>
      </trkpt>
      <trkpt lat="62.637526226701" lon="17.970056998628">
        <ele>65</ele>
        <time>2017-12-03T17:06:31Z</time>
      </trkpt>
      <trkpt lat="62.637568052382" lon="17.970097399386">
        <ele>65</ele>
        <time>2017-12-03T17:06:32Z</time>
      </trkpt>
      <trkpt lat="62.637600322697" lon="17.970138722153">
        <ele>64.8</ele>
        <time>2017-12-03T17:06:33Z</time>
      </trkpt>
      <trkpt lat="62.637633179745" lon="17.970202005498">
        <ele>64.8</ele>
        <time>2017-12-03T17:06:34Z</time>
      </trkpt>
      <trkpt lat="62.637662516395" lon="17.970242322437">
        <ele>64.6</ele>
        <time>2017-12-03T17:06:35Z</time>
      </trkpt>
      <trkpt lat="62.637687997371" lon="17.970322201944">
        <ele>64.6</ele>
        <time>2017-12-03T17:06:36Z</time>
      </trkpt>
      <trkpt lat="62.637713729804" lon="17.970393028999">
        <ele>64.4</ele>
        <time>2017-12-03T17:06:37Z</time>
      </trkpt>
      <trkpt lat="62.637731834708" lon="17.970442063114">
        <ele>64.6</ele>
        <time>2017-12-03T17:06:38Z</time>
      </trkpt>
      <trkpt lat="62.637753376191" lon="17.970519092775">
        <ele>64.4</ele>
        <time>2017-12-03T17:06:39Z</time>
      </trkpt>
      <trkpt lat="62.637771564914" lon="17.970574413315">
        <ele>64.4</ele>
        <time>2017-12-03T17:06:40Z</time>
      </trkpt>
      <trkpt lat="62.637790759465" lon="17.970649766596">
        <ele>64.2</ele>
        <time>2017-12-03T17:06:41Z</time>
      </trkpt>
      <trkpt lat="62.637811378939" lon="17.970702404928">
        <ele>64.2</ele>
        <time>2017-12-03T17:06:42Z</time>
      </trkpt>
      <trkpt lat="62.637829651481" lon="17.970784631367">
        <ele>64.4</ele>
        <time>2017-12-03T17:06:43Z</time>
      </trkpt>
      <trkpt lat="62.637847421109" lon="17.970836682966">
        <ele>64.4</ele>
        <time>2017-12-03T17:06:44Z</time>
      </trkpt>
      <trkpt lat="62.637855048638" lon="17.970907174745">
        <ele>64.4</ele>
        <time>2017-12-03T17:06:45Z</time>
      </trkpt>
      <trkpt lat="62.637865609832" lon="17.970965931864">
        <ele>64.4</ele>
        <time>2017-12-03T17:06:46Z</time>
      </trkpt>
      <trkpt lat="62.637874075551" lon="17.971037345652">
        <ele>64.6</ele>
        <time>2017-12-03T17:06:47Z</time>
      </trkpt>
      <trkpt lat="62.637884888202" lon="17.9711037303">
        <ele>64.8</ele>
        <time>2017-12-03T17:06:48Z</time>
      </trkpt>
      <trkpt lat="62.637893689197" lon="17.971168103292">
        <ele>64.8</ele>
        <time>2017-12-03T17:06:49Z</time>
      </trkpt>
      <trkpt lat="62.637905423857" lon="17.971235074673">
        <ele>65</ele>
        <time>2017-12-03T17:06:50Z</time>
      </trkpt>
      <trkpt lat="62.637913302843" lon="17.971281007485">
        <ele>65</ele>
        <time>2017-12-03T17:06:51Z</time>
      </trkpt>
      <trkpt lat="62.637923528761" lon="17.971340183699">
        <ele>65.2</ele>
        <time>2017-12-03T17:06:52Z</time>
      </trkpt>
      <trkpt lat="62.63793199448" lon="17.971383350484">
        <ele>65.2</ele>
        <time>2017-12-03T17:06:53Z</time>
      </trkpt>
      <trkpt lat="62.637941717484" lon="17.971445041268">
        <ele>65.4</ele>
        <time>2017-12-03T17:06:54Z</time>
      </trkpt>
      <trkpt lat="62.6379470819" lon="17.971483598008">
        <ele>65.4</ele>
        <time>2017-12-03T17:06:55Z</time>
      </trkpt>
      <trkpt lat="62.637953368325" lon="17.971538499453">
        <ele>65.4</ele>
        <time>2017-12-03T17:06:56Z</time>
      </trkpt>
      <trkpt lat="62.637962253139" lon="17.971582672066">
        <ele>65.4</ele>
        <time>2017-12-03T17:06:57Z</time>
      </trkpt>
      <trkpt lat="62.637970970315" lon="17.971661378107">
        <ele>65.4</ele>
        <time>2017-12-03T17:06:58Z</time>
      </trkpt>
      <trkpt lat="62.637979519853" lon="17.971707143281">
        <ele>65.6</ele>
        <time>2017-12-03T17:06:59Z</time>
      </trkpt>
      <trkpt lat="62.637984213717" lon="17.971779730535">
        <ele>65.6</ele>
        <time>2017-12-03T17:07:00Z</time>
      </trkpt>
      <trkpt lat="62.637987231201" lon="17.971823232596">
        <ele>65.6</ele>
        <time>2017-12-03T17:07:01Z</time>
      </trkpt>
      <trkpt lat="62.63799234416" lon="17.971871847616">
        <ele>65.6</ele>
        <time>2017-12-03T17:07:02Z</time>
      </trkpt>
      <trkpt lat="62.637987482658" lon="17.972008724043">
        <ele>65.6</ele>
        <time>2017-12-03T17:07:04Z</time>
      </trkpt>
      <trkpt lat="62.637989159038" lon="17.972052226104">
        <ele>65.8</ele>
        <time>2017-12-03T17:07:05Z</time>
      </trkpt>
      <trkpt lat="62.637984129898" lon="17.972119197485">
        <ele>65.8</ele>
        <time>2017-12-03T17:07:06Z</time>
      </trkpt>
      <trkpt lat="62.637987734115" lon="17.972175859129">
        <ele>65.8</ele>
        <time>2017-12-03T17:07:07Z</time>
      </trkpt>
      <trkpt lat="62.63798647683" lon="17.972250038944">
        <ele>65.8</ele>
        <time>2017-12-03T17:07:08Z</time>
      </trkpt>
      <trkpt lat="62.637989159038" lon="17.972291864625">
        <ele>66</ele>
        <time>2017-12-03T17:07:09Z</time>
      </trkpt>
      <trkpt lat="62.637992679436" lon="17.972353220133">
        <ele>66</ele>
        <time>2017-12-03T17:07:10Z</time>
      </trkpt>
      <trkpt lat="62.638000139327" lon="17.972388927027">
        <ele>66.2</ele>
        <time>2017-12-03T17:07:11Z</time>
      </trkpt>
      <trkpt lat="62.638005084648" lon="17.972441816816">
        <ele>66.2</ele>
        <time>2017-12-03T17:07:12Z</time>
      </trkpt>
      <trkpt lat="62.638010029969" lon="17.972484732144">
        <ele>66.4</ele>
        <time>2017-12-03T17:07:13Z</time>
      </trkpt>
      <trkpt lat="62.638014807652" lon="17.972532760431">
        <ele>66.6</ele>
        <time>2017-12-03T17:07:14Z</time>
      </trkpt>
      <trkpt lat="62.638022686638" lon="17.972575675759">
        <ele>66.6</ele>
        <time>2017-12-03T17:07:15Z</time>
      </trkpt>
      <trkpt lat="62.638026374674" lon="17.972626218616">
        <ele>66.6</ele>
        <time>2017-12-03T17:07:16Z</time>
      </trkpt>
      <trkpt lat="62.638035259488" lon="17.972674079265">
        <ele>66.8</ele>
        <time>2017-12-03T17:07:17Z</time>
      </trkpt>
      <trkpt lat="62.638036935868" lon="17.972722861923">
        <ele>67</ele>
        <time>2017-12-03T17:07:18Z</time>
      </trkpt>
      <trkpt lat="62.638040456266" lon="17.972775667893">
        <ele>67</ele>
        <time>2017-12-03T17:07:19Z</time>
      </trkpt>
      <trkpt lat="62.638039953352" lon="17.972820762515">
        <ele>67.2</ele>
        <time>2017-12-03T17:07:20Z</time>
      </trkpt>
      <trkpt lat="62.638038193153" lon="17.972866695327">
        <ele>67.2</ele>
        <time>2017-12-03T17:07:21Z</time>
      </trkpt>
      <trkpt lat="62.638040623904" lon="17.972911035578">
        <ele>67.2</ele>
        <time>2017-12-03T17:07:22Z</time>
      </trkpt>
      <trkpt lat="62.638038360791" lon="17.972969457421">
        <ele>67.2</ele>
        <time>2017-12-03T17:07:23Z</time>
      </trkpt>
      <trkpt lat="62.638039534257" lon="17.972994184026">
        <ele>67.2</ele>
        <time>2017-12-03T17:07:24Z</time>
      </trkpt>
      <trkpt lat="62.638046491234" lon="17.973046738539">
        <ele>67.2</ele>
        <time>2017-12-03T17:07:25Z</time>
      </trkpt>
      <trkpt lat="62.638047832338" lon="17.973094347731">
        <ele>67.4</ele>
        <time>2017-12-03T17:07:26Z</time>
      </trkpt>
      <trkpt lat="62.638048754347" lon="17.97314137019">
        <ele>67.4</ele>
        <time>2017-12-03T17:07:27Z</time>
      </trkpt>
      <trkpt lat="62.638053112935" lon="17.973186548631">
        <ele>67.6</ele>
        <time>2017-12-03T17:07:28Z</time>
      </trkpt>
      <trkpt lat="62.638051185098" lon="17.973232146167">
        <ele>67.8</ele>
        <time>2017-12-03T17:07:29Z</time>
      </trkpt>
      <trkpt lat="62.638043389931" lon="17.973278078979">
        <ele>67.8</ele>
        <time>2017-12-03T17:07:30Z</time>
      </trkpt>
      <trkpt lat="62.638049760175" lon="17.97331990466">
        <ele>68</ele>
        <time>2017-12-03T17:07:31Z</time>
      </trkpt>
      <trkpt lat="62.638046239777" lon="17.97337354882">
        <ele>68.4</ele>
        <time>2017-12-03T17:07:32Z</time>
      </trkpt>
      <trkpt lat="62.638048754347" lon="17.973423588763">
        <ele>68.4</ele>
        <time>2017-12-03T17:07:33Z</time>
      </trkpt>
      <trkpt lat="62.638041545913" lon="17.973467677557">
        <ele>68.6</ele>
        <time>2017-12-03T17:07:34Z</time>
      </trkpt>
      <trkpt lat="62.638046491234" lon="17.973516963129">
        <ele>68.8</ele>
        <time>2017-12-03T17:07:35Z</time>
      </trkpt>
      <trkpt lat="62.638038947524" lon="17.973559710819">
        <ele>69</ele>
        <time>2017-12-03T17:07:36Z</time>
      </trkpt>
      <trkpt lat="62.638047329424" lon="17.973610169857">
        <ele>69</ele>
        <time>2017-12-03T17:07:37Z</time>
      </trkpt>
      <trkpt lat="62.638040204809" lon="17.973668088786">
        <ele>69.2</ele>
        <time>2017-12-03T17:07:38Z</time>
      </trkpt>
      <trkpt lat="62.638045317768" lon="17.973707232259">
        <ele>69.2</ele>
        <time>2017-12-03T17:07:39Z</time>
      </trkpt>
      <trkpt lat="62.638044228121" lon="17.973778981323">
        <ele>69.2</ele>
        <time>2017-12-03T17:07:40Z</time>
      </trkpt>
      <trkpt lat="62.638043892845" lon="17.97381778952">
        <ele>69.2</ele>
        <time>2017-12-03T17:07:41Z</time>
      </trkpt>
      <trkpt lat="62.638046407415" lon="17.973887946023">
        <ele>69.2</ele>
        <time>2017-12-03T17:07:42Z</time>
      </trkpt>
      <trkpt lat="62.638047497062" lon="17.97394184164">
        <ele>69.2</ele>
        <time>2017-12-03T17:07:43Z</time>
      </trkpt>
      <trkpt lat="62.638051268917" lon="17.974000934035">
        <ele>69.2</ele>
        <time>2017-12-03T17:07:44Z</time>
      </trkpt>
      <trkpt lat="62.638052023288" lon="17.974048375589">
        <ele>69.2</ele>
        <time>2017-12-03T17:07:45Z</time>
      </trkpt>
      <trkpt lat="62.638058393532" lon="17.974107216527">
        <ele>69.2</ele>
        <time>2017-12-03T17:07:46Z</time>
      </trkpt>
      <trkpt lat="62.638057974437" lon="17.974169996958">
        <ele>69.2</ele>
        <time>2017-12-03T17:07:47Z</time>
      </trkpt>
      <trkpt lat="62.638069541459" lon="17.974224144032">
        <ele>69</ele>
        <time>2017-12-03T17:07:48Z</time>
      </trkpt>
      <trkpt lat="62.63806778126" lon="17.974290193404">
        <ele>69</ele>
        <time>2017-12-03T17:07:49Z</time>
      </trkpt>
      <trkpt lat="62.638080102653" lon="17.974349956351">
        <ele>69</ele>
        <time>2017-12-03T17:07:50Z</time>
      </trkpt>
      <trkpt lat="62.638076666074" lon="17.974408462013">
        <ele>69.2</ele>
        <time>2017-12-03T17:07:51Z</time>
      </trkpt>
      <trkpt lat="62.63808035411" lon="17.974482893285">
        <ele>69.2</ele>
        <time>2017-12-03T17:07:52Z</time>
      </trkpt>
      <trkpt lat="62.638073732409" lon="17.974548942657">
        <ele>69.4</ele>
        <time>2017-12-03T17:07:53Z</time>
      </trkpt>
      <trkpt lat="62.638064679957" lon="17.974615075848">
        <ele>69.4</ele>
        <time>2017-12-03T17:07:54Z</time>
      </trkpt>
      <trkpt lat="62.638057974437" lon="17.974670647845">
        <ele>69.4</ele>
        <time>2017-12-03T17:07:55Z</time>
      </trkpt>
      <trkpt lat="62.638043809026" lon="17.974728399136">
        <ele>69.4</ele>
        <time>2017-12-03T17:07:56Z</time>
      </trkpt>
      <trkpt lat="62.638035008031" lon="17.974770476274">
        <ele>69.4</ele>
        <time>2017-12-03T17:07:57Z</time>
      </trkpt>
      <trkpt lat="62.6380141371" lon="17.974828730479">
        <ele>69.4</ele>
        <time>2017-12-03T17:07:58Z</time>
      </trkpt>
      <trkpt lat="62.638000055508" lon="17.974875920576">
        <ele>69.4</ele>
        <time>2017-12-03T17:07:59Z</time>
      </trkpt>
      <trkpt lat="62.637983207889" lon="17.974902742656">
        <ele>69.4</ele>
        <time>2017-12-03T17:08:00Z</time>
      </trkpt>
      <trkpt lat="62.637968204288" lon="17.974936437894">
        <ele>69.4</ele>
        <time>2017-12-03T17:08:01Z</time>
      </trkpt>
      <trkpt lat="62.637959990026" lon="17.9749510224">
        <ele>69.4</ele>
        <time>2017-12-03T17:08:02Z</time>
      </trkpt>
      <trkpt lat="62.637936688344" lon="17.975001900533">
        <ele>69.6</ele>
        <time>2017-12-03T17:08:03Z</time>
      </trkpt>
      <trkpt lat="62.637925708055" lon="17.975035847228">
        <ele>69.6</ele>
        <time>2017-12-03T17:08:04Z</time>
      </trkpt>
      <trkpt lat="62.637909614807" lon="17.975065351516">
        <ele>69.8</ele>
        <time>2017-12-03T17:08:05Z</time>
      </trkpt>
      <trkpt lat="62.637901065269" lon="17.975105500817">
        <ele>70</ele>
        <time>2017-12-03T17:08:06Z</time>
      </trkpt>
      <trkpt lat="62.637879607605" lon="17.975136178571">
        <ele>70.2</ele>
        <time>2017-12-03T17:08:07Z</time>
      </trkpt>
      <trkpt lat="62.637875165198" lon="17.975165934316">
        <ele>70.4</ele>
        <time>2017-12-03T17:08:08Z</time>
      </trkpt>
      <trkpt lat="62.63785655738" lon="17.975192588758">
        <ele>70.4</ele>
        <time>2017-12-03T17:08:09Z</time>
      </trkpt>
      <trkpt lat="62.637849935679" lon="17.975224859073">
        <ele>70.4</ele>
        <time>2017-12-03T17:08:10Z</time>
      </trkpt>
      <trkpt lat="62.637831663137" lon="17.975250088592">
        <ele>70.6</ele>
        <time>2017-12-03T17:08:11Z</time>
      </trkpt>
      <trkpt lat="62.637822945961" lon="17.97528043107">
        <ele>70.8</ele>
        <time>2017-12-03T17:08:12Z</time>
      </trkpt>
      <trkpt lat="62.63780710417" lon="17.975304906218">
        <ele>71</ele>
        <time>2017-12-03T17:08:13Z</time>
      </trkpt>
      <trkpt lat="62.637795788605" lon="17.97532653152">
        <ele>71</ele>
        <time>2017-12-03T17:08:14Z</time>
      </trkpt>
      <trkpt lat="62.63778447304" lon="17.975353856514">
        <ele>71.2</ele>
        <time>2017-12-03T17:08:15Z</time>
      </trkpt>
      <trkpt lat="62.637768044516" lon="17.975367351373">
        <ele>71.4</ele>
        <time>2017-12-03T17:08:16Z</time>
      </trkpt>
      <trkpt lat="62.637761338996" lon="17.975389814865">
        <ele>71.6</ele>
        <time>2017-12-03T17:08:17Z</time>
      </trkpt>
      <trkpt lat="62.637747005947" lon="17.975408757959">
        <ele>71.8</ele>
        <time>2017-12-03T17:08:18Z</time>
      </trkpt>
      <trkpt lat="62.637733259631" lon="17.975421749904">
        <ele>72</ele>
        <time>2017-12-03T17:08:19Z</time>
      </trkpt>
      <trkpt lat="62.637724458636" lon="17.975435244763">
        <ele>72.2</ele>
        <time>2017-12-03T17:08:20Z</time>
      </trkpt>
      <trkpt lat="62.637714232718" lon="17.975438346066">
        <ele>72.2</ele>
        <time>2017-12-03T17:08:21Z</time>
      </trkpt>
      <trkpt lat="62.637700402583" lon="17.975458546445">
        <ele>72.4</ele>
        <time>2017-12-03T17:08:22Z</time>
      </trkpt>
      <trkpt lat="62.637680621299" lon="17.97546315649">
        <ele>72.6</ele>
        <time>2017-12-03T17:08:23Z</time>
      </trkpt>
      <trkpt lat="62.637668467544" lon="17.975485619982">
        <ele>72.6</ele>
        <time>2017-12-03T17:08:24Z</time>
      </trkpt>
      <trkpt lat="62.637647428975" lon="17.975491152036">
        <ele>72.8</ele>
        <time>2017-12-03T17:08:25Z</time>
      </trkpt>
      <trkpt lat="62.637632928288" lon="17.975519147582">
        <ele>72.8</ele>
        <time>2017-12-03T17:08:26Z</time>
      </trkpt>
      <trkpt lat="62.637615074841" lon="17.975517135926">
        <ele>73</ele>
        <time>2017-12-03T17:08:27Z</time>
      </trkpt>
      <trkpt lat="62.637597137575" lon="17.975540689065">
        <ele>73</ele>
        <time>2017-12-03T17:08:28Z</time>
      </trkpt>
      <trkpt lat="62.637579870861" lon="17.975546640214">
        <ele>73.2</ele>
        <time>2017-12-03T17:08:29Z</time>
      </trkpt>
      <trkpt lat="62.637563274699" lon="17.975553345734">
        <ele>73.4</ele>
        <time>2017-12-03T17:08:30Z</time>
      </trkpt>
      <trkpt lat="62.637550282754" lon="17.975564326023">
        <ele>73.6</ele>
        <time>2017-12-03T17:08:31Z</time>
      </trkpt>
      <trkpt lat="62.637535027696" lon="17.975574468122">
        <ele>73.8</ele>
        <time>2017-12-03T17:08:32Z</time>
      </trkpt>
      <trkpt lat="62.637520610828" lon="17.975592489207">
        <ele>73.8</ele>
        <time>2017-12-03T17:08:33Z</time>
      </trkpt>
      <trkpt lat="62.637498985526" lon="17.975601876935">
        <ele>73.8</ele>
        <time>2017-12-03T17:08:34Z</time>
      </trkpt>
      <trkpt lat="62.637483898106" lon="17.975619478925">
        <ele>74</ele>
        <time>2017-12-03T17:08:35Z</time>
      </trkpt>
      <trkpt lat="62.637466128478" lon="17.975630626852">
        <ele>74.2</ele>
        <time>2017-12-03T17:08:36Z</time>
      </trkpt>
      <trkpt lat="62.637451041058" lon="17.975638757295">
        <ele>74.4</ele>
        <time>2017-12-03T17:08:37Z</time>
      </trkpt>
      <trkpt lat="62.637437965294" lon="17.975656694561">
        <ele>74.4</ele>
        <time>2017-12-03T17:08:38Z</time>
      </trkpt>
      <trkpt lat="62.637420195666" lon="17.975659041493">
        <ele>74.8</ele>
        <time>2017-12-03T17:08:39Z</time>
      </trkpt>
      <trkpt lat="62.637404689151" lon="17.975694161654">
        <ele>74.8</ele>
        <time>2017-12-03T17:08:40Z</time>
      </trkpt>
      <trkpt lat="62.637383231487" lon="17.975694916025">
        <ele>75</ele>
        <time>2017-12-03T17:08:41Z</time>
      </trkpt>
      <trkpt lat="62.637373508483" lon="17.975723917399">
        <ele>75</ele>
        <time>2017-12-03T17:08:42Z</time>
      </trkpt>
      <trkpt lat="62.637355906493" lon="17.975730622919">
        <ele>74.8</ele>
        <time>2017-12-03T17:08:43Z</time>
      </trkpt>
      <trkpt lat="62.637345680575" lon="17.975758786103">
        <ele>75</ele>
        <time>2017-12-03T17:08:44Z</time>
      </trkpt>
      <trkpt lat="62.637334784105" lon="17.975770939858">
        <ele>75.2</ele>
        <time>2017-12-03T17:08:45Z</time>
      </trkpt>
      <trkpt lat="62.637320702513" lon="17.97580010887">
        <ele>75.2</ele>
        <time>2017-12-03T17:08:46Z</time>
      </trkpt>
      <trkpt lat="62.637307878206" lon="17.975832714461">
        <ele>75.4</ele>
        <time>2017-12-03T17:08:47Z</time>
      </trkpt>
      <trkpt lat="62.637293880433" lon="17.975848556252">
        <ele>75.6</ele>
        <time>2017-12-03T17:08:48Z</time>
      </trkpt>
      <trkpt lat="62.637281056126" lon="17.975868924269">
        <ele>75.6</ele>
        <time>2017-12-03T17:08:49Z</time>
      </trkpt>
      <trkpt lat="62.637272506588" lon="17.975897255091">
        <ele>75.8</ele>
        <time>2017-12-03T17:08:50Z</time>
      </trkpt>
      <trkpt lat="62.637261023385" lon="17.975917539289">
        <ele>76</ele>
        <time>2017-12-03T17:08:51Z</time>
      </trkpt>
      <trkpt lat="62.637259179367" lon="17.975948887595">
        <ele>76.2</ele>
        <time>2017-12-03T17:08:52Z</time>
      </trkpt>
      <trkpt lat="62.637244846318" lon="17.975971686363">
        <ele>76.4</ele>
        <time>2017-12-03T17:08:53Z</time>
      </trkpt>
      <trkpt lat="62.637244427223" lon="17.976005297782">
        <ele>76.6</ele>
        <time>2017-12-03T17:08:54Z</time>
      </trkpt>
      <trkpt lat="62.637228250156" lon="17.976035388803">
        <ele>77</ele>
        <time>2017-12-03T17:08:55Z</time>
      </trkpt>
      <trkpt lat="62.637225651767" lon="17.976073610267">
        <ele>77</ele>
        <time>2017-12-03T17:08:56Z</time>
      </trkpt>
      <trkpt lat="62.63721701841" lon="17.976103617469">
        <ele>77</ele>
        <time>2017-12-03T17:08:57Z</time>
      </trkpt>
      <trkpt lat="62.637207211587" lon="17.97614376677">
        <ele>77.2</ele>
        <time>2017-12-03T17:08:58Z</time>
      </trkpt>
      <trkpt lat="62.637201511895" lon="17.97618651446">
        <ele>77.4</ele>
        <time>2017-12-03T17:08:59Z</time>
      </trkpt>
      <trkpt lat="62.637192459443" lon="17.976230351797">
        <ele>77.4</ele>
        <time>2017-12-03T17:09:00Z</time>
      </trkpt>
      <trkpt lat="62.637184831914" lon="17.976275278781">
        <ele>77.6</ele>
        <time>2017-12-03T17:09:01Z</time>
      </trkpt>
      <trkpt lat="62.637176198557" lon="17.976312075322">
        <ele>77.6</ele>
        <time>2017-12-03T17:09:02Z</time>
      </trkpt>
      <trkpt lat="62.637165637363" lon="17.976348955682">
        <ele>77.6</ele>
        <time>2017-12-03T17:09:03Z</time>
      </trkpt>
      <trkpt lat="62.637162619879" lon="17.976381561273">
        <ele>77.8</ele>
        <time>2017-12-03T17:09:04Z</time>
      </trkpt>
      <trkpt lat="62.637144263518" lon="17.976437384727">
        <ele>78</ele>
        <time>2017-12-03T17:09:05Z</time>
      </trkpt>
      <trkpt lat="62.637137641817" lon="17.976468816852">
        <ele>78</ele>
        <time>2017-12-03T17:09:06Z</time>
      </trkpt>
      <trkpt lat="62.637133702324" lon="17.976504272289">
        <ele>78.2</ele>
        <time>2017-12-03T17:09:07Z</time>
      </trkpt>
      <trkpt lat="62.637127248261" lon="17.976548696359">
        <ele>78.4</ele>
        <time>2017-12-03T17:09:08Z</time>
      </trkpt>
      <trkpt lat="62.637125990976" lon="17.976579709389">
        <ele>78.4</ele>
        <time>2017-12-03T17:09:09Z</time>
      </trkpt>
      <trkpt lat="62.637120542741" lon="17.976634359377">
        <ele>78.4</ele>
        <time>2017-12-03T17:09:10Z</time>
      </trkpt>
      <trkpt lat="62.637120878017" lon="17.976664366579">
        <ele>78.6</ele>
        <time>2017-12-03T17:09:11Z</time>
      </trkpt>
      <trkpt lat="62.63711811199" lon="17.97672127968">
        <ele>78.6</ele>
        <time>2017-12-03T17:09:12Z</time>
      </trkpt>
      <trkpt lat="62.637120207465" lon="17.976765871388">
        <ele>78.6</ele>
        <time>2017-12-03T17:09:13Z</time>
      </trkpt>
      <trkpt lat="62.637117692895" lon="17.976819934643">
        <ele>78.8</ele>
        <time>2017-12-03T17:09:14Z</time>
      </trkpt>
      <trkpt lat="62.637117525257" lon="17.976862430876">
        <ele>78.6</ele>
        <time>2017-12-03T17:09:15Z</time>
      </trkpt>
      <trkpt lat="62.637113250488" lon="17.9769207689">
        <ele>78.6</ele>
        <time>2017-12-03T17:09:16Z</time>
      </trkpt>
      <trkpt lat="62.63711392104" lon="17.97696603116">
        <ele>78.8</ele>
        <time>2017-12-03T17:09:17Z</time>
      </trkpt>
      <trkpt lat="62.637106796425" lon="17.977037109672">
        <ele>78.6</ele>
        <time>2017-12-03T17:09:18Z</time>
      </trkpt>
      <trkpt lat="62.637108808081" lon="17.977083880674">
        <ele>78.6</ele>
        <time>2017-12-03T17:09:19Z</time>
      </trkpt>
      <trkpt lat="62.63710721552" lon="17.977152360797">
        <ele>78.6</ele>
        <time>2017-12-03T17:09:20Z</time>
      </trkpt>
      <trkpt lat="62.637105455321" lon="17.977192845374">
        <ele>78.6</ele>
        <time>2017-12-03T17:09:21Z</time>
      </trkpt>
      <trkpt lat="62.637097492516" lon="17.977267528103">
        <ele>78.6</ele>
        <time>2017-12-03T17:09:22Z</time>
      </trkpt>
      <trkpt lat="62.637092463376" lon="17.97731136544">
        <ele>78.4</ele>
        <time>2017-12-03T17:09:23Z</time>
      </trkpt>
      <trkpt lat="62.637078297965" lon="17.977365344876">
        <ele>78.4</ele>
        <time>2017-12-03T17:09:24Z</time>
      </trkpt>
      <trkpt lat="62.637071508626" lon="17.977402979607">
        <ele>78.4</ele>
        <time>2017-12-03T17:09:25Z</time>
      </trkpt>
      <trkpt lat="62.637053906636" lon="17.977467855513">
        <ele>78.4</ele>
        <time>2017-12-03T17:09:26Z</time>
      </trkpt>
      <trkpt lat="62.637045524736" lon="17.97750247276">
        <ele>78.4</ele>
        <time>2017-12-03T17:09:27Z</time>
      </trkpt>
      <trkpt lat="62.637027671289" lon="17.977565085553">
        <ele>78.6</ele>
        <time>2017-12-03T17:09:28Z</time>
      </trkpt>
      <trkpt lat="62.637022642149" lon="17.977606492139">
        <ele>78.6</ele>
        <time>2017-12-03T17:09:29Z</time>
      </trkpt>
      <trkpt lat="62.637002860865" lon="17.977667847647">
        <ele>78.8</ele>
        <time>2017-12-03T17:09:30Z</time>
      </trkpt>
      <trkpt lat="62.636999340467" lon="17.97770447655">
        <ele>78.6</ele>
        <time>2017-12-03T17:09:31Z</time>
      </trkpt>
      <trkpt lat="62.636986348522" lon="17.977765999696">
        <ele>78.8</ele>
        <time>2017-12-03T17:09:32Z</time>
      </trkpt>
      <trkpt lat="62.636985342694" lon="17.977798018554">
        <ele>78.8</ele>
        <time>2017-12-03T17:09:33Z</time>
      </trkpt>
      <trkpt lat="62.636971847835" lon="17.977862475365">
        <ele>79</ele>
        <time>2017-12-03T17:09:34Z</time>
      </trkpt>
      <trkpt lat="62.636974530043" lon="17.977896757336">
        <ele>78.8</ele>
        <time>2017-12-03T17:09:35Z</time>
      </trkpt>
      <trkpt lat="62.63696472322" lon="17.977954592446">
        <ele>79</ele>
        <time>2017-12-03T17:09:36Z</time>
      </trkpt>
      <trkpt lat="62.636964471763" lon="17.977998597421">
        <ele>79</ele>
        <time>2017-12-03T17:09:37Z</time>
      </trkpt>
      <trkpt lat="62.636952485646" lon="17.978057857454">
        <ele>79</ele>
        <time>2017-12-03T17:09:38Z</time>
      </trkpt>
      <trkpt lat="62.636950893085" lon="17.978085517724">
        <ele>79</ele>
        <time>2017-12-03T17:09:39Z</time>
      </trkpt>
      <trkpt lat="62.636939493701" lon="17.978147459965">
        <ele>79</ele>
        <time>2017-12-03T17:09:40Z</time>
      </trkpt>
      <trkpt lat="62.636934213104" lon="17.978181322841">
        <ele>79</ele>
        <time>2017-12-03T17:09:41Z</time>
      </trkpt>
      <trkpt lat="62.636919125684" lon="17.978233206802">
        <ele>79</ele>
        <time>2017-12-03T17:09:42Z</time>
      </trkpt>
      <trkpt lat="62.636910827603" lon="17.978273188465">
        <ele>79</ele>
        <time>2017-12-03T17:09:43Z</time>
      </trkpt>
      <trkpt lat="62.63689515345" lon="17.97831970801">
        <ele>79.2</ele>
        <time>2017-12-03T17:09:44Z</time>
      </trkpt>
      <trkpt lat="62.636888867025" lon="17.978354828171">
        <ele>79.2</ele>
        <time>2017-12-03T17:09:45Z</time>
      </trkpt>
      <trkpt lat="62.636869840112" lon="17.978407550322">
        <ele>79.4</ele>
        <time>2017-12-03T17:09:46Z</time>
      </trkpt>
      <trkpt lat="62.636863637506" lon="17.978441916112">
        <ele>79.4</ele>
        <time>2017-12-03T17:09:47Z</time>
      </trkpt>
      <trkpt lat="62.636841341652" lon="17.978494722082">
        <ele>79.4</ele>
        <time>2017-12-03T17:09:48Z</time>
      </trkpt>
      <trkpt lat="62.636828517345" lon="17.978526992397">
        <ele>79.4</ele>
        <time>2017-12-03T17:09:49Z</time>
      </trkpt>
      <trkpt lat="62.636802281998" lon="17.978564710947">
        <ele>79.4</ele>
        <time>2017-12-03T17:09:50Z</time>
      </trkpt>
      <trkpt lat="62.636794989745" lon="17.978589856647">
        <ele>79.4</ele>
        <time>2017-12-03T17:09:51Z</time>
      </trkpt>
      <trkpt lat="62.636775376099" lon="17.978614499433">
        <ele>79.6</ele>
        <time>2017-12-03T17:09:52Z</time>
      </trkpt>
      <trkpt lat="62.636758444661" lon="17.978636795287">
        <ele>79.6</ele>
        <time>2017-12-03T17:09:53Z</time>
      </trkpt>
      <trkpt lat="62.636740172119" lon="17.978655654562">
        <ele>79.8</ele>
        <time>2017-12-03T17:09:54Z</time>
      </trkpt>
      <trkpt lat="62.636722151034" lon="17.978679207701">
        <ele>79.8</ele>
        <time>2017-12-03T17:09:55Z</time>
      </trkpt>
      <trkpt lat="62.636702034474" lon="17.978688763067">
        <ele>80</ele>
        <time>2017-12-03T17:09:56Z</time>
      </trkpt>
      <trkpt lat="62.636687952882" lon="17.978698066976">
        <ele>80</ele>
        <time>2017-12-03T17:09:57Z</time>
      </trkpt>
      <trkpt lat="62.636665740847" lon="17.978722123029">
        <ele>80</ele>
        <time>2017-12-03T17:09:58Z</time>
      </trkpt>
      <trkpt lat="62.636649815237" lon="17.978737797182">
        <ele>80</ele>
        <time>2017-12-03T17:09:59Z</time>
      </trkpt>
      <trkpt lat="62.636626178279" lon="17.978734444422">
        <ele>80</ele>
        <time>2017-12-03T17:10:00Z</time>
      </trkpt>
      <trkpt lat="62.636605810262" lon="17.978749448023">
        <ele>80.2</ele>
        <time>2017-12-03T17:10:01Z</time>
      </trkpt>
      <trkpt lat="62.636581167476" lon="17.978748526014">
        <ele>80.2</ele>
        <time>2017-12-03T17:10:02Z</time>
      </trkpt>
      <trkpt lat="62.636565074228" lon="17.97874467034">
        <ele>80.4</ele>
        <time>2017-12-03T17:10:03Z</time>
      </trkpt>
      <trkpt lat="62.636544454754" lon="17.978752800783">
        <ele>80.4</ele>
        <time>2017-12-03T17:10:04Z</time>
      </trkpt>
      <trkpt lat="62.636525008746" lon="17.97874047939">
        <ele>80.8</ele>
        <time>2017-12-03T17:10:05Z</time>
      </trkpt>
      <trkpt lat="62.636504976005" lon="17.978753638973">
        <ele>80.8</ele>
        <time>2017-12-03T17:10:06Z</time>
      </trkpt>
      <trkpt lat="62.63648444035" lon="17.9787480231">
        <ele>81.2</ele>
        <time>2017-12-03T17:10:07Z</time>
      </trkpt>
      <trkpt lat="62.636466503084" lon="17.978746011444">
        <ele>81.2</ele>
        <time>2017-12-03T17:10:08Z</time>
      </trkpt>
      <trkpt lat="62.636452421492" lon="17.978755902086">
        <ele>81.6</ele>
        <time>2017-12-03T17:10:09Z</time>
      </trkpt>
      <trkpt lat="62.636434316588" lon="17.978752130231">
        <ele>81.6</ele>
        <time>2017-12-03T17:10:10Z</time>
      </trkpt>
      <trkpt lat="62.636420318815" lon="17.978763864891">
        <ele>81.8</ele>
        <time>2017-12-03T17:10:11Z</time>
      </trkpt>
      <trkpt lat="62.636403890291" lon="17.978765205995">
        <ele>81.8</ele>
        <time>2017-12-03T17:10:12Z</time>
      </trkpt>
      <trkpt lat="62.636386875034" lon="17.978771827696">
        <ele>82</ele>
        <time>2017-12-03T17:10:13Z</time>
      </trkpt>
      <trkpt lat="62.63637631384" lon="17.978786160745">
        <ele>82.2</ele>
        <time>2017-12-03T17:10:14Z</time>
      </trkpt>
      <trkpt lat="62.636361813153" lon="17.978785574012">
        <ele>82.2</ele>
        <time>2017-12-03T17:10:15Z</time>
      </trkpt>
      <trkpt lat="62.636347731561" lon="17.978797141034">
        <ele>82.4</ele>
        <time>2017-12-03T17:10:16Z</time>
      </trkpt>
      <trkpt lat="62.636335493987" lon="17.978812815187">
        <ele>82.4</ele>
        <time>2017-12-03T17:10:17Z</time>
      </trkpt>
      <trkpt lat="62.636317724359" lon="17.978814323929">
        <ele>82.6</ele>
        <time>2017-12-03T17:10:18Z</time>
      </trkpt>
      <trkpt lat="62.636304480957" lon="17.978833099385">
        <ele>82.6</ele>
        <time>2017-12-03T17:10:19Z</time>
      </trkpt>
      <trkpt lat="62.636288890623" lon="17.978843157665">
        <ele>83</ele>
        <time>2017-12-03T17:10:20Z</time>
      </trkpt>
      <trkpt lat="62.636275144307" lon="17.978864112415">
        <ele>83</ele>
        <time>2017-12-03T17:10:21Z</time>
      </trkpt>
      <trkpt lat="62.63625645267" lon="17.978887246459">
        <ele>83.4</ele>
        <time>2017-12-03T17:10:22Z</time>
      </trkpt>
      <trkpt lat="62.636239185956" lon="17.978903674983">
        <ele>83.6</ele>
        <time>2017-12-03T17:10:23Z</time>
      </trkpt>
      <trkpt lat="62.636224769088" lon="17.978914571453">
        <ele>83.8</ele>
        <time>2017-12-03T17:10:24Z</time>
      </trkpt>
      <trkpt lat="62.636219404672" lon="17.978936532031">
        <ele>84</ele>
        <time>2017-12-03T17:10:25Z</time>
      </trkpt>
      <trkpt lat="62.636210771315" lon="17.97896176155">
        <ele>84.2</ele>
        <time>2017-12-03T17:10:26Z</time>
      </trkpt>
      <trkpt lat="62.636200545397" lon="17.978983889766">
        <ele>84.2</ele>
        <time>2017-12-03T17:10:27Z</time>
      </trkpt>
      <trkpt lat="62.636187637271" lon="17.978999144824">
        <ele>84.6</ele>
        <time>2017-12-03T17:10:28Z</time>
      </trkpt>
      <trkpt lat="62.636175902611" lon="17.979009706018">
        <ele>84.8</ele>
        <time>2017-12-03T17:10:29Z</time>
      </trkpt>
      <trkpt lat="62.636167269254" lon="17.979020853945">
        <ele>85</ele>
        <time>2017-12-03T17:10:30Z</time>
      </trkpt>
      <trkpt lat="62.63615670806" lon="17.979041557238">
        <ele>85.2</ele>
        <time>2017-12-03T17:10:31Z</time>
      </trkpt>
      <trkpt lat="62.636143464658" lon="17.979059745961">
        <ele>85.6</ele>
        <time>2017-12-03T17:10:32Z</time>
      </trkpt>
      <trkpt lat="62.636133071102" lon="17.97907324082">
        <ele>85.8</ele>
        <time>2017-12-03T17:10:33Z</time>
      </trkpt>
      <trkpt lat="62.636125778849" lon="17.979099392348">
        <ele>86</ele>
        <time>2017-12-03T17:10:34Z</time>
      </trkpt>
      <trkpt lat="62.636114463284" lon="17.979128142265">
        <ele>86.2</ele>
        <time>2017-12-03T17:10:35Z</time>
      </trkpt>
      <trkpt lat="62.636103147719" lon="17.979154377612">
        <ele>86.6</ele>
        <time>2017-12-03T17:10:36Z</time>
      </trkpt>
      <trkpt lat="62.636092754163" lon="17.979173153068">
        <ele>86.6</ele>
        <time>2017-12-03T17:10:37Z</time>
      </trkpt>
      <trkpt lat="62.636081606236" lon="17.979203579365">
        <ele>86.8</ele>
        <time>2017-12-03T17:10:38Z</time>
      </trkpt>
      <trkpt lat="62.636074816897" lon="17.979214978749">
        <ele>87</ele>
        <time>2017-12-03T17:10:39Z</time>
      </trkpt>
      <trkpt lat="62.636070625947" lon="17.979227383961">
        <ele>87.2</ele>
        <time>2017-12-03T17:10:40Z</time>
      </trkpt>
      <trkpt lat="62.636068446653" lon="17.979239286259">
        <ele>87.4</ele>
        <time>2017-12-03T17:10:41Z</time>
      </trkpt>
      <trkpt lat="62.636061824952" lon="17.979254960412">
        <ele>87.6</ele>
        <time>2017-12-03T17:10:42Z</time>
      </trkpt>
      <trkpt lat="62.636062076409" lon="17.979257726439">
        <ele>87.8</ele>
        <time>2017-12-03T17:10:43Z</time>
      </trkpt>
      <trkpt lat="62.636066434997" lon="17.97925428986">
        <ele>88</ele>
        <time>2017-12-03T17:10:44Z</time>
      </trkpt>
      <trkpt lat="62.636065261531" lon="17.979245321227">
        <ele>88</ele>
        <time>2017-12-03T17:10:45Z</time>
      </trkpt>
      <trkpt lat="62.636019831633" lon="17.979633738473">
        <ele>87.8</ele>
        <time>2017-12-03T17:11:00Z</time>
      </trkpt>
      <trkpt lat="62.636016059778" lon="17.979739266594">
        <ele>87.6</ele>
        <time>2017-12-03T17:11:01Z</time>
      </trkpt>
      <trkpt lat="62.636012958475" lon="17.979919477444">
        <ele>87</ele>
        <time>2017-12-03T17:11:02Z</time>
      </trkpt>
      <trkpt lat="62.636016897968" lon="17.980055850957">
        <ele>86</ele>
        <time>2017-12-03T17:11:03Z</time>
      </trkpt>
      <trkpt lat="62.636033326492" lon="17.980210497012">
        <ele>85</ele>
        <time>2017-12-03T17:11:04Z</time>
      </trkpt>
      <trkpt lat="62.636051515215" lon="17.980343601584">
        <ele>83.8</ele>
        <time>2017-12-03T17:11:05Z</time>
      </trkpt>
      <trkpt lat="62.636073391974" lon="17.980478633993">
        <ele>83</ele>
        <time>2017-12-03T17:11:06Z</time>
      </trkpt>
      <trkpt lat="62.636094514362" lon="17.98062137775">
        <ele>82.2</ele>
        <time>2017-12-03T17:11:07Z</time>
      </trkpt>
      <trkpt lat="62.636114547103" lon="17.980755320512">
        <ele>81.6</ele>
        <time>2017-12-03T17:11:08Z</time>
      </trkpt>
      <trkpt lat="62.636135669491" lon="17.980875097863">
        <ele>81.4</ele>
        <time>2017-12-03T17:11:09Z</time>
      </trkpt>
      <trkpt lat="62.636159725544" lon="17.981013231575">
        <ele>81</ele>
        <time>2017-12-03T17:11:10Z</time>
      </trkpt>
      <trkpt lat="62.63617682462" lon="17.981134769125">
        <ele>80.8</ele>
        <time>2017-12-03T17:11:11Z</time>
      </trkpt>
      <trkpt lat="62.636191157669" lon="17.981265526765">
        <ele>80.8</ele>
        <time>2017-12-03T17:11:12Z</time>
      </trkpt>
      <trkpt lat="62.636197192637" lon="17.981385387935">
        <ele>80.6</ele>
        <time>2017-12-03T17:11:13Z</time>
      </trkpt>
      <trkpt lat="62.636209178754" lon="17.98149477173">
        <ele>80.4</ele>
        <time>2017-12-03T17:11:14Z</time>
      </trkpt>
      <trkpt lat="62.636219069396" lon="17.981611363959">
        <ele>80.2</ele>
        <time>2017-12-03T17:11:15Z</time>
      </trkpt>
      <trkpt lat="62.636226361649" lon="17.981727620912">
        <ele>79.8</ele>
        <time>2017-12-03T17:11:16Z</time>
      </trkpt>
      <trkpt lat="62.63623801249" lon="17.981845218969">
        <ele>79.6</ele>
        <time>2017-12-03T17:11:17Z</time>
      </trkpt>
      <trkpt lat="62.636253435186" lon="17.981951501461">
        <ele>79.6</ele>
        <time>2017-12-03T17:11:18Z</time>
      </trkpt>
      <trkpt lat="62.636268271149" lon="17.982049569691">
        <ele>79.6</ele>
        <time>2017-12-03T17:11:19Z</time>
      </trkpt>
      <trkpt lat="62.636281933646" lon="17.982145793903">
        <ele>80</ele>
        <time>2017-12-03T17:11:20Z</time>
      </trkpt>
      <trkpt lat="62.636289477356" lon="17.982215782768">
        <ele>80.6</ele>
        <time>2017-12-03T17:11:21Z</time>
      </trkpt>
      <trkpt lat="62.636307414622" lon="17.982306894021">
        <ele>80.8</ele>
        <time>2017-12-03T17:11:22Z</time>
      </trkpt>
      <trkpt lat="62.63631009683" lon="17.982380151827">
        <ele>81.2</ele>
        <time>2017-12-03T17:11:23Z</time>
      </trkpt>
      <trkpt lat="62.63631847873" lon="17.982431113779">
        <ele>81.6</ele>
        <time>2017-12-03T17:11:24Z</time>
      </trkpt>
      <trkpt lat="62.636312192305" lon="17.982521805937">
        <ele>81.2</ele>
        <time>2017-12-03T17:11:25Z</time>
      </trkpt>
      <trkpt lat="62.636311437934" lon="17.98257519864">
        <ele>81</ele>
        <time>2017-12-03T17:11:26Z</time>
      </trkpt>
      <trkpt lat="62.636310599744" lon="17.982654072319">
        <ele>81</ele>
        <time>2017-12-03T17:11:27Z</time>
      </trkpt>
      <trkpt lat="62.636304397138" lon="17.982719786415">
        <ele>81</ele>
        <time>2017-12-03T17:11:28Z</time>
      </trkpt>
      <trkpt lat="62.636309426278" lon="17.982778962629">
        <ele>80.8</ele>
        <time>2017-12-03T17:11:29Z</time>
      </trkpt>
      <trkpt lat="62.636296601971" lon="17.982850292598">
        <ele>81</ele>
        <time>2017-12-03T17:11:30Z</time>
      </trkpt>
      <trkpt lat="62.636307749898" lon="17.982881892361">
        <ele>81</ele>
        <time>2017-12-03T17:11:31Z</time>
      </trkpt>
      <trkpt lat="62.636313868685" lon="17.982946600629">
        <ele>81</ele>
        <time>2017-12-03T17:11:32Z</time>
      </trkpt>
      <trkpt lat="62.63631764054" lon="17.982987420482">
        <ele>81</ele>
        <time>2017-12-03T17:11:33Z</time>
      </trkpt>
      <trkpt lat="62.63631680235" lon="17.983067299989">
        <ele>81</ele>
        <time>2017-12-03T17:11:34Z</time>
      </trkpt>
      <trkpt lat="62.636324597517" lon="17.983132427352">
        <ele>81.2</ele>
        <time>2017-12-03T17:11:35Z</time>
      </trkpt>
      <trkpt lat="62.636323591689" lon="17.983190933014">
        <ele>81.2</ele>
        <time>2017-12-03T17:11:36Z</time>
      </trkpt>
      <trkpt lat="62.636314203961" lon="17.983250612142">
        <ele>81.2</ele>
        <time>2017-12-03T17:11:37Z</time>
      </trkpt>
      <trkpt lat="62.636315042151" lon="17.983297131687">
        <ele>81.4</ele>
        <time>2017-12-03T17:11:38Z</time>
      </trkpt>
      <trkpt lat="62.636309677735" lon="17.983362678145">
        <ele>81.6</ele>
        <time>2017-12-03T17:11:39Z</time>
      </trkpt>
      <trkpt lat="62.63631009683" lon="17.983397295392">
        <ele>81.6</ele>
        <time>2017-12-03T17:11:40Z</time>
      </trkpt>
      <trkpt lat="62.636300792921" lon="17.983451526285">
        <ele>81.8</ele>
        <time>2017-12-03T17:11:41Z</time>
      </trkpt>
      <trkpt lat="62.636294925591" lon="17.983493603423">
        <ele>81.8</ele>
        <time>2017-12-03T17:11:42Z</time>
      </trkpt>
      <trkpt lat="62.636285621682" lon="17.983545487384">
        <ele>81.8</ele>
        <time>2017-12-03T17:11:43Z</time>
      </trkpt>
      <trkpt lat="62.636274725212" lon="17.983607681082">
        <ele>81.8</ele>
        <time>2017-12-03T17:11:44Z</time>
      </trkpt>
      <trkpt lat="62.636273467927" lon="17.983648500935">
        <ele>82</ele>
        <time>2017-12-03T17:11:45Z</time>
      </trkpt>
      <trkpt lat="62.63626483457" lon="17.983685046019">
        <ele>82</ele>
        <time>2017-12-03T17:11:46Z</time>
      </trkpt>
      <trkpt lat="62.63626148181" lon="17.983748580821">
        <ele>82</ele>
        <time>2017-12-03T17:11:47Z</time>
      </trkpt>
      <trkpt lat="62.636249244236" lon="17.98381488165">
        <ele>82</ele>
        <time>2017-12-03T17:11:48Z</time>
      </trkpt>
      <trkpt lat="62.636241029974" lon="17.983842877196">
        <ele>82.2</ele>
        <time>2017-12-03T17:11:49Z</time>
      </trkpt>
      <trkpt lat="62.636221751604" lon="17.983899119745">
        <ele>82.2</ele>
        <time>2017-12-03T17:11:50Z</time>
      </trkpt>
      <trkpt lat="62.636221583966" lon="17.983933234078">
        <ele>82.2</ele>
        <time>2017-12-03T17:11:51Z</time>
      </trkpt>
      <trkpt lat="62.63621286679" lon="17.984008587359">
        <ele>82.2</ele>
        <time>2017-12-03T17:11:52Z</time>
      </trkpt>
      <trkpt lat="62.636211860962" lon="17.984038007828">
        <ele>82.4</ele>
        <time>2017-12-03T17:11:53Z</time>
      </trkpt>
      <trkpt lat="62.636197192637" lon="17.984101961725">
        <ele>82.4</ele>
        <time>2017-12-03T17:11:54Z</time>
      </trkpt>
      <trkpt lat="62.636195516257" lon="17.984137500981">
        <ele>82.4</ele>
        <time>2017-12-03T17:11:55Z</time>
      </trkpt>
      <trkpt lat="62.636187888728" lon="17.984197263928">
        <ele>82.6</ele>
        <time>2017-12-03T17:11:56Z</time>
      </trkpt>
      <trkpt lat="62.636199288112" lon="17.98423313846">
        <ele>82.6</ele>
        <time>2017-12-03T17:11:57Z</time>
      </trkpt>
      <trkpt lat="62.636195851533" lon="17.984306480085">
        <ele>82.8</ele>
        <time>2017-12-03T17:11:58Z</time>
      </trkpt>
      <trkpt lat="62.63620197032" lon="17.984338498943">
        <ele>82.8</ele>
        <time>2017-12-03T17:11:59Z</time>
      </trkpt>
      <trkpt lat="62.636191492945" lon="17.984398345709">
        <ele>83</ele>
        <time>2017-12-03T17:12:00Z</time>
      </trkpt>
      <trkpt lat="62.63619275023" lon="17.984445032892">
        <ele>83</ele>
        <time>2017-12-03T17:12:01Z</time>
      </trkpt>
      <trkpt lat="62.636180512656" lon="17.984504628201">
        <ele>83.2</ele>
        <time>2017-12-03T17:12:02Z</time>
      </trkpt>
      <trkpt lat="62.636185290339" lon="17.984543017303">
        <ele>83.2</ele>
        <time>2017-12-03T17:12:03Z</time>
      </trkpt>
      <trkpt lat="62.636174729145" lon="17.984598002567">
        <ele>83.4</ele>
        <time>2017-12-03T17:12:04Z</time>
      </trkpt>
      <trkpt lat="62.636170202919" lon="17.984642007542">
        <ele>83.4</ele>
        <time>2017-12-03T17:12:05Z</time>
      </trkpt>
      <trkpt lat="62.636166011969" lon="17.984686180155">
        <ele>83.4</ele>
        <time>2017-12-03T17:12:06Z</time>
      </trkpt>
      <trkpt lat="62.636161569562" lon="17.984733286433">
        <ele>83.4</ele>
        <time>2017-12-03T17:12:07Z</time>
      </trkpt>
      <trkpt lat="62.636157881526" lon="17.984773435734">
        <ele>83.6</ele>
        <time>2017-12-03T17:12:08Z</time>
      </trkpt>
      <trkpt lat="62.636157210974" lon="17.984821044926">
        <ele>83.6</ele>
        <time>2017-12-03T17:12:09Z</time>
      </trkpt>
      <trkpt lat="62.636155618413" lon="17.984865804272">
        <ele>83.8</ele>
        <time>2017-12-03T17:12:10Z</time>
      </trkpt>
      <trkpt lat="62.636153103843" lon="17.984918023509">
        <ele>83.8</ele>
        <time>2017-12-03T17:12:11Z</time>
      </trkpt>
      <trkpt lat="62.636154528766" lon="17.984948030711">
        <ele>83.8</ele>
        <time>2017-12-03T17:12:12Z</time>
      </trkpt>
      <trkpt lat="62.636146901237" lon="17.985009134762">
        <ele>84.2</ele>
        <time>2017-12-03T17:12:13Z</time>
      </trkpt>
      <trkpt lat="62.636149667264" lon="17.985044087285">
        <ele>84.2</ele>
        <time>2017-12-03T17:12:14Z</time>
      </trkpt>
      <trkpt lat="62.636144219029" lon="17.985102676766">
        <ele>84.2</ele>
        <time>2017-12-03T17:12:15Z</time>
      </trkpt>
      <trkpt lat="62.63614916435" lon="17.985134947081">
        <ele>84.2</ele>
        <time>2017-12-03T17:12:16Z</time>
      </trkpt>
      <trkpt lat="62.636146482142" lon="17.985206696145">
        <ele>84.4</ele>
        <time>2017-12-03T17:12:17Z</time>
      </trkpt>
      <trkpt lat="62.63614748797" lon="17.985244330876">
        <ele>84.4</ele>
        <time>2017-12-03T17:12:18Z</time>
      </trkpt>
      <trkpt lat="62.636140530993" lon="17.985306608393">
        <ele>84.4</ele>
        <time>2017-12-03T17:12:19Z</time>
      </trkpt>
      <trkpt lat="62.636141369183" lon="17.985356732155">
        <ele>84.2</ele>
        <time>2017-12-03T17:12:20Z</time>
      </trkpt>
      <trkpt lat="62.636136842957" lon="17.985408783754">
        <ele>84.4</ele>
        <time>2017-12-03T17:12:21Z</time>
      </trkpt>
      <trkpt lat="62.636126030306" lon="17.985461841181">
        <ele>84.4</ele>
        <time>2017-12-03T17:12:22Z</time>
      </trkpt>
      <trkpt lat="62.636123599555" lon="17.9855038345">
        <ele>84.4</ele>
        <time>2017-12-03T17:12:23Z</time>
      </trkpt>
      <trkpt lat="62.636109434144" lon="17.985562256343">
        <ele>84.4</ele>
        <time>2017-12-03T17:12:24Z</time>
      </trkpt>
      <trkpt lat="62.636102477167" lon="17.985605674585">
        <ele>84.6</ele>
        <time>2017-12-03T17:12:25Z</time>
      </trkpt>
      <trkpt lat="62.636086132462" lon="17.985650266293">
        <ele>84.6</ele>
        <time>2017-12-03T17:12:26Z</time>
      </trkpt>
      <trkpt lat="62.636073224336" lon="17.985693768354">
        <ele>84.6</ele>
        <time>2017-12-03T17:12:27Z</time>
      </trkpt>
      <trkpt lat="62.636058891287" lon="17.985727882687">
        <ele>84.6</ele>
        <time>2017-12-03T17:12:28Z</time>
      </trkpt>
      <trkpt lat="62.636041792211" lon="17.985754118034">
        <ele>84.8</ele>
        <time>2017-12-03T17:12:29Z</time>
      </trkpt>
      <trkpt lat="62.636012455561" lon="17.985808516565">
        <ele>84.8</ele>
        <time>2017-12-03T17:12:30Z</time>
      </trkpt>
      <trkpt lat="62.635995524123" lon="17.985824945089">
        <ele>84.8</ele>
        <time>2017-12-03T17:12:31Z</time>
      </trkpt>
      <trkpt lat="62.635968450586" lon="17.985859478517">
        <ele>85</ele>
        <time>2017-12-03T17:12:32Z</time>
      </trkpt>
      <trkpt lat="62.635948753121" lon="17.985879678896">
        <ele>85.2</ele>
        <time>2017-12-03T17:12:33Z</time>
      </trkpt>
      <trkpt lat="62.635924026516" lon="17.985895939782">
        <ele>85.4</ele>
        <time>2017-12-03T17:12:34Z</time>
      </trkpt>
      <trkpt lat="62.635907095078" lon="17.985920582568">
        <ele>85.6</ele>
        <time>2017-12-03T17:12:35Z</time>
      </trkpt>
      <trkpt lat="62.635882871387" lon="17.985931562857">
        <ele>85.6</ele>
        <time>2017-12-03T17:12:36Z</time>
      </trkpt>
      <trkpt lat="62.63586250337" lon="17.985954529263">
        <ele>85.8</ele>
        <time>2017-12-03T17:12:37Z</time>
      </trkpt>
      <trkpt lat="62.635837022394" lon="17.985961570059">
        <ele>85.8</ele>
        <time>2017-12-03T17:12:38Z</time>
      </trkpt>
      <trkpt lat="62.635816905834" lon="17.985984536465">
        <ele>85.8</ele>
        <time>2017-12-03T17:12:39Z</time>
      </trkpt>
      <trkpt lat="62.635789245564" lon="17.98600926307">
        <ele>86</ele>
        <time>2017-12-03T17:12:40Z</time>
      </trkpt>
      <trkpt lat="62.635776421257" lon="17.986045891973">
        <ele>86</ele>
        <time>2017-12-03T17:12:41Z</time>
      </trkpt>
      <trkpt lat="62.63575605324" lon="17.986073384605">
        <ele>86.2</ele>
        <time>2017-12-03T17:12:42Z</time>
      </trkpt>
      <trkpt lat="62.635733505929" lon="17.986105906377">
        <ele>86.2</ele>
        <time>2017-12-03T17:12:43Z</time>
      </trkpt>
      <trkpt lat="62.635727470961" lon="17.986133231371">
        <ele>86.2</ele>
        <time>2017-12-03T17:12:44Z</time>
      </trkpt>
      <trkpt lat="62.635715149568" lon="17.986164831134">
        <ele>86.2</ele>
        <time>2017-12-03T17:12:45Z</time>
      </trkpt>
      <trkpt lat="62.635699140139" lon="17.98617773926">
        <ele>86.4</ele>
        <time>2017-12-03T17:12:46Z</time>
      </trkpt>
      <trkpt lat="62.635684220357" lon="17.986211015403">
        <ele>86.4</ele>
        <time>2017-12-03T17:12:47Z</time>
      </trkpt>
      <trkpt lat="62.635659829028" lon="17.986240268234">
        <ele>86.4</ele>
        <time>2017-12-03T17:12:48Z</time>
      </trkpt>
      <trkpt lat="62.635649435472" lon="17.986278824974">
        <ele>86.6</ele>
        <time>2017-12-03T17:12:49Z</time>
      </trkpt>
      <trkpt lat="62.635626552885" lon="17.9863168788">
        <ele>86.6</ele>
        <time>2017-12-03T17:12:50Z</time>
      </trkpt>
      <trkpt lat="62.635622110478" lon="17.986349652029">
        <ele>86.8</ele>
        <time>2017-12-03T17:12:51Z</time>
      </trkpt>
      <trkpt lat="62.635593612018" lon="17.986398015592">
        <ele>87</ele>
        <time>2017-12-03T17:12:52Z</time>
      </trkpt>
      <trkpt lat="62.635582296453" lon="17.98642835807">
        <ele>87.2</ele>
        <time>2017-12-03T17:12:53Z</time>
      </trkpt>
      <trkpt lat="62.635575423295" lon="17.986457610901">
        <ele>87.2</ele>
        <time>2017-12-03T17:12:54Z</time>
      </trkpt>
      <trkpt lat="62.635554384726" lon="17.986524330825">
        <ele>87.4</ele>
        <time>2017-12-03T17:12:55Z</time>
      </trkpt>
      <trkpt lat="62.635544494084" lon="17.98656414485">
        <ele>87.4</ele>
        <time>2017-12-03T17:12:56Z</time>
      </trkpt>
      <trkpt lat="62.635537956202" lon="17.986599767925">
        <ele>87.4</ele>
        <time>2017-12-03T17:12:57Z</time>
      </trkpt>
      <trkpt lat="62.635519180746" lon="17.986641509787">
        <ele>87.6</ele>
        <time>2017-12-03T17:12:58Z</time>
      </trkpt>
      <trkpt lat="62.635504931516" lon="17.986674869749">
        <ele>87.8</ele>
        <time>2017-12-03T17:12:59Z</time>
      </trkpt>
      <trkpt lat="62.635487161888" lon="17.98671166629">
        <ele>87.8</ele>
        <time>2017-12-03T17:13:00Z</time>
      </trkpt>
      <trkpt lat="62.635473164115" lon="17.98675106122">
        <ele>88</ele>
        <time>2017-12-03T17:13:01Z</time>
      </trkpt>
      <trkpt lat="62.63545514303" lon="17.986780816965">
        <ele>88.2</ele>
        <time>2017-12-03T17:13:02Z</time>
      </trkpt>
      <trkpt lat="62.635440390886" lon="17.986833958211">
        <ele>88.2</ele>
        <time>2017-12-03T17:13:03Z</time>
      </trkpt>
      <trkpt lat="62.635415077548" lon="17.986870335657">
        <ele>88.4</ele>
        <time>2017-12-03T17:13:04Z</time>
      </trkpt>
      <trkpt lat="62.635406192734" lon="17.986916100831">
        <ele>88.4</ele>
        <time>2017-12-03T17:13:05Z</time>
      </trkpt>
      <trkpt lat="62.635388758382" lon="17.986945186024">
        <ele>88.4</ele>
        <time>2017-12-03T17:13:06Z</time>
      </trkpt>
      <trkpt lat="62.635370150564" lon="17.98697485795">
        <ele>88.4</ele>
        <time>2017-12-03T17:13:07Z</time>
      </trkpt>
      <trkpt lat="62.63535875118" lon="17.987012408862">
        <ele>88.4</ele>
        <time>2017-12-03T17:13:08Z</time>
      </trkpt>
      <trkpt lat="62.63532857634" lon="17.987068651411">
        <ele>88.4</ele>
        <time>2017-12-03T17:13:09Z</time>
      </trkpt>
      <trkpt lat="62.63531851806" lon="17.987106705237">
        <ele>88.6</ele>
        <time>2017-12-03T17:13:10Z</time>
      </trkpt>
      <trkpt lat="62.635299491147" lon="17.987142160674">
        <ele>88.6</ele>
        <time>2017-12-03T17:13:11Z</time>
      </trkpt>
      <trkpt lat="62.635280212777" lon="17.987175352998">
        <ele>88.8</ele>
        <time>2017-12-03T17:13:12Z</time>
      </trkpt>
      <trkpt lat="62.635270908868" lon="17.987206366028">
        <ele>89</ele>
        <time>2017-12-03T17:13:13Z</time>
      </trkpt>
      <trkpt lat="62.63525900657" lon="17.987241737646">
        <ele>89.2</ele>
        <time>2017-12-03T17:13:14Z</time>
      </trkpt>
      <trkpt lat="62.635257246371" lon="17.987273672685">
        <ele>89.2</ele>
        <time>2017-12-03T17:13:15Z</time>
      </trkpt>
      <trkpt lat="62.63523805182" lon="17.987306697371">
        <ele>89.4</ele>
        <time>2017-12-03T17:13:16Z</time>
      </trkpt>
      <trkpt lat="62.635218102898" lon="17.987341649894">
        <ele>89.4</ele>
        <time>2017-12-03T17:13:17Z</time>
      </trkpt>
      <trkpt lat="62.635201590555" lon="17.987379033168">
        <ele>89.6</ele>
        <time>2017-12-03T17:13:18Z</time>
      </trkpt>
      <trkpt lat="62.635183988565" lon="17.98740401123">
        <ele>89.6</ele>
        <time>2017-12-03T17:13:19Z</time>
      </trkpt>
      <trkpt lat="62.635172170086" lon="17.987444998721">
        <ele>89.6</ele>
        <time>2017-12-03T17:13:20Z</time>
      </trkpt>
      <trkpt lat="62.635157669399" lon="17.987470731154">
        <ele>89.8</ele>
        <time>2017-12-03T17:13:21Z</time>
      </trkpt>
      <trkpt lat="62.635138977762" lon="17.987500235442">
        <ele>89.8</ele>
        <time>2017-12-03T17:13:22Z</time>
      </trkpt>
      <trkpt lat="62.635129841491" lon="17.987531751386">
        <ele>90</ele>
        <time>2017-12-03T17:13:23Z</time>
      </trkpt>
      <trkpt lat="62.635115340804" lon="17.987565278986">
        <ele>90</ele>
        <time>2017-12-03T17:13:24Z</time>
      </trkpt>
      <trkpt lat="62.635102935592" lon="17.987598219853">
        <ele>90.2</ele>
        <time>2017-12-03T17:13:25Z</time>
      </trkpt>
      <trkpt lat="62.635088267267" lon="17.987627221227">
        <ele>90.2</ele>
        <time>2017-12-03T17:13:26Z</time>
      </trkpt>
      <trkpt lat="62.635071922562" lon="17.987661922293">
        <ele>90.4</ele>
        <time>2017-12-03T17:13:27Z</time>
      </trkpt>
      <trkpt lat="62.635056416047" lon="17.987692683866">
        <ele>90.6</ele>
        <time>2017-12-03T17:13:28Z</time>
      </trkpt>
      <trkpt lat="62.635036550944" lon="17.987714560625">
        <ele>90.6</ele>
        <time>2017-12-03T17:13:29Z</time>
      </trkpt>
      <trkpt lat="62.635027330854" lon="17.987746411845">
        <ele>90.6</ele>
        <time>2017-12-03T17:13:30Z</time>
      </trkpt>
      <trkpt lat="62.635007717208" lon="17.98776862388">
        <ele>90.8</ele>
        <time>2017-12-03T17:13:31Z</time>
      </trkpt>
      <trkpt lat="62.634994725263" lon="17.987805168964">
        <ele>90.8</ele>
        <time>2017-12-03T17:13:32Z</time>
      </trkpt>
      <trkpt lat="62.634975865988" lon="17.987828722103">
        <ele>91.2</ele>
        <time>2017-12-03T17:13:33Z</time>
      </trkpt>
      <trkpt lat="62.634959186007" lon="17.98786082478">
        <ele>91.2</ele>
        <time>2017-12-03T17:13:34Z</time>
      </trkpt>
      <trkpt lat="62.634941667836" lon="17.987880606064">
        <ele>91.2</ele>
        <time>2017-12-03T17:13:35Z</time>
      </trkpt>
      <trkpt lat="62.63492708333" lon="17.987902399004">
        <ele>91.2</ele>
        <time>2017-12-03T17:13:36Z</time>
      </trkpt>
      <trkpt lat="62.634909900435" lon="17.987924024306">
        <ele>91.4</ele>
        <time>2017-12-03T17:13:37Z</time>
      </trkpt>
      <trkpt lat="62.634891292617" lon="17.987935088414">
        <ele>91.4</ele>
        <time>2017-12-03T17:13:38Z</time>
      </trkpt>
      <trkpt lat="62.634876456654" lon="17.987960317933">
        <ele>91.6</ele>
        <time>2017-12-03T17:13:39Z</time>
      </trkpt>
      <trkpt lat="62.634856172456" lon="17.987970711489">
        <ele>91.6</ele>
        <time>2017-12-03T17:13:40Z</time>
      </trkpt>
      <trkpt lat="62.634844856891" lon="17.98798906785">
        <ele>91.8</ele>
        <time>2017-12-03T17:13:41Z</time>
      </trkpt>
      <trkpt lat="62.63482566234" lon="17.988012704808">
        <ele>92</ele>
        <time>2017-12-03T17:13:42Z</time>
      </trkpt>
      <trkpt lat="62.634800265183" lon="17.988015303197">
        <ele>92</ele>
        <time>2017-12-03T17:13:43Z</time>
      </trkpt>
      <trkpt lat="62.634783166107" lon="17.988028211323">
        <ele>92.2</ele>
        <time>2017-12-03T17:13:44Z</time>
      </trkpt>
      <trkpt lat="62.634755086742" lon="17.988021254346">
        <ele>92.2</ele>
        <time>2017-12-03T17:13:45Z</time>
      </trkpt>
      <trkpt lat="62.634734383449" lon="17.988019745604">
        <ele>92.4</ele>
        <time>2017-12-03T17:13:46Z</time>
      </trkpt>
      <trkpt lat="62.63471334488" lon="17.988016225206">
        <ele>92.4</ele>
        <time>2017-12-03T17:13:47Z</time>
      </trkpt>
      <trkpt lat="62.634683672954" lon="17.988022260174">
        <ele>92.4</ele>
        <time>2017-12-03T17:13:48Z</time>
      </trkpt>
      <trkpt lat="62.634673195579" lon="17.988026618762">
        <ele>92.6</ele>
        <time>2017-12-03T17:13:49Z</time>
      </trkpt>
      <trkpt lat="62.634645032395" lon="17.988034497748">
        <ele>92.4</ele>
        <time>2017-12-03T17:13:50Z</time>
      </trkpt>
      <trkpt lat="62.634636482857" lon="17.988039945983">
        <ele>92.6</ele>
        <time>2017-12-03T17:13:51Z</time>
      </trkpt>
      <trkpt lat="62.634614773736" lon="17.988038185784">
        <ele>92.6</ele>
        <time>2017-12-03T17:13:52Z</time>
      </trkpt>
      <trkpt lat="62.634595663004" lon="17.988040532716">
        <ele>92.6</ele>
        <time>2017-12-03T17:13:53Z</time>
      </trkpt>
      <trkpt lat="62.634579821213" lon="17.988053859937">
        <ele>92.6</ele>
        <time>2017-12-03T17:13:54Z</time>
      </trkpt>
      <trkpt lat="62.634555178427" lon="17.988059811086">
        <ele>92.6</ele>
        <time>2017-12-03T17:13:55Z</time>
      </trkpt>
      <trkpt lat="62.634542437939" lon="17.988068276805">
        <ele>92.6</ele>
        <time>2017-12-03T17:13:56Z</time>
      </trkpt>
      <trkpt lat="62.634521147913" lon="17.988073641221">
        <ele>92.8</ele>
        <time>2017-12-03T17:13:57Z</time>
      </trkpt>
      <trkpt lat="62.634498600602" lon="17.988078670361">
        <ele>92.8</ele>
        <time>2017-12-03T17:13:58Z</time>
      </trkpt>
      <trkpt lat="62.634467252296" lon="17.988092751953">
        <ele>92.8</ele>
        <time>2017-12-03T17:13:59Z</time>
      </trkpt>
      <trkpt lat="62.634447890107" lon="17.988095769437">
        <ele>93</ele>
        <time>2017-12-03T17:14:00Z</time>
      </trkpt>
      <trkpt lat="62.634427857366" lon="17.988095098885">
        <ele>93</ele>
        <time>2017-12-03T17:14:01Z</time>
      </trkpt>
      <trkpt lat="62.634416541801" lon="17.988096523808">
        <ele>93.2</ele>
        <time>2017-12-03T17:14:02Z</time>
      </trkpt>
      <trkpt lat="62.634395251775" lon="17.988105743898">
        <ele>93.4</ele>
        <time>2017-12-03T17:14:03Z</time>
      </trkpt>
      <trkpt lat="62.634368764971" lon="17.988116556549">
        <ele>93.4</ele>
        <time>2017-12-03T17:14:04Z</time>
      </trkpt>
      <trkpt lat="62.634348816049" lon="17.988119657852">
        <ele>93.6</ele>
        <time>2017-12-03T17:14:05Z</time>
      </trkpt>
      <trkpt lat="62.634332219887" lon="17.988120160766">
        <ele>93.8</ele>
        <time>2017-12-03T17:14:06Z</time>
      </trkpt>
      <trkpt lat="62.634306738911" lon="17.988128458847">
        <ele>93.8</ele>
        <time>2017-12-03T17:14:07Z</time>
      </trkpt>
      <trkpt lat="62.634278659546" lon="17.988129129399">
        <ele>93.8</ele>
        <time>2017-12-03T17:14:08Z</time>
      </trkpt>
      <trkpt lat="62.634256782787" lon="17.988136086376">
        <ele>93.8</ele>
        <time>2017-12-03T17:14:09Z</time>
      </trkpt>
      <trkpt lat="62.634228451965" lon="17.988139020041">
        <ele>93.8</ele>
        <time>2017-12-03T17:14:10Z</time>
      </trkpt>
      <trkpt lat="62.634209173595" lon="17.988136673109">
        <ele>93.8</ele>
        <time>2017-12-03T17:14:11Z</time>
      </trkpt>
      <trkpt lat="62.634184111714" lon="17.988118735843">
        <ele>93.8</ele>
        <time>2017-12-03T17:14:12Z</time>
      </trkpt>
      <trkpt lat="62.634158044005" lon="17.988123345888">
        <ele>93.8</ele>
        <time>2017-12-03T17:14:13Z</time>
      </trkpt>
      <trkpt lat="62.63412996464" lon="17.98810557626">
        <ele>93.8</ele>
        <time>2017-12-03T17:14:14Z</time>
      </trkpt>
      <trkpt lat="62.634109512804" lon="17.988113455246">
        <ele>94</ele>
        <time>2017-12-03T17:14:15Z</time>
      </trkpt>
      <trkpt lat="62.634075566109" lon="17.988103983699">
        <ele>94</ele>
        <time>2017-12-03T17:14:16Z</time>
      </trkpt>
      <trkpt lat="62.634046229459" lon="17.988107587916">
        <ele>94.2</ele>
        <time>2017-12-03T17:14:17Z</time>
      </trkpt>
      <trkpt lat="62.634017395723" lon="17.988092751953">
        <ele>94.4</ele>
        <time>2017-12-03T17:14:18Z</time>
      </trkpt>
      <trkpt lat="62.634001637751" lon="17.988083950958">
        <ele>94.4</ele>
        <time>2017-12-03T17:14:19Z</time>
      </trkpt>
      <trkpt lat="62.633978419888" lon="17.988068863538">
        <ele>94.6</ele>
        <time>2017-12-03T17:14:20Z</time>
      </trkpt>
      <trkpt lat="62.63395645931" lon="17.988063415303">
        <ele>94.6</ele>
        <time>2017-12-03T17:14:21Z</time>
      </trkpt>
      <trkpt lat="62.633939527872" lon="17.988044220752">
        <ele>94.6</ele>
        <time>2017-12-03T17:14:22Z</time>
      </trkpt>
      <trkpt lat="62.633926116832" lon="17.988033659558">
        <ele>94.6</ele>
        <time>2017-12-03T17:14:23Z</time>
      </trkpt>
      <trkpt lat="62.633893762698" lon="17.988026367305">
        <ele>94.6</ele>
        <time>2017-12-03T17:14:24Z</time>
      </trkpt>
      <trkpt lat="62.633861995297" lon="17.988016979577">
        <ele>94.8</ele>
        <time>2017-12-03T17:14:25Z</time>
      </trkpt>
      <trkpt lat="62.63384665642" lon="17.988008094763">
        <ele>94.6</ele>
        <time>2017-12-03T17:14:26Z</time>
      </trkpt>
      <trkpt lat="62.633821259263" lon="17.987989319307">
        <ele>94.8</ele>
        <time>2017-12-03T17:14:27Z</time>
      </trkpt>
      <trkpt lat="62.633790916785" lon="17.987985379814">
        <ele>94.8</ele>
        <time>2017-12-03T17:14:28Z</time>
      </trkpt>
      <trkpt lat="62.633775074994" lon="17.987956294621">
        <ele>94.8</ele>
        <time>2017-12-03T17:14:29Z</time>
      </trkpt>
      <trkpt lat="62.633751689493" lon="17.987930897464">
        <ele>95</ele>
        <time>2017-12-03T17:14:30Z</time>
      </trkpt>
      <trkpt lat="62.633729645096" lon="17.987935842785">
        <ele>95</ele>
        <time>2017-12-03T17:14:31Z</time>
      </trkpt>
      <trkpt lat="62.633692932374" lon="17.987915223311">
        <ele>95</ele>
        <time>2017-12-03T17:14:32Z</time>
      </trkpt>
      <trkpt lat="62.633676084755" lon="17.987909272162">
        <ele>95.2</ele>
        <time>2017-12-03T17:14:33Z</time>
      </trkpt>
      <trkpt lat="62.63365387272" lon="17.987884797014">
        <ele>95.2</ele>
        <time>2017-12-03T17:14:34Z</time>
      </trkpt>
      <trkpt lat="62.633631576866" lon="17.987862333522">
        <ele>95.2</ele>
        <time>2017-12-03T17:14:35Z</time>
      </trkpt>
      <trkpt lat="62.633617998188" lon="17.987847078464">
        <ele>95.4</ele>
        <time>2017-12-03T17:14:36Z</time>
      </trkpt>
      <trkpt lat="62.633596791981" lon="17.987824698791">
        <ele>95.8</ele>
        <time>2017-12-03T17:14:37Z</time>
      </trkpt>
      <trkpt lat="62.633576591602" lon="17.98780801881">
        <ele>96</ele>
        <time>2017-12-03T17:14:38Z</time>
      </trkpt>
      <trkpt lat="62.633557816146" lon="17.987788321345">
        <ele>96.2</ele>
        <time>2017-12-03T17:14:39Z</time>
      </trkpt>
      <trkpt lat="62.633534179188" lon="17.987758984695">
        <ele>96.4</ele>
        <time>2017-12-03T17:14:40Z</time>
      </trkpt>
      <trkpt lat="62.633510290773" lon="17.987744735465">
        <ele>96.6</ele>
        <time>2017-12-03T17:14:41Z</time>
      </trkpt>
      <trkpt lat="62.633487240548" lon="17.987703328879">
        <ele>96.6</ele>
        <time>2017-12-03T17:14:42Z</time>
      </trkpt>
      <trkpt lat="62.633463184495" lon="17.987666616157">
        <ele>96.6</ele>
        <time>2017-12-03T17:14:43Z</time>
      </trkpt>
      <trkpt lat="62.633444576677" lon="17.987634345842">
        <ele>96.8</ele>
        <time>2017-12-03T17:14:44Z</time>
      </trkpt>
      <trkpt lat="62.633425465945" lon="17.987606182658">
        <ele>96.8</ele>
        <time>2017-12-03T17:14:45Z</time>
      </trkpt>
      <trkpt lat="62.633410713801" lon="17.987587155745">
        <ele>96.8</ele>
        <time>2017-12-03T17:14:46Z</time>
      </trkpt>
      <trkpt lat="62.633388250309" lon="17.987547006444">
        <ele>97</ele>
        <time>2017-12-03T17:14:47Z</time>
      </trkpt>
      <trkpt lat="62.633372659975" lon="17.987520854916">
        <ele>96.8</ele>
        <time>2017-12-03T17:14:48Z</time>
      </trkpt>
      <trkpt lat="62.633363356066" lon="17.98749285937">
        <ele>97</ele>
        <time>2017-12-03T17:14:49Z</time>
      </trkpt>
      <trkpt lat="62.633351705225" lon="17.987444495807">
        <ele>97.2</ele>
        <time>2017-12-03T17:14:50Z</time>
      </trkpt>
      <trkpt lat="62.633338042728" lon="17.987407531628">
        <ele>97.4</ele>
        <time>2017-12-03T17:14:51Z</time>
      </trkpt>
      <trkpt lat="62.633312813209" lon="17.987356653495">
        <ele>97.6</ele>
        <time>2017-12-03T17:14:52Z</time>
      </trkpt>
      <trkpt lat="62.633293031925" lon="17.987293453969">
        <ele>97.8</ele>
        <time>2017-12-03T17:14:53Z</time>
      </trkpt>
      <trkpt lat="62.63328590731" lon="17.987226231131">
        <ele>98</ele>
        <time>2017-12-03T17:14:54Z</time>
      </trkpt>
      <trkpt lat="62.633265539293" lon="17.987120619191">
        <ele>97.8</ele>
        <time>2017-12-03T17:14:55Z</time>
      </trkpt>
      <trkpt lat="62.633239723041" lon="17.987017689459">
        <ele>97</ele>
        <time>2017-12-03T17:14:56Z</time>
      </trkpt>
      <trkpt lat="62.633214828798" lon="17.986915681736">
        <ele>96.2</ele>
        <time>2017-12-03T17:14:57Z</time>
      </trkpt>
      <trkpt lat="62.633195885704" lon="17.986798586593">
        <ele>95.4</ele>
        <time>2017-12-03T17:14:58Z</time>
      </trkpt>
      <trkpt lat="62.63318448632" lon="17.986695237766">
        <ele>94.6</ele>
        <time>2017-12-03T17:14:59Z</time>
      </trkpt>
      <trkpt lat="62.633175852963" lon="17.986594068233">
        <ele>93.8</ele>
        <time>2017-12-03T17:15:00Z</time>
      </trkpt>
      <trkpt lat="62.633167387244" lon="17.986504130446">
        <ele>93.6</ele>
        <time>2017-12-03T17:15:01Z</time>
      </trkpt>
      <trkpt lat="62.63316269338" lon="17.986397512678">
        <ele>93.6</ele>
        <time>2017-12-03T17:15:02Z</time>
      </trkpt>
      <trkpt lat="62.633159927353" lon="17.986293744756">
        <ele>93.6</ele>
        <time>2017-12-03T17:15:03Z</time>
      </trkpt>
      <trkpt lat="62.633159172982" lon="17.986191401757">
        <ele>93.4</ele>
        <time>2017-12-03T17:15:04Z</time>
      </trkpt>
      <trkpt lat="62.633167890158" lon="17.98607128913">
        <ele>93.2</ele>
        <time>2017-12-03T17:15:05Z</time>
      </trkpt>
      <trkpt lat="62.633168476891" lon="17.985954529263">
        <ele>93</ele>
        <time>2017-12-03T17:15:06Z</time>
      </trkpt>
      <trkpt lat="62.633171829651" lon="17.9858223467">
        <ele>92.8</ele>
        <time>2017-12-03T17:15:07Z</time>
      </trkpt>
      <trkpt lat="62.633172332565" lon="17.985699048951">
        <ele>92.6</ele>
        <time>2017-12-03T17:15:08Z</time>
      </trkpt>
      <trkpt lat="62.633178367533" lon="17.985596370676">
        <ele>92.4</ele>
        <time>2017-12-03T17:15:09Z</time>
      </trkpt>
      <trkpt lat="62.633178702809" lon="17.985470558357">
        <ele>92</ele>
        <time>2017-12-03T17:15:10Z</time>
      </trkpt>
      <trkpt lat="62.63318448632" lon="17.985346757694">
        <ele>92</ele>
        <time>2017-12-03T17:15:11Z</time>
      </trkpt>
      <trkpt lat="62.633209129106" lon="17.985208540163">
        <ele>91.8</ele>
        <time>2017-12-03T17:15:12Z</time>
      </trkpt>
      <trkpt lat="62.633231927874" lon="17.985071244641">
        <ele>91.6</ele>
        <time>2017-12-03T17:15:13Z</time>
      </trkpt>
      <trkpt lat="62.633253972271" lon="17.984927075961">
        <ele>91.2</ele>
        <time>2017-12-03T17:15:14Z</time>
      </trkpt>
      <trkpt lat="62.633274759383" lon="17.984795731588">
        <ele>90.6</ele>
        <time>2017-12-03T17:15:15Z</time>
      </trkpt>
      <trkpt lat="62.63330183292" lon="17.98466732088">
        <ele>90</ele>
        <time>2017-12-03T17:15:16Z</time>
      </trkpt>
      <trkpt lat="62.633332929769" lon="17.984540502733">
        <ele>89.4</ele>
        <time>2017-12-03T17:15:17Z</time>
      </trkpt>
      <trkpt lat="62.633356566727" lon="17.984427095626">
        <ele>88.8</ele>
        <time>2017-12-03T17:15:18Z</time>
      </trkpt>
      <trkpt lat="62.633373833441" lon="17.984322908609">
        <ele>88.4</ele>
        <time>2017-12-03T17:15:19Z</time>
      </trkpt>
      <trkpt lat="62.633385400463" lon="17.984202041611">
        <ele>88.4</ele>
        <time>2017-12-03T17:15:20Z</time>
      </trkpt>
      <trkpt lat="62.633392441259" lon="17.98410992453">
        <ele>88.4</ele>
        <time>2017-12-03T17:15:21Z</time>
      </trkpt>
      <trkpt lat="62.633398476227" lon="17.983987045876">
        <ele>88.6</ele>
        <time>2017-12-03T17:15:22Z</time>
      </trkpt>
      <trkpt lat="62.633412641638" lon="17.983907669283">
        <ele>88.6</ele>
        <time>2017-12-03T17:15:23Z</time>
      </trkpt>
      <trkpt lat="62.633421945547" lon="17.983814797831">
        <ele>88.8</ele>
        <time>2017-12-03T17:15:24Z</time>
      </trkpt>
      <trkpt lat="62.63343259056" lon="17.983753861418">
        <ele>89.2</ele>
        <time>2017-12-03T17:15:25Z</time>
      </trkpt>
      <trkpt lat="62.633442481202" lon="17.983679681603">
        <ele>89.4</ele>
        <time>2017-12-03T17:15:26Z</time>
      </trkpt>
      <trkpt lat="62.633439044623" lon="17.983594270042">
        <ele>89.8</ele>
        <time>2017-12-03T17:15:27Z</time>
      </trkpt>
      <trkpt lat="62.633460418468" lon="17.983497794373">
        <ele>90</ele>
        <time>2017-12-03T17:15:28Z</time>
      </trkpt>
      <trkpt lat="62.633454634957" lon="17.983406850758">
        <ele>90.2</ele>
        <time>2017-12-03T17:15:29Z</time>
      </trkpt>
      <trkpt lat="62.633471817852" lon="17.983334095866">
        <ele>90.4</ele>
        <time>2017-12-03T17:15:30Z</time>
      </trkpt>
      <trkpt lat="62.633487659643" lon="17.983260167508">
        <ele>90.2</ele>
        <time>2017-12-03T17:15:31Z</time>
      </trkpt>
      <trkpt lat="62.633500316312" lon="17.983184730408">
        <ele>90.2</ele>
        <time>2017-12-03T17:15:32Z</time>
      </trkpt>
      <trkpt lat="62.633520013777" lon="17.98311247843">
        <ele>90.2</ele>
        <time>2017-12-03T17:15:33Z</time>
      </trkpt>
      <trkpt lat="62.633535436473" lon="17.983057828442">
        <ele>90.2</ele>
        <time>2017-12-03T17:15:34Z</time>
      </trkpt>
      <trkpt lat="62.633552284092" lon="17.982988677767">
        <ele>90.2</ele>
        <time>2017-12-03T17:15:35Z</time>
      </trkpt>
      <trkpt lat="62.633555720671" lon="17.982927322259">
        <ele>90.4</ele>
        <time>2017-12-03T17:15:36Z</time>
      </trkpt>
      <trkpt lat="62.633577262154" lon="17.982845514915">
        <ele>90.4</ele>
        <time>2017-12-03T17:15:37Z</time>
      </trkpt>
      <trkpt lat="62.633593439221" lon="17.982796145524">
        <ele>90.4</ele>
        <time>2017-12-03T17:15:38Z</time>
      </trkpt>
      <trkpt lat="62.633617662912" lon="17.982725905202">
        <ele>90.4</ele>
        <time>2017-12-03T17:15:39Z</time>
      </trkpt>
      <trkpt lat="62.6336220215" lon="17.982641750926">
        <ele>90.4</ele>
        <time>2017-12-03T17:15:40Z</time>
      </trkpt>
      <trkpt lat="62.633633588522" lon="17.982570001862">
        <ele>90.4</ele>
        <time>2017-12-03T17:15:41Z</time>
      </trkpt>
      <trkpt lat="62.63364129987" lon="17.982490289993">
        <ele>90.4</ele>
        <time>2017-12-03T17:15:42Z</time>
      </trkpt>
      <trkpt lat="62.633648089209" lon="17.982413511789">
        <ele>90.4</ele>
        <time>2017-12-03T17:15:43Z</time>
      </trkpt>
      <trkpt lat="62.633655716738" lon="17.982308318944">
        <ele>90.6</ele>
        <time>2017-12-03T17:15:44Z</time>
      </trkpt>
      <trkpt lat="62.633662422258" lon="17.982238916812">
        <ele>90.6</ele>
        <time>2017-12-03T17:15:45Z</time>
      </trkpt>
      <trkpt lat="62.633667367579" lon="17.982179908236">
        <ele>90.6</ele>
        <time>2017-12-03T17:15:46Z</time>
      </trkpt>
      <trkpt lat="62.633677593497" lon="17.982086617689">
        <ele>90.6</ele>
        <time>2017-12-03T17:15:47Z</time>
      </trkpt>
      <trkpt lat="62.633682622637" lon="17.98200690582">
        <ele>90.6</ele>
        <time>2017-12-03T17:15:48Z</time>
      </trkpt>
      <trkpt lat="62.633685388664" lon="17.9819247632">
        <ele>90.6</ele>
        <time>2017-12-03T17:15:49Z</time>
      </trkpt>
      <trkpt lat="62.633686226854" lon="17.981846392435">
        <ele>90.6</ele>
        <time>2017-12-03T17:15:50Z</time>
      </trkpt>
      <trkpt lat="62.633690250166" lon="17.981769278955">
        <ele>90.6</ele>
        <time>2017-12-03T17:15:51Z</time>
      </trkpt>
      <trkpt lat="62.633683963741" lon="17.981700044461">
        <ele>90.6</ele>
        <time>2017-12-03T17:15:52Z</time>
      </trkpt>
      <trkpt lat="62.633684801931" lon="17.981608262656">
        <ele>90.6</ele>
        <time>2017-12-03T17:15:53Z</time>
      </trkpt>
      <trkpt lat="62.63368656213" lon="17.981542632379">
        <ele>90.6</ele>
        <time>2017-12-03T17:15:54Z</time>
      </trkpt>
      <trkpt lat="62.633697793876" lon="17.981473984618">
        <ele>90.6</ele>
        <time>2017-12-03T17:15:55Z</time>
      </trkpt>
      <trkpt lat="62.63371170783" lon="17.981439702647">
        <ele>90.6</ele>
        <time>2017-12-03T17:15:56Z</time>
      </trkpt>
      <trkpt lat="62.63372344249" lon="17.981371054886">
        <ele>90.8</ele>
        <time>2017-12-03T17:15:57Z</time>
      </trkpt>
      <trkpt lat="62.633732159666" lon="17.981293354673">
        <ele>90.8</ele>
        <time>2017-12-03T17:15:58Z</time>
      </trkpt>
      <trkpt lat="62.633735763883" lon="17.981218839582">
        <ele>90.8</ele>
        <time>2017-12-03T17:15:59Z</time>
      </trkpt>
      <trkpt lat="62.633757221547" lon="17.98115698116">
        <ele>91</ele>
        <time>2017-12-03T17:16:00Z</time>
      </trkpt>
      <trkpt lat="62.633768118017" lon="17.981109036692">
        <ele>91</ele>
        <time>2017-12-03T17:16:01Z</time>
      </trkpt>
      <trkpt lat="62.633789491862" lon="17.981063355337">
        <ele>91</ele>
        <time>2017-12-03T17:16:02Z</time>
      </trkpt>
      <trkpt lat="62.633801058884" lon="17.981038628732">
        <ele>91</ele>
        <time>2017-12-03T17:16:03Z</time>
      </trkpt>
      <trkpt lat="62.633822013634" lon="17.980990097531">
        <ele>91.2</ele>
        <time>2017-12-03T17:16:04Z</time>
      </trkpt>
      <trkpt lat="62.633846404963" lon="17.980946260194">
        <ele>91</ele>
        <time>2017-12-03T17:16:05Z</time>
      </trkpt>
      <trkpt lat="62.633856295605" lon="17.980909379834">
        <ele>91.2</ele>
        <time>2017-12-03T17:16:06Z</time>
      </trkpt>
      <trkpt lat="62.633869371369" lon="17.98085607095">
        <ele>91.2</ele>
        <time>2017-12-03T17:16:07Z</time>
      </trkpt>
      <trkpt lat="62.633881441305" lon="17.980817346572">
        <ele>91.2</ele>
        <time>2017-12-03T17:16:08Z</time>
      </trkpt>
      <trkpt lat="62.633900552037" lon="17.980753895589">
        <ele>91.2</ele>
        <time>2017-12-03T17:16:09Z</time>
      </trkpt>
      <trkpt lat="62.633915555638" lon="17.980704945293">
        <ele>91.4</ele>
        <time>2017-12-03T17:16:10Z</time>
      </trkpt>
      <trkpt lat="62.633936091293" lon="17.980645014708">
        <ele>91.4</ele>
        <time>2017-12-03T17:16:11Z</time>
      </trkpt>
      <trkpt lat="62.63395394474" lon="17.980602183199">
        <ele>91.4</ele>
        <time>2017-12-03T17:16:12Z</time>
      </trkpt>
      <trkpt lat="62.633973139291" lon="17.980543677537">
        <ele>91.6</ele>
        <time>2017-12-03T17:16:13Z</time>
      </trkpt>
      <trkpt lat="62.633986382693" lon="17.98048223821">
        <ele>91.6</ele>
        <time>2017-12-03T17:16:14Z</time>
      </trkpt>
      <trkpt lat="62.634005241968" lon="17.980431276258">
        <ele>91.6</ele>
        <time>2017-12-03T17:16:15Z</time>
      </trkpt>
      <trkpt lat="62.634027202546" lon="17.980381906867">
        <ele>91.6</ele>
        <time>2017-12-03T17:16:16Z</time>
      </trkpt>
      <trkpt lat="62.63405033659" lon="17.980329855268">
        <ele>91.8</ele>
        <time>2017-12-03T17:16:17Z</time>
      </trkpt>
      <trkpt lat="62.634067268028" lon="17.980273780357">
        <ele>91.8</ele>
        <time>2017-12-03T17:16:18Z</time>
      </trkpt>
      <trkpt lat="62.634090150615" lon="17.980232038495">
        <ele>92</ele>
        <time>2017-12-03T17:16:19Z</time>
      </trkpt>
      <trkpt lat="62.634114793401" lon="17.980155847024">
        <ele>92</ele>
        <time>2017-12-03T17:16:20Z</time>
      </trkpt>
      <trkpt lat="62.634136418703" lon="17.980119134302">
        <ele>92.2</ele>
        <time>2017-12-03T17:16:21Z</time>
      </trkpt>
      <trkpt lat="62.63415259577" lon="17.980061550649">
        <ele>92.2</ele>
        <time>2017-12-03T17:16:22Z</time>
      </trkpt>
      <trkpt lat="62.634177573832" lon="17.980015198742">
        <ele>92.2</ele>
        <time>2017-12-03T17:16:23Z</time>
      </trkpt>
      <trkpt lat="62.634204060636" lon="17.979964991161">
        <ele>92</ele>
        <time>2017-12-03T17:16:24Z</time>
      </trkpt>
      <trkpt lat="62.63421965097" lon="17.979914029209">
        <ele>92.2</ele>
        <time>2017-12-03T17:16:25Z</time>
      </trkpt>
      <trkpt lat="62.63424312029" lon="17.979847896018">
        <ele>92</ele>
        <time>2017-12-03T17:16:26Z</time>
      </trkpt>
      <trkpt lat="62.634254687312" lon="17.979786875786">
        <ele>92</ele>
        <time>2017-12-03T17:16:27Z</time>
      </trkpt>
      <trkpt lat="62.634275725881" lon="17.979707163917">
        <ele>92</ele>
        <time>2017-12-03T17:16:28Z</time>
      </trkpt>
      <trkpt lat="62.634280755021" lon="17.979640192536">
        <ele>91.8</ele>
        <time>2017-12-03T17:16:29Z</time>
      </trkpt>
      <trkpt lat="62.634297686459" lon="17.979565090712">
        <ele>91.8</ele>
        <time>2017-12-03T17:16:30Z</time>
      </trkpt>
      <trkpt lat="62.634310007852" lon="17.979495604761">
        <ele>91.8</ele>
        <time>2017-12-03T17:16:31Z</time>
      </trkpt>
      <trkpt lat="62.634329370041" lon="17.979429303932">
        <ele>91.8</ele>
        <time>2017-12-03T17:16:32Z</time>
      </trkpt>
      <trkpt lat="62.634337500484" lon="17.97936157818">
        <ele>91.8</ele>
        <time>2017-12-03T17:16:33Z</time>
      </trkpt>
      <trkpt lat="62.634350995343" lon="17.979295444989">
        <ele>91.8</ele>
        <time>2017-12-03T17:16:34Z</time>
      </trkpt>
      <trkpt lat="62.634359125786" lon="17.979223863563">
        <ele>91.8</ele>
        <time>2017-12-03T17:16:35Z</time>
      </trkpt>
      <trkpt lat="62.634373542654" lon="17.97918472009">
        <ele>91.8</ele>
        <time>2017-12-03T17:16:36Z</time>
      </trkpt>
      <trkpt lat="62.634391228463" lon="17.979111294646">
        <ele>92</ele>
        <time>2017-12-03T17:16:37Z</time>
      </trkpt>
      <trkpt lat="62.634398772173" lon="17.979051531699">
        <ele>92</ele>
        <time>2017-12-03T17:16:38Z</time>
      </trkpt>
      <trkpt lat="62.634416122706" lon="17.97899780372">
        <ele>92</ele>
        <time>2017-12-03T17:16:39Z</time>
      </trkpt>
      <trkpt lat="62.634431042488" lon="17.978941309714">
        <ele>91.8</ele>
        <time>2017-12-03T17:16:40Z</time>
      </trkpt>
      <trkpt lat="62.634446716641" lon="17.978887497916">
        <ele>91.8</ele>
        <time>2017-12-03T17:16:41Z</time>
      </trkpt>
      <trkpt lat="62.634461384966" lon="17.978826896779">
        <ele>91.8</ele>
        <time>2017-12-03T17:16:42Z</time>
      </trkpt>
      <trkpt lat="62.634483848458" lon="17.97878322708">
        <ele>91.8</ele>
        <time>2017-12-03T17:16:43Z</time>
      </trkpt>
      <trkpt lat="62.634511005814" lon="17.978766798556">
        <ele>91.6</ele>
        <time>2017-12-03T17:16:44Z</time>
      </trkpt>
      <trkpt lat="62.634530703279" lon="17.978759171027">
        <ele>91.6</ele>
        <time>2017-12-03T17:16:45Z</time>
      </trkpt>
      <trkpt lat="62.634564314698" lon="17.978760176855">
        <ele>91.4</ele>
        <time>2017-12-03T17:16:47Z</time>
      </trkpt>
      <trkpt lat="62.634572612779" lon="17.978759003389">
        <ele>91.4</ele>
        <time>2017-12-03T17:16:48Z</time>
      </trkpt>
      <trkpt lat="62.634571355494" lon="17.978761182683">
        <ele>91.6</ele>
        <time>2017-12-03T17:16:49Z</time>
      </trkpt>
      <trkpt lat="62.634572361322" lon="17.978762356149">
        <ele>91.6</ele>
        <time>2017-12-03T17:16:50Z</time>
      </trkpt>
      <trkpt lat="62.634578731566" lon="17.978762020873">
        <ele>91.6</ele>
        <time>2017-12-03T17:16:51Z</time>
      </trkpt>
      <trkpt lat="62.63459935104" lon="17.978757494647">
        <ele>91.8</ele>
        <time>2017-12-03T17:16:52Z</time>
      </trkpt>
      <trkpt lat="62.634615695745" lon="17.978772665886">
        <ele>91.8</ele>
        <time>2017-12-03T17:16:53Z</time>
      </trkpt>
      <trkpt lat="62.634648049879" lon="17.978783729994">
        <ele>91.8</ele>
        <time>2017-12-03T17:16:54Z</time>
      </trkpt>
      <trkpt lat="62.634673195579" lon="17.978788340039">
        <ele>91.8</ele>
        <time>2017-12-03T17:16:55Z</time>
      </trkpt>
      <trkpt lat="62.634698760374" lon="17.97880585821">
        <ele>91.6</ele>
        <time>2017-12-03T17:16:56Z</time>
      </trkpt>
      <trkpt lat="62.634724660445" lon="17.978821364725">
        <ele>91.6</ele>
        <time>2017-12-03T17:16:57Z</time>
      </trkpt>
      <trkpt lat="62.634762211357" lon="17.978842487113">
        <ele>91.4</ele>
        <time>2017-12-03T17:16:58Z</time>
      </trkpt>
      <trkpt lat="62.634790625998" lon="17.978843995855">
        <ele>91.4</ele>
        <time>2017-12-03T17:16:59Z</time>
      </trkpt>
      <trkpt lat="62.634829769471" lon="17.978867800451">
        <ele>91.2</ele>
        <time>2017-12-03T17:17:00Z</time>
      </trkpt>
      <trkpt lat="62.634854412257" lon="17.978879367473">
        <ele>91</ele>
        <time>2017-12-03T17:17:01Z</time>
      </trkpt>
      <trkpt lat="62.634895148291" lon="17.978900238404">
        <ele>91</ele>
        <time>2017-12-03T17:17:02Z</time>
      </trkpt>
      <trkpt lat="62.634917611783" lon="17.97890811739">
        <ele>90.8</ele>
        <time>2017-12-03T17:17:03Z</time>
      </trkpt>
      <trkpt lat="62.634947283709" lon="17.978929155959">
        <ele>90.6</ele>
        <time>2017-12-03T17:17:04Z</time>
      </trkpt>
      <trkpt lat="62.634971423581" lon="17.978936029117">
        <ele>90.6</ele>
        <time>2017-12-03T17:17:05Z</time>
      </trkpt>
      <trkpt lat="62.634998497118" lon="17.978948769605">
        <ele>90.6</ele>
        <time>2017-12-03T17:17:06Z</time>
      </trkpt>
      <trkpt lat="62.635025654474" lon="17.978958241152">
        <ele>90.6</ele>
        <time>2017-12-03T17:17:07Z</time>
      </trkpt>
      <trkpt lat="62.635054069115" lon="17.978969221441">
        <ele>90.6</ele>
        <time>2017-12-03T17:17:08Z</time>
      </trkpt>
      <trkpt lat="62.635081561747" lon="17.978979866454">
        <ele>90.4</ele>
        <time>2017-12-03T17:17:09Z</time>
      </trkpt>
      <trkpt lat="62.635116598089" lon="17.978991014381">
        <ele>90.4</ele>
        <time>2017-12-03T17:17:10Z</time>
      </trkpt>
      <trkpt lat="62.635148030214" lon="17.978997300806">
        <ele>90.4</ele>
        <time>2017-12-03T17:17:11Z</time>
      </trkpt>
      <trkpt lat="62.635184575298" lon="17.979012639683">
        <ele>90.2</ele>
        <time>2017-12-03T17:17:12Z</time>
      </trkpt>
      <trkpt lat="62.635219444002" lon="17.979032420967">
        <ele>90.2</ele>
        <time>2017-12-03T17:17:13Z</time>
      </trkpt>
      <trkpt lat="62.635251379041" lon="17.979048178939">
        <ele>90</ele>
        <time>2017-12-03T17:17:14Z</time>
      </trkpt>
      <trkpt lat="62.635283984632" lon="17.979048262758">
        <ele>89.8</ele>
        <time>2017-12-03T17:17:15Z</time>
      </trkpt>
      <trkpt lat="62.635318015146" lon="17.979045748188">
        <ele>89.8</ele>
        <time>2017-12-03T17:17:16Z</time>
      </trkpt>
      <trkpt lat="62.635356068972" lon="17.979049352405">
        <ele>89.6</ele>
        <time>2017-12-03T17:17:17Z</time>
      </trkpt>
      <trkpt lat="62.635395380083" lon="17.979063350178">
        <ele>89.4</ele>
        <time>2017-12-03T17:17:18Z</time>
      </trkpt>
      <trkpt lat="62.635430164968" lon="17.979071480621">
        <ele>89.2</ele>
        <time>2017-12-03T17:17:19Z</time>
      </trkpt>
      <trkpt lat="62.635469559898" lon="17.979067122033">
        <ele>89.2</ele>
        <time>2017-12-03T17:17:20Z</time>
      </trkpt>
      <trkpt lat="62.635506524077" lon="17.979063433997">
        <ele>89.2</ele>
        <time>2017-12-03T17:17:21Z</time>
      </trkpt>
      <trkpt lat="62.635548014482" lon="17.979067038214">
        <ele>89</ele>
        <time>2017-12-03T17:17:22Z</time>
      </trkpt>
      <trkpt lat="62.635588582878" lon="17.979061338522">
        <ele>88.8</ele>
        <time>2017-12-03T17:17:23Z</time>
      </trkpt>
      <trkpt lat="62.635631917301" lon="17.97905480064">
        <ele>88.4</ele>
        <time>2017-12-03T17:17:24Z</time>
      </trkpt>
      <trkpt lat="62.635673156249" lon="17.97905647702">
        <ele>88.2</ele>
        <time>2017-12-03T17:17:25Z</time>
      </trkpt>
      <trkpt lat="62.635711964446" lon="17.979053627174">
        <ele>88.2</ele>
        <time>2017-12-03T17:17:26Z</time>
      </trkpt>
      <trkpt lat="62.635750269729" lon="17.979054297726">
        <ele>88</ele>
        <time>2017-12-03T17:17:27Z</time>
      </trkpt>
      <trkpt lat="62.63578706627" lon="17.979060081237">
        <ele>87.8</ele>
        <time>2017-12-03T17:17:28Z</time>
      </trkpt>
      <trkpt lat="62.635820510051" lon="17.97906737349">
        <ele>87.6</ele>
        <time>2017-12-03T17:17:29Z</time>
      </trkpt>
      <trkpt lat="62.635851439262" lon="17.979070474793">
        <ele>87.6</ele>
        <time>2017-12-03T17:17:30Z</time>
      </trkpt>
      <trkpt lat="62.635878345161" lon="17.979077515589">
        <ele>87.4</ele>
        <time>2017-12-03T17:17:31Z</time>
      </trkpt>
      <trkpt lat="62.635904831965" lon="17.979088998792">
        <ele>87.4</ele>
        <time>2017-12-03T17:17:32Z</time>
      </trkpt>
      <trkpt lat="62.635921847222" lon="17.979086148946">
        <ele>87.2</ele>
        <time>2017-12-03T17:17:33Z</time>
      </trkpt>
      <trkpt lat="62.635945065085" lon="17.979091261905">
        <ele>87.2</ele>
        <time>2017-12-03T17:17:34Z</time>
      </trkpt>
      <trkpt lat="62.635963589084" lon="17.979100230538">
        <ele>87.2</ele>
        <time>2017-12-03T17:17:35Z</time>
      </trkpt>
      <trkpt lat="62.635977838314" lon="17.979099643805">
        <ele>87.2</ele>
        <time>2017-12-03T17:17:36Z</time>
      </trkpt>
      <trkpt lat="62.63599745196" lon="17.979111546103">
        <ele>87.4</ele>
        <time>2017-12-03T17:17:37Z</time>
      </trkpt>
      <trkpt lat="62.636008516068" lon="17.979128477541">
        <ele>87.4</ele>
        <time>2017-12-03T17:17:38Z</time>
      </trkpt>
      <trkpt lat="62.636018658167" lon="17.979163932978">
        <ele>87.4</ele>
        <time>2017-12-03T17:17:39Z</time>
      </trkpt>
      <trkpt lat="62.636026201877" lon="17.979195784198">
        <ele>87.6</ele>
        <time>2017-12-03T17:17:40Z</time>
      </trkpt>
      <trkpt lat="62.636032320664" lon="17.979225204667">
        <ele>87.8</ele>
        <time>2017-12-03T17:17:41Z</time>
      </trkpt>
      <trkpt lat="62.636035589605" lon="17.979254206041">
        <ele>87.8</ele>
        <time>2017-12-03T17:17:42Z</time>
      </trkpt>
      <trkpt lat="62.636034499958" lon="17.97927524461">
        <ele>87.8</ele>
        <time>2017-12-03T17:17:43Z</time>
      </trkpt>
      <trkpt lat="62.636032153026" lon="17.979290583487">
        <ele>87.8</ele>
        <time>2017-12-03T17:17:44Z</time>
      </trkpt>
      <trkpt lat="62.636031566293" lon="17.979279854655">
        <ele>87.8</ele>
        <time>2017-12-03T17:17:45Z</time>
      </trkpt>
      <trkpt lat="62.636008935163" lon="17.979722921889">
        <ele>87.6</ele>
        <time>2017-12-03T17:18:00Z</time>
      </trkpt>
      <trkpt lat="62.636006252955" lon="17.979848231294">
        <ele>87.2</ele>
        <time>2017-12-03T17:18:01Z</time>
      </trkpt>
      <trkpt lat="62.636011868828" lon="17.980044367754">
        <ele>86.2</ele>
        <time>2017-12-03T17:18:02Z</time>
      </trkpt>
      <trkpt lat="62.636031314836" lon="17.980182250009">
        <ele>85.2</ele>
        <time>2017-12-03T17:18:03Z</time>
      </trkpt>
      <trkpt lat="62.636050341749" lon="17.980329184716">
        <ele>84</ele>
        <time>2017-12-03T17:18:04Z</time>
      </trkpt>
      <trkpt lat="62.636075906544" lon="17.980493805232">
        <ele>82.8</ele>
        <time>2017-12-03T17:18:05Z</time>
      </trkpt>
      <trkpt lat="62.636093592353" lon="17.980628753822">
        <ele>81.6</ele>
        <time>2017-12-03T17:18:06Z</time>
      </trkpt>
      <trkpt lat="62.636113792732" lon="17.98078147204">
        <ele>81.2</ele>
        <time>2017-12-03T17:18:07Z</time>
      </trkpt>
      <trkpt lat="62.636139189889" lon="17.980920443942">
        <ele>80.8</ele>
        <time>2017-12-03T17:18:08Z</time>
      </trkpt>
      <trkpt lat="62.636164922322" lon="17.981084561544">
        <ele>80.6</ele>
        <time>2017-12-03T17:18:09Z</time>
      </trkpt>
      <trkpt lat="62.63617263367" lon="17.981213810442">
        <ele>80.4</ele>
        <time>2017-12-03T17:18:10Z</time>
      </trkpt>
      <trkpt lat="62.636190738574" lon="17.981377928044">
        <ele>80.2</ele>
        <time>2017-12-03T17:18:11Z</time>
      </trkpt>
      <trkpt lat="62.636197360275" lon="17.981522096724">
        <ele>80</ele>
        <time>2017-12-03T17:18:12Z</time>
      </trkpt>
      <trkpt lat="62.636209597849" lon="17.981661906816">
        <ele>79.8</ele>
        <time>2017-12-03T17:18:13Z</time>
      </trkpt>
      <trkpt lat="62.636219153215" lon="17.981793921741">
        <ele>79.4</ele>
        <time>2017-12-03T17:18:14Z</time>
      </trkpt>
      <trkpt lat="62.636231474608" lon="17.981909089047">
        <ele>79.2</ele>
        <time>2017-12-03T17:18:15Z</time>
      </trkpt>
      <trkpt lat="62.636245388562" lon="17.982026938561">
        <ele>79.2</ele>
        <time>2017-12-03T17:18:16Z</time>
      </trkpt>
      <trkpt lat="62.636254943928" lon="17.982152080328">
        <ele>79</ele>
        <time>2017-12-03T17:18:17Z</time>
      </trkpt>
      <trkpt lat="62.636258045231" lon="17.982265319797">
        <ele>79</ele>
        <time>2017-12-03T17:18:18Z</time>
      </trkpt>
      <trkpt lat="62.63625645267" lon="17.982371602289">
        <ele>79</ele>
        <time>2017-12-03T17:18:19Z</time>
      </trkpt>
      <trkpt lat="62.636259134878" lon="17.982475705487">
        <ele>79</ele>
        <time>2017-12-03T17:18:20Z</time>
      </trkpt>
      <trkpt lat="62.636256620308" lon="17.982551645501">
        <ele>79</ele>
        <time>2017-12-03T17:18:21Z</time>
      </trkpt>
      <trkpt lat="62.636265002208" lon="17.982631022094">
        <ele>79</ele>
        <time>2017-12-03T17:18:22Z</time>
      </trkpt>
      <trkpt lat="62.63625226172" lon="17.982734622378">
        <ele>79.4</ele>
        <time>2017-12-03T17:18:23Z</time>
      </trkpt>
      <trkpt lat="62.636255949756" lon="17.982801426121">
        <ele>79.8</ele>
        <time>2017-12-03T17:18:24Z</time>
      </trkpt>
      <trkpt lat="62.636251255892" lon="17.98288784351">
        <ele>80.2</ele>
        <time>2017-12-03T17:18:25Z</time>
      </trkpt>
      <trkpt lat="62.636242538716" lon="17.982950959217">
        <ele>80.6</ele>
        <time>2017-12-03T17:18:26Z</time>
      </trkpt>
      <trkpt lat="62.636255279204" lon="17.983007537042">
        <ele>81</ele>
        <time>2017-12-03T17:18:27Z</time>
      </trkpt>
      <trkpt lat="62.636261397991" lon="17.983084063789">
        <ele>81.2</ele>
        <time>2017-12-03T17:18:28Z</time>
      </trkpt>
      <trkpt lat="62.636271204814" lon="17.983156399586">
        <ele>81</ele>
        <time>2017-12-03T17:18:29Z</time>
      </trkpt>
      <trkpt lat="62.63627405466" lon="17.983243319889">
        <ele>81</ele>
        <time>2017-12-03T17:18:30Z</time>
      </trkpt>
      <trkpt lat="62.636278497067" lon="17.983319343722">
        <ele>81.2</ele>
        <time>2017-12-03T17:18:31Z</time>
      </trkpt>
      <trkpt lat="62.636273887022" lon="17.983391344243">
        <ele>81.2</ele>
        <time>2017-12-03T17:18:32Z</time>
      </trkpt>
      <trkpt lat="62.636269193158" lon="17.983464769687">
        <ele>81.4</ele>
        <time>2017-12-03T17:18:33Z</time>
      </trkpt>
      <trkpt lat="62.63624387982" lon="17.983517659476">
        <ele>81.4</ele>
        <time>2017-12-03T17:18:34Z</time>
      </trkpt>
      <trkpt lat="62.636251674987" lon="17.983565268668">
        <ele>81.2</ele>
        <time>2017-12-03T17:18:35Z</time>
      </trkpt>
      <trkpt lat="62.636240275603" lon="17.983638358836">
        <ele>81.2</ele>
        <time>2017-12-03T17:18:36Z</time>
      </trkpt>
      <trkpt lat="62.636233067169" lon="17.983687392951">
        <ele>81.2</ele>
        <time>2017-12-03T17:18:37Z</time>
      </trkpt>
      <trkpt lat="62.636240946155" lon="17.983756627445">
        <ele>81.4</ele>
        <time>2017-12-03T17:18:38Z</time>
      </trkpt>
      <trkpt lat="62.636226529287" lon="17.983818653505">
        <ele>81.4</ele>
        <time>2017-12-03T17:18:39Z</time>
      </trkpt>
      <trkpt lat="62.636234995006" lon="17.983880428108">
        <ele>81.4</ele>
        <time>2017-12-03T17:18:40Z</time>
      </trkpt>
      <trkpt lat="62.636218566482" lon="17.983962067814">
        <ele>81.6</ele>
        <time>2017-12-03T17:18:41Z</time>
      </trkpt>
      <trkpt lat="62.636211525686" lon="17.984009844644">
        <ele>81.8</ele>
        <time>2017-12-03T17:18:42Z</time>
      </trkpt>
      <trkpt lat="62.636206831822" lon="17.984061477148">
        <ele>81.8</ele>
        <time>2017-12-03T17:18:43Z</time>
      </trkpt>
      <trkpt lat="62.636198533741" lon="17.984131549832">
        <ele>82.2</ele>
        <time>2017-12-03T17:18:44Z</time>
      </trkpt>
      <trkpt lat="62.636198785198" lon="17.984172453504">
        <ele>82.2</ele>
        <time>2017-12-03T17:18:45Z</time>
      </trkpt>
      <trkpt lat="62.636174142412" lon="17.984251243364">
        <ele>82.4</ele>
        <time>2017-12-03T17:18:46Z</time>
      </trkpt>
      <trkpt lat="62.636182272855" lon="17.984282340213">
        <ele>82.4</ele>
        <time>2017-12-03T17:18:47Z</time>
      </trkpt>
      <trkpt lat="62.636188140185" lon="17.984374708751">
        <ele>82.6</ele>
        <time>2017-12-03T17:18:48Z</time>
      </trkpt>
      <trkpt lat="62.636168945634" lon="17.984406308514">
        <ele>82.6</ele>
        <time>2017-12-03T17:18:49Z</time>
      </trkpt>
      <trkpt lat="62.636173136584" lon="17.984462886339">
        <ele>82.8</ele>
        <time>2017-12-03T17:18:50Z</time>
      </trkpt>
      <trkpt lat="62.636170538195" lon="17.984525918227">
        <ele>83</ele>
        <time>2017-12-03T17:18:51Z</time>
      </trkpt>
      <trkpt lat="62.636174477688" lon="17.984591464685">
        <ele>83</ele>
        <time>2017-12-03T17:18:52Z</time>
      </trkpt>
      <trkpt lat="62.636157043336" lon="17.984673607305">
        <ele>83.2</ele>
        <time>2017-12-03T17:18:53Z</time>
      </trkpt>
      <trkpt lat="62.636147655608" lon="17.984710320027">
        <ele>83.2</ele>
        <time>2017-12-03T17:18:54Z</time>
      </trkpt>
      <trkpt lat="62.636147571789" lon="17.984763880368">
        <ele>83.2</ele>
        <time>2017-12-03T17:18:55Z</time>
      </trkpt>
      <trkpt lat="62.636143632296" lon="17.984831270844">
        <ele>83.2</ele>
        <time>2017-12-03T17:18:56Z</time>
      </trkpt>
      <trkpt lat="62.636152098015" lon="17.984875443457">
        <ele>83.2</ele>
        <time>2017-12-03T17:18:57Z</time>
      </trkpt>
      <trkpt lat="62.63614581159" lon="17.984955071507">
        <ele>83.4</ele>
        <time>2017-12-03T17:18:58Z</time>
      </trkpt>
      <trkpt lat="62.636144470486" lon="17.984999160301">
        <ele>83.6</ele>
        <time>2017-12-03T17:18:59Z</time>
      </trkpt>
      <trkpt lat="62.636132987283" lon="17.985061773094">
        <ele>83.6</ele>
        <time>2017-12-03T17:19:00Z</time>
      </trkpt>
      <trkpt lat="62.636137681147" lon="17.985116925996">
        <ele>83.8</ele>
        <time>2017-12-03T17:19:01Z</time>
      </trkpt>
      <trkpt lat="62.636130640351" lon="17.985170570156">
        <ele>83.8</ele>
        <time>2017-12-03T17:19:02Z</time>
      </trkpt>
      <trkpt lat="62.636116223483" lon="17.985219352814">
        <ele>83.8</ele>
        <time>2017-12-03T17:19:03Z</time>
      </trkpt>
      <trkpt lat="62.636121923175" lon="17.985274505716">
        <ele>84</ele>
        <time>2017-12-03T17:19:04Z</time>
      </trkpt>
      <trkpt lat="62.63611898951" lon="17.985347595884">
        <ele>84</ele>
        <time>2017-12-03T17:19:05Z</time>
      </trkpt>
      <trkpt lat="62.636112870723" lon="17.985396462361">
        <ele>84.2</ele>
        <time>2017-12-03T17:19:06Z</time>
      </trkpt>
      <trkpt lat="62.636103147719" lon="17.985470893633">
        <ele>84.2</ele>
        <time>2017-12-03T17:19:07Z</time>
      </trkpt>
      <trkpt lat="62.636107087212" lon="17.985522107042">
        <ele>84.2</ele>
        <time>2017-12-03T17:19:08Z</time>
      </trkpt>
      <trkpt lat="62.636093089439" lon="17.985567956035">
        <ele>84.4</ele>
        <time>2017-12-03T17:19:09Z</time>
      </trkpt>
      <trkpt lat="62.636080265132" lon="17.985642471126">
        <ele>84.4</ele>
        <time>2017-12-03T17:19:10Z</time>
      </trkpt>
      <trkpt lat="62.636067692282" lon="17.985665521351">
        <ele>84.6</ele>
        <time>2017-12-03T17:19:11Z</time>
      </trkpt>
      <trkpt lat="62.63604019965" lon="17.985726038669">
        <ele>84.6</ele>
        <time>2017-12-03T17:19:12Z</time>
      </trkpt>
      <trkpt lat="62.636022346203" lon="17.985764846866">
        <ele>84.8</ele>
        <time>2017-12-03T17:19:13Z</time>
      </trkpt>
      <trkpt lat="62.635992758096" lon="17.985788735281">
        <ele>84.8</ele>
        <time>2017-12-03T17:19:14Z</time>
      </trkpt>
      <trkpt lat="62.635978089771" lon="17.98583240498">
        <ele>85</ele>
        <time>2017-12-03T17:19:15Z</time>
      </trkpt>
      <trkpt lat="62.635951435329" lon="17.98584916878">
        <ele>85.2</ele>
        <time>2017-12-03T17:19:16Z</time>
      </trkpt>
      <trkpt lat="62.63593458771" lon="17.985883366932">
        <ele>85.4</ele>
        <time>2017-12-03T17:19:17Z</time>
      </trkpt>
      <trkpt lat="62.635913213865" lon="17.98589275466">
        <ele>85.4</ele>
        <time>2017-12-03T17:19:18Z</time>
      </trkpt>
      <trkpt lat="62.635894857504" lon="17.985924773518">
        <ele>85.6</ele>
        <time>2017-12-03T17:19:19Z</time>
      </trkpt>
      <trkpt lat="62.635867448691" lon="17.985928880649">
        <ele>85.6</ele>
        <time>2017-12-03T17:19:20Z</time>
      </trkpt>
      <trkpt lat="62.635858228601" lon="17.985950170675">
        <ele>85.6</ele>
        <time>2017-12-03T17:19:21Z</time>
      </trkpt>
      <trkpt lat="62.635827550847" lon="17.98595058977">
        <ele>85.8</ele>
        <time>2017-12-03T17:19:22Z</time>
      </trkpt>
      <trkpt lat="62.635806679916" lon="17.985991158166">
        <ele>85.8</ele>
        <time>2017-12-03T17:19:23Z</time>
      </trkpt>
      <trkpt lat="62.635784970795" lon="17.986013789296">
        <ele>85.8</ele>
        <time>2017-12-03T17:19:24Z</time>
      </trkpt>
      <trkpt lat="62.635763680769" lon="17.986054190054">
        <ele>86</ele>
        <time>2017-12-03T17:19:25Z</time>
      </trkpt>
      <trkpt lat="62.635748844806" lon="17.986081095953">
        <ele>86.2</ele>
        <time>2017-12-03T17:19:26Z</time>
      </trkpt>
      <trkpt lat="62.635724285839" lon="17.986113366268">
        <ele>86.2</ele>
        <time>2017-12-03T17:19:27Z</time>
      </trkpt>
      <trkpt lat="62.63571162917" lon="17.986151420094">
        <ele>86.2</ele>
        <time>2017-12-03T17:19:28Z</time>
      </trkpt>
      <trkpt lat="62.63569905632" lon="17.986187043169">
        <ele>86.4</ele>
        <time>2017-12-03T17:19:29Z</time>
      </trkpt>
      <trkpt lat="62.63567893976" lon="17.98620959048">
        <ele>86.4</ele>
        <time>2017-12-03T17:19:30Z</time>
      </trkpt>
      <trkpt lat="62.635676006095" lon="17.986234065628">
        <ele>86.4</ele>
        <time>2017-12-03T17:19:31Z</time>
      </trkpt>
      <trkpt lat="62.635657901191" lon="17.986279244069">
        <ele>86.6</ele>
        <time>2017-12-03T17:19:32Z</time>
      </trkpt>
      <trkpt lat="62.635650692757" lon="17.986302210475">
        <ele>86.8</ele>
        <time>2017-12-03T17:19:33Z</time>
      </trkpt>
      <trkpt lat="62.635633090767" lon="17.986349903486">
        <ele>87</ele>
        <time>2017-12-03T17:19:34Z</time>
      </trkpt>
      <trkpt lat="62.635617500433" lon="17.986403966741">
        <ele>87.2</ele>
        <time>2017-12-03T17:19:35Z</time>
      </trkpt>
      <trkpt lat="62.635610962551" lon="17.986449899553">
        <ele>87.4</ele>
        <time>2017-12-03T17:19:36Z</time>
      </trkpt>
      <trkpt lat="62.6355833861" lon="17.98649625146">
        <ele>87.4</ele>
        <time>2017-12-03T17:19:37Z</time>
      </trkpt>
      <trkpt lat="62.635560168237" lon="17.986532712725">
        <ele>87.4</ele>
        <time>2017-12-03T17:19:38Z</time>
      </trkpt>
      <trkpt lat="62.635558156581" lon="17.986581411564">
        <ele>87.6</ele>
        <time>2017-12-03T17:19:39Z</time>
      </trkpt>
      <trkpt lat="62.635543488256" lon="17.986640839235">
        <ele>87.6</ele>
        <time>2017-12-03T17:19:40Z</time>
      </trkpt>
      <trkpt lat="62.635526053904" lon="17.986675791758">
        <ele>87.6</ele>
        <time>2017-12-03T17:19:41Z</time>
      </trkpt>
      <trkpt lat="62.635517923461" lon="17.986709738453">
        <ele>87.6</ele>
        <time>2017-12-03T17:19:42Z</time>
      </trkpt>
      <trkpt lat="62.635499902376" lon="17.986752234686">
        <ele>87.8</ele>
        <time>2017-12-03T17:19:43Z</time>
      </trkpt>
      <trkpt lat="62.635488167716" lon="17.986798670412">
        <ele>88</ele>
        <time>2017-12-03T17:19:44Z</time>
      </trkpt>
      <trkpt lat="62.63547023045" lon="17.986839406446">
        <ele>88</ele>
        <time>2017-12-03T17:19:45Z</time>
      </trkpt>
      <trkpt lat="62.635456735591" lon="17.98689020076">
        <ele>88.2</ele>
        <time>2017-12-03T17:19:46Z</time>
      </trkpt>
      <trkpt lat="62.635446174397" lon="17.986932613174">
        <ele>88.2</ele>
        <time>2017-12-03T17:19:47Z</time>
      </trkpt>
      <trkpt lat="62.635425303466" lon="17.986982569298">
        <ele>88.4</ele>
        <time>2017-12-03T17:19:48Z</time>
      </trkpt>
      <trkpt lat="62.635414658453" lon="17.987024394979">
        <ele>88.4</ele>
        <time>2017-12-03T17:19:49Z</time>
      </trkpt>
      <trkpt lat="62.635391272952" lon="17.987060437149">
        <ele>88.4</ele>
        <time>2017-12-03T17:19:50Z</time>
      </trkpt>
      <trkpt lat="62.635381047034" lon="17.987094300025">
        <ele>88.6</ele>
        <time>2017-12-03T17:19:51Z</time>
      </trkpt>
      <trkpt lat="62.635357493895" lon="17.987134533145">
        <ele>88.6</ele>
        <time>2017-12-03T17:19:52Z</time>
      </trkpt>
      <trkpt lat="62.635355314601" lon="17.987179041034">
        <ele>88.8</ele>
        <time>2017-12-03T17:19:53Z</time>
      </trkpt>
      <trkpt lat="62.635326816141" lon="17.987203600001">
        <ele>88.8</ele>
        <time>2017-12-03T17:19:54Z</time>
      </trkpt>
      <trkpt lat="62.635320613535" lon="17.987251879745">
        <ele>89</ele>
        <time>2017-12-03T17:19:55Z</time>
      </trkpt>
      <trkpt lat="62.635294294369" lon="17.987280042929">
        <ele>89.2</ele>
        <time>2017-12-03T17:19:56Z</time>
      </trkpt>
      <trkpt lat="62.635276357103" lon="17.987331759252">
        <ele>89.2</ele>
        <time>2017-12-03T17:19:57Z</time>
      </trkpt>
      <trkpt lat="62.635261772597" lon="17.987370315992">
        <ele>89.4</ele>
        <time>2017-12-03T17:19:58Z</time>
      </trkpt>
      <trkpt lat="62.635239979657" lon="17.987396970434">
        <ele>89.4</ele>
        <time>2017-12-03T17:19:59Z</time>
      </trkpt>
      <trkpt lat="62.635229502282" lon="17.987433766975">
        <ele>89.6</ele>
        <time>2017-12-03T17:20:00Z</time>
      </trkpt>
      <trkpt lat="62.635203602211" lon="17.98747609557">
        <ele>90</ele>
        <time>2017-12-03T17:20:01Z</time>
      </trkpt>
      <trkpt lat="62.635182060728" lon="17.987515574319">
        <ele>90</ele>
        <time>2017-12-03T17:20:02Z</time>
      </trkpt>
      <trkpt lat="62.635164961652" lon="17.987543821322">
        <ele>90.4</ele>
        <time>2017-12-03T17:20:03Z</time>
      </trkpt>
      <trkpt lat="62.635147275843" lon="17.987580953139">
        <ele>90.4</ele>
        <time>2017-12-03T17:20:04Z</time>
      </trkpt>
      <trkpt lat="62.635123890342" lon="17.987618084956">
        <ele>90.6</ele>
        <time>2017-12-03T17:20:05Z</time>
      </trkpt>
      <trkpt lat="62.635111317492" lon="17.987660832646">
        <ele>90.6</ele>
        <time>2017-12-03T17:20:06Z</time>
      </trkpt>
      <trkpt lat="62.635087931991" lon="17.987700143757">
        <ele>90.6</ele>
        <time>2017-12-03T17:20:07Z</time>
      </trkpt>
      <trkpt lat="62.635067396336" lon="17.987739035773">
        <ele>90.6</ele>
        <time>2017-12-03T17:20:08Z</time>
      </trkpt>
      <trkpt lat="62.635043005007" lon="17.987775832314">
        <ele>90.6</ele>
        <time>2017-12-03T17:20:09Z</time>
      </trkpt>
      <trkpt lat="62.635029510148" lon="17.987818999099">
        <ele>90.6</ele>
        <time>2017-12-03T17:20:10Z</time>
      </trkpt>
      <trkpt lat="62.635009812683" lon="17.987842468419">
        <ele>90.8</ele>
        <time>2017-12-03T17:20:11Z</time>
      </trkpt>
      <trkpt lat="62.63498491844" lon="17.987881360435">
        <ele>90.8</ele>
        <time>2017-12-03T17:20:12Z</time>
      </trkpt>
      <trkpt lat="62.634969411925" lon="17.987910529447">
        <ele>91</ele>
        <time>2017-12-03T17:20:13Z</time>
      </trkpt>
      <trkpt lat="62.634939069447" lon="17.98791865989">
        <ele>91</ele>
        <time>2017-12-03T17:20:14Z</time>
      </trkpt>
      <trkpt lat="62.634922305647" lon="17.987950762567">
        <ele>91.2</ele>
        <time>2017-12-03T17:20:15Z</time>
      </trkpt>
      <trkpt lat="62.634893304273" lon="17.987971633498">
        <ele>91.4</ele>
        <time>2017-12-03T17:20:16Z</time>
      </trkpt>
      <trkpt lat="62.634869415858" lon="17.987985631271">
        <ele>91.4</ele>
        <time>2017-12-03T17:20:17Z</time>
      </trkpt>
      <trkpt lat="62.63485248442" lon="17.988020332337">
        <ele>91.6</ele>
        <time>2017-12-03T17:20:18Z</time>
      </trkpt>
      <trkpt lat="62.634827422539" lon="17.988028881875">
        <ele>91.8</ele>
        <time>2017-12-03T17:20:19Z</time>
      </trkpt>
      <trkpt lat="62.634807976531" lon="17.988055620136">
        <ele>92</ele>
        <time>2017-12-03T17:20:20Z</time>
      </trkpt>
      <trkpt lat="62.634782327917" lon="17.988049585168">
        <ele>92</ele>
        <time>2017-12-03T17:20:21Z</time>
      </trkpt>
      <trkpt lat="62.634756679303" lon="17.988064337312">
        <ele>92.2</ele>
        <time>2017-12-03T17:20:22Z</time>
      </trkpt>
      <trkpt lat="62.634728851395" lon="17.988050674815">
        <ele>92.6</ele>
        <time>2017-12-03T17:20:23Z</time>
      </trkpt>
      <trkpt lat="62.634711333224" lon="17.98808965065">
        <ele>92.6</ele>
        <time>2017-12-03T17:20:24Z</time>
      </trkpt>
      <trkpt lat="62.634688031542" lon="17.988076910162">
        <ele>92.8</ele>
        <time>2017-12-03T17:20:25Z</time>
      </trkpt>
      <trkpt lat="62.63466724443" lon="17.988070204642">
        <ele>92.8</ele>
        <time>2017-12-03T17:20:26Z</time>
      </trkpt>
      <trkpt lat="62.634638662151" lon="17.988079005637">
        <ele>92.8</ele>
        <time>2017-12-03T17:20:27Z</time>
      </trkpt>
      <trkpt lat="62.63460186561" lon="17.988088644822">
        <ele>92.8</ele>
        <time>2017-12-03T17:20:28Z</time>
      </trkpt>
      <trkpt lat="62.634588370751" lon="17.988097864912">
        <ele>92.8</ele>
        <time>2017-12-03T17:20:29Z</time>
      </trkpt>
      <trkpt lat="62.634560459024" lon="17.988100379482">
        <ele>92.8</ele>
        <time>2017-12-03T17:20:30Z</time>
      </trkpt>
      <trkpt lat="62.634533469306" lon="17.988146563751">
        <ele>92.8</ele>
        <time>2017-12-03T17:20:31Z</time>
      </trkpt>
      <trkpt lat="62.6344937391" lon="17.988125441363">
        <ele>93</ele>
        <time>2017-12-03T17:20:32Z</time>
      </trkpt>
      <trkpt lat="62.634464821545" lon="17.988143713905">
        <ele>93.2</ele>
        <time>2017-12-03T17:20:33Z</time>
      </trkpt>
      <trkpt lat="62.634441436044" lon="17.988156119117">
        <ele>93.2</ele>
        <time>2017-12-03T17:20:34Z</time>
      </trkpt>
      <trkpt lat="62.634406232064" lon="17.988170703623">
        <ele>93.4</ele>
        <time>2017-12-03T17:20:35Z</time>
      </trkpt>
      <trkpt lat="62.634396173784" lon="17.988190149631">
        <ele>93.4</ele>
        <time>2017-12-03T17:20:36Z</time>
      </trkpt>
      <trkpt lat="62.63437052517" lon="17.988178834066">
        <ele>93.4</ele>
        <time>2017-12-03T17:20:37Z</time>
      </trkpt>
      <trkpt lat="62.634340517968" lon="17.988173302012">
        <ele>93.6</ele>
        <time>2017-12-03T17:20:38Z</time>
      </trkpt>
      <trkpt lat="62.634306152178" lon="17.988199034445">
        <ele>94</ele>
        <time>2017-12-03T17:20:39Z</time>
      </trkpt>
      <trkpt lat="62.634270612922" lon="17.988191490735">
        <ele>94.2</ele>
        <time>2017-12-03T17:20:40Z</time>
      </trkpt>
      <trkpt lat="62.634251418371" lon="17.988194340581">
        <ele>94.2</ele>
        <time>2017-12-03T17:20:41Z</time>
      </trkpt>
      <trkpt lat="62.634211855803" lon="17.988172966736">
        <ele>94.4</ele>
        <time>2017-12-03T17:20:42Z</time>
      </trkpt>
      <trkpt lat="62.63418947613" lon="17.988159052782">
        <ele>94.4</ele>
        <time>2017-12-03T17:20:43Z</time>
      </trkpt>
      <trkpt lat="62.634153853055" lon="17.988130051408">
        <ele>94.2</ele>
        <time>2017-12-03T17:20:44Z</time>
      </trkpt>
      <trkpt lat="62.63413918473" lon="17.988117981472">
        <ele>94.2</ele>
        <time>2017-12-03T17:20:45Z</time>
      </trkpt>
      <trkpt lat="62.634099203067" lon="17.988091243211">
        <ele>94.2</ele>
        <time>2017-12-03T17:20:46Z</time>
      </trkpt>
      <trkpt lat="62.634053186436" lon="17.988075988153">
        <ele>94.2</ele>
        <time>2017-12-03T17:20:47Z</time>
      </trkpt>
      <trkpt lat="62.634022257225" lon="17.988057464154">
        <ele>94.2</ele>
        <time>2017-12-03T17:20:48Z</time>
      </trkpt>
      <trkpt lat="62.633995938059" lon="17.988044556028">
        <ele>94.4</ele>
        <time>2017-12-03T17:20:49Z</time>
      </trkpt>
      <trkpt lat="62.633961656088" lon="17.988039023974">
        <ele>94.4</ele>
        <time>2017-12-03T17:20:50Z</time>
      </trkpt>
      <trkpt lat="62.633933660542" lon="17.988023685097">
        <ele>94.4</ele>
        <time>2017-12-03T17:20:51Z</time>
      </trkpt>
      <trkpt lat="62.633905162082" lon="17.988001053967">
        <ele>94.6</ele>
        <time>2017-12-03T17:20:52Z</time>
      </trkpt>
      <trkpt lat="62.633877166536" lon="17.987983703434">
        <ele>94.8</ele>
        <time>2017-12-03T17:20:53Z</time>
      </trkpt>
      <trkpt lat="62.633842549289" lon="17.987927293247">
        <ele>95</ele>
        <time>2017-12-03T17:20:54Z</time>
      </trkpt>
      <trkpt lat="62.633808183499" lon="17.987916899691">
        <ele>95</ele>
        <time>2017-12-03T17:20:55Z</time>
      </trkpt>
      <trkpt lat="62.633781361419" lon="17.987882282444">
        <ele>95.2</ele>
        <time>2017-12-03T17:20:56Z</time>
      </trkpt>
      <trkpt lat="62.633748839647" lon="17.987837942193">
        <ele>95.2</ele>
        <time>2017-12-03T17:20:57Z</time>
      </trkpt>
      <trkpt lat="62.633724615956" lon="17.987829308836">
        <ele>95.4</ele>
        <time>2017-12-03T17:20:58Z</time>
      </trkpt>
      <trkpt lat="62.633691088356" lon="17.987801229471">
        <ele>95.6</ele>
        <time>2017-12-03T17:20:59Z</time>
      </trkpt>
      <trkpt lat="62.633661751706" lon="17.98778957863">
        <ele>95.6</ele>
        <time>2017-12-03T17:21:00Z</time>
      </trkpt>
      <trkpt lat="62.633643898259" lon="17.987772228097">
        <ele>95.6</ele>
        <time>2017-12-03T17:21:01Z</time>
      </trkpt>
      <trkpt lat="62.633616321808" lon="17.987747166216">
        <ele>95.8</ele>
        <time>2017-12-03T17:21:02Z</time>
      </trkpt>
      <trkpt lat="62.633595786153" lon="17.987721936697">
        <ele>96</ele>
        <time>2017-12-03T17:21:03Z</time>
      </trkpt>
      <trkpt lat="62.633573071204" lon="17.987708525657">
        <ele>96.2</ele>
        <time>2017-12-03T17:21:04Z</time>
      </trkpt>
      <trkpt lat="62.633542561088" lon="17.987666867614">
        <ele>96.4</ele>
        <time>2017-12-03T17:21:05Z</time>
      </trkpt>
      <trkpt lat="62.633515822827" lon="17.987665191234">
        <ele>96.6</ele>
        <time>2017-12-03T17:21:06Z</time>
      </trkpt>
      <trkpt lat="62.6334879111" lon="17.987605847382">
        <ele>96.8</ele>
        <time>2017-12-03T17:21:07Z</time>
      </trkpt>
      <trkpt lat="62.633455640785" lon="17.987587910116">
        <ele>96.8</ele>
        <time>2017-12-03T17:21:08Z</time>
      </trkpt>
      <trkpt lat="62.633435524225" lon="17.987566703909">
        <ele>97</ele>
        <time>2017-12-03T17:21:09Z</time>
      </trkpt>
      <trkpt lat="62.633407612498" lon="17.98752638697">
        <ele>97</ele>
        <time>2017-12-03T17:21:10Z</time>
      </trkpt>
      <trkpt lat="62.633385316644" lon="17.987494451931">
        <ele>97</ele>
        <time>2017-12-03T17:21:11Z</time>
      </trkpt>
      <trkpt lat="62.633364529532" lon="17.987457068657">
        <ele>97</ele>
        <time>2017-12-03T17:21:12Z</time>
      </trkpt>
      <trkpt lat="62.633351453768" lon="17.987419769202">
        <ele>97.2</ele>
        <time>2017-12-03T17:21:13Z</time>
      </trkpt>
      <trkpt lat="62.633335528158" lon="17.987361012083">
        <ele>97.4</ele>
        <time>2017-12-03T17:21:14Z</time>
      </trkpt>
      <trkpt lat="62.63330518568" lon="17.987325975741">
        <ele>97.6</ele>
        <time>2017-12-03T17:21:15Z</time>
      </trkpt>
      <trkpt lat="62.633282135455" lon="17.987246012415">
        <ele>97.8</ele>
        <time>2017-12-03T17:21:16Z</time>
      </trkpt>
      <trkpt lat="62.633256403022" lon="17.987163031605">
        <ele>97.8</ele>
        <time>2017-12-03T17:21:17Z</time>
      </trkpt>
      <trkpt lat="62.633234274806" lon="17.987083571193">
        <ele>97.8</ele>
        <time>2017-12-03T17:21:18Z</time>
      </trkpt>
      <trkpt lat="62.633210637848" lon="17.986962117462">
        <ele>97.6</ele>
        <time>2017-12-03T17:21:19Z</time>
      </trkpt>
      <trkpt lat="62.633191778573" lon="17.98683152746">
        <ele>96.8</ele>
        <time>2017-12-03T17:21:20Z</time>
      </trkpt>
      <trkpt lat="62.633183396673" lon="17.98672256276">
        <ele>95.8</ele>
        <time>2017-12-03T17:21:21Z</time>
      </trkpt>
      <trkpt lat="62.633169315081" lon="17.986586608342">
        <ele>95</ele>
        <time>2017-12-03T17:21:22Z</time>
      </trkpt>
      <trkpt lat="62.633159927353" lon="17.986457107987">
        <ele>94</ele>
        <time>2017-12-03T17:21:23Z</time>
      </trkpt>
      <trkpt lat="62.633155904041" lon="17.98634453907">
        <ele>93.8</ele>
        <time>2017-12-03T17:21:24Z</time>
      </trkpt>
      <trkpt lat="62.633150707263" lon="17.986213278516">
        <ele>93.6</ele>
        <time>2017-12-03T17:21:25Z</time>
      </trkpt>
      <trkpt lat="62.633150288168" lon="17.986086963283">
        <ele>93.4</ele>
        <time>2017-12-03T17:21:26Z</time>
      </trkpt>
      <trkpt lat="62.633152551281" lon="17.985961150964">
        <ele>93.2</ele>
        <time>2017-12-03T17:21:27Z</time>
      </trkpt>
      <trkpt lat="62.633156239317" lon="17.9858223467">
        <ele>93</ele>
        <time>2017-12-03T17:21:28Z</time>
      </trkpt>
      <trkpt lat="62.633157161326" lon="17.985680860228">
        <ele>92.6</ele>
        <time>2017-12-03T17:21:29Z</time>
      </trkpt>
      <trkpt lat="62.633159675896" lon="17.985561753429">
        <ele>92.2</ele>
        <time>2017-12-03T17:21:30Z</time>
      </trkpt>
      <trkpt lat="62.633159759715" lon="17.985440802612">
        <ele>91.8</ele>
        <time>2017-12-03T17:21:31Z</time>
      </trkpt>
      <trkpt lat="62.633166297597" lon="17.985291604792">
        <ele>91.6</ele>
        <time>2017-12-03T17:21:32Z</time>
      </trkpt>
      <trkpt lat="62.633187755261" lon="17.985146681741">
        <ele>91.4</ele>
        <time>2017-12-03T17:21:33Z</time>
      </trkpt>
      <trkpt lat="62.633204938156" lon="17.9849841567">
        <ele>91.4</ele>
        <time>2017-12-03T17:21:34Z</time>
      </trkpt>
      <trkpt lat="62.633229413304" lon="17.984826912256">
        <ele>91</ele>
        <time>2017-12-03T17:21:35Z</time>
      </trkpt>
      <trkpt lat="62.633257660307" lon="17.984708978923">
        <ele>90.8</ele>
        <time>2017-12-03T17:21:36Z</time>
      </trkpt>
      <trkpt lat="62.633292445192" lon="17.98457092903">
        <ele>90.4</ele>
        <time>2017-12-03T17:21:37Z</time>
      </trkpt>
      <trkpt lat="62.633318429082" lon="17.984451403136">
        <ele>89.8</ele>
        <time>2017-12-03T17:21:38Z</time>
      </trkpt>
      <trkpt lat="62.633341730764" lon="17.984335565278">
        <ele>89.2</ele>
        <time>2017-12-03T17:21:39Z</time>
      </trkpt>
      <trkpt lat="62.633354135976" lon="17.98420883095">
        <ele>88.6</ele>
        <time>2017-12-03T17:21:40Z</time>
      </trkpt>
      <trkpt lat="62.633361679686" lon="17.984103554286">
        <ele>88.4</ele>
        <time>2017-12-03T17:21:41Z</time>
      </trkpt>
      <trkpt lat="62.633371654147" lon="17.983996014509">
        <ele>88.4</ele>
        <time>2017-12-03T17:21:42Z</time>
      </trkpt>
      <trkpt lat="62.63338565192" lon="17.983890570207">
        <ele>88.4</ele>
        <time>2017-12-03T17:21:43Z</time>
      </trkpt>
      <trkpt lat="62.633413228371" lon="17.98377464853">
        <ele>88.6</ele>
        <time>2017-12-03T17:21:44Z</time>
      </trkpt>
      <trkpt lat="62.633430411266" lon="17.983680855069">
        <ele>89</ele>
        <time>2017-12-03T17:21:45Z</time>
      </trkpt>
      <trkpt lat="62.633441726831" lon="17.983582200106">
        <ele>89.4</ele>
        <time>2017-12-03T17:21:46Z</time>
      </trkpt>
      <trkpt lat="62.633432339103" lon="17.983486059713">
        <ele>89.6</ele>
        <time>2017-12-03T17:21:47Z</time>
      </trkpt>
      <trkpt lat="62.63345689807" lon="17.983391679519">
        <ele>90.2</ele>
        <time>2017-12-03T17:21:48Z</time>
      </trkpt>
      <trkpt lat="62.633457065708" lon="17.98331951136">
        <ele>90.4</ele>
        <time>2017-12-03T17:21:49Z</time>
      </trkpt>
      <trkpt lat="62.633469806196" lon="17.983233596885">
        <ele>90.4</ele>
        <time>2017-12-03T17:21:50Z</time>
      </trkpt>
      <trkpt lat="62.633491347679" lon="17.983151286627">
        <ele>90.4</ele>
        <time>2017-12-03T17:21:51Z</time>
      </trkpt>
      <trkpt lat="62.633493359335" lon="17.983062941401">
        <ele>90.6</ele>
        <time>2017-12-03T17:21:52Z</time>
      </trkpt>
      <trkpt lat="62.633506686556" lon="17.982976356374">
        <ele>90.4</ele>
        <time>2017-12-03T17:21:53Z</time>
      </trkpt>
      <trkpt lat="62.633527473668" lon="17.982889436071">
        <ele>90.4</ele>
        <time>2017-12-03T17:21:54Z</time>
      </trkpt>
      <trkpt lat="62.633517415388" lon="17.982799330646">
        <ele>90.6</ele>
        <time>2017-12-03T17:21:55Z</time>
      </trkpt>
      <trkpt lat="62.633548344599" lon="17.982725067012">
        <ele>90.6</ele>
        <time>2017-12-03T17:21:56Z</time>
      </trkpt>
      <trkpt lat="62.633567622969" lon="17.982651976844">
        <ele>90.6</ele>
        <time>2017-12-03T17:21:57Z</time>
      </trkpt>
      <trkpt lat="62.63358262657" lon="17.982570420957">
        <ele>90.8</ele>
        <time>2017-12-03T17:21:58Z</time>
      </trkpt>
      <trkpt lat="62.633608694279" lon="17.982490373812">
        <ele>90.8</ele>
        <time>2017-12-03T17:21:59Z</time>
      </trkpt>
      <trkpt lat="62.633609532469" lon="17.982407225364">
        <ele>90.8</ele>
        <time>2017-12-03T17:22:00Z</time>
      </trkpt>
      <trkpt lat="62.633620512758" lon="17.982327429676">
        <ele>90.8</ele>
        <time>2017-12-03T17:22:01Z</time>
      </trkpt>
      <trkpt lat="62.633619926025" lon="17.982217375329">
        <ele>90.8</ele>
        <time>2017-12-03T17:22:02Z</time>
      </trkpt>
      <trkpt lat="62.633629649029" lon="17.982139423659">
        <ele>90.8</ele>
        <time>2017-12-03T17:22:03Z</time>
      </trkpt>
      <trkpt lat="62.633640042585" lon="17.98207982835">
        <ele>90.8</ele>
        <time>2017-12-03T17:22:04Z</time>
      </trkpt>
      <trkpt lat="62.633647837752" lon="17.981953177841">
        <ele>91</ele>
        <time>2017-12-03T17:22:05Z</time>
      </trkpt>
      <trkpt lat="62.633650100865" lon="17.981899785138">
        <ele>91</ele>
        <time>2017-12-03T17:22:06Z</time>
      </trkpt>
      <trkpt lat="62.633669043959" lon="17.981803058012">
        <ele>91</ele>
        <time>2017-12-03T17:22:07Z</time>
      </trkpt>
      <trkpt lat="62.633666948484" lon="17.98168755543">
        <ele>91</ele>
        <time>2017-12-03T17:22:08Z</time>
      </trkpt>
      <trkpt lat="62.633665775018" lon="17.98163223489">
        <ele>90.8</ele>
        <time>2017-12-03T17:22:09Z</time>
      </trkpt>
      <trkpt lat="62.633674995108" lon="17.981528718425">
        <ele>90.8</ele>
        <time>2017-12-03T17:22:10Z</time>
      </trkpt>
      <trkpt lat="62.633669714511" lon="17.981480941595">
        <ele>90.8</ele>
        <time>2017-12-03T17:22:11Z</time>
      </trkpt>
      <trkpt lat="62.633685388664" lon="17.981370384334">
        <ele>90.8</ele>
        <time>2017-12-03T17:22:12Z</time>
      </trkpt>
      <trkpt lat="62.633688573786" lon="17.981303748229">
        <ele>90.6</ele>
        <time>2017-12-03T17:22:13Z</time>
      </trkpt>
      <trkpt lat="62.633692094184" lon="17.981246416033">
        <ele>90.8</ele>
        <time>2017-12-03T17:22:14Z</time>
      </trkpt>
      <trkpt lat="62.633714557676" lon="17.98116703944">
        <ele>90.8</ele>
        <time>2017-12-03T17:22:15Z</time>
      </trkpt>
      <trkpt lat="62.633720592644" lon="17.981100906249">
        <ele>90.8</ele>
        <time>2017-12-03T17:22:16Z</time>
      </trkpt>
      <trkpt lat="62.633738026996" lon="17.98105556017">
        <ele>91</ele>
        <time>2017-12-03T17:22:17Z</time>
      </trkpt>
      <trkpt lat="62.633768369474" lon="17.981006861331">
        <ele>91</ele>
        <time>2017-12-03T17:22:18Z</time>
      </trkpt>
      <trkpt lat="62.633783121618" lon="17.980938716484">
        <ele>91</ele>
        <time>2017-12-03T17:22:19Z</time>
      </trkpt>
      <trkpt lat="62.633789408043" lon="17.980876019872">
        <ele>91.2</ele>
        <time>2017-12-03T17:22:20Z</time>
      </trkpt>
      <trkpt lat="62.633823941471" lon="17.980828243042">
        <ele>91.2</ele>
        <time>2017-12-03T17:22:21Z</time>
      </trkpt>
      <trkpt lat="62.633842130194" lon="17.980751632476">
        <ele>91.2</ele>
        <time>2017-12-03T17:22:22Z</time>
      </trkpt>
      <trkpt lat="62.633851350284" lon="17.980697485402">
        <ele>91.4</ele>
        <time>2017-12-03T17:22:23Z</time>
      </trkpt>
      <trkpt lat="62.633883201504" lon="17.980635040247">
        <ele>91.6</ele>
        <time>2017-12-03T17:22:24Z</time>
      </trkpt>
      <trkpt lat="62.633893008327" lon="17.980583407743">
        <ele>91.8</ele>
        <time>2017-12-03T17:22:25Z</time>
      </trkpt>
      <trkpt lat="62.633924356633" lon="17.980519789122">
        <ele>91.8</ele>
        <time>2017-12-03T17:22:26Z</time>
      </trkpt>
      <trkpt lat="62.633935001646" lon="17.980465642048">
        <ele>92</ele>
        <time>2017-12-03T17:22:27Z</time>
      </trkpt>
      <trkpt lat="62.633947574496" lon="17.980398754486">
        <ele>92</ele>
        <time>2017-12-03T17:22:28Z</time>
      </trkpt>
      <trkpt lat="62.633966266133" lon="17.980350893837">
        <ele>92</ele>
        <time>2017-12-03T17:22:29Z</time>
      </trkpt>
      <trkpt lat="62.633980431544" lon="17.980279228592">
        <ele>92.2</ele>
        <time>2017-12-03T17:22:30Z</time>
      </trkpt>
      <trkpt lat="62.634014964972" lon="17.980233798694">
        <ele>92.4</ele>
        <time>2017-12-03T17:22:31Z</time>
      </trkpt>
      <trkpt lat="62.634045726545" lon="17.980176969412">
        <ele>92.4</ele>
        <time>2017-12-03T17:22:32Z</time>
      </trkpt>
      <trkpt lat="62.634073638272" lon="17.980146207839">
        <ele>92.4</ele>
        <time>2017-12-03T17:22:33Z</time>
      </trkpt>
      <trkpt lat="62.634103394017" lon="17.980088624186">
        <ele>92.4</ele>
        <time>2017-12-03T17:22:34Z</time>
      </trkpt>
      <trkpt lat="62.634128874993" lon="17.980023161547">
        <ele>92.4</ele>
        <time>2017-12-03T17:22:35Z</time>
      </trkpt>
      <trkpt lat="62.634167264095" lon="17.979956525442">
        <ele>92.2</ele>
        <time>2017-12-03T17:22:36Z</time>
      </trkpt>
      <trkpt lat="62.634197355116" lon="17.979886955672">
        <ele>92.2</ele>
        <time>2017-12-03T17:22:37Z</time>
      </trkpt>
      <trkpt lat="62.634217555495" lon="17.979825516345">
        <ele>92.4</ele>
        <time>2017-12-03T17:22:38Z</time>
      </trkpt>
      <trkpt lat="62.634235157485" lon="17.979749073417">
        <ele>92.4</ele>
        <time>2017-12-03T17:22:39Z</time>
      </trkpt>
      <trkpt lat="62.634242617376" lon="17.979674558326">
        <ele>92.4</ele>
        <time>2017-12-03T17:22:40Z</time>
      </trkpt>
      <trkpt lat="62.634267092524" lon="17.979602641624">
        <ele>92.6</ele>
        <time>2017-12-03T17:22:41Z</time>
      </trkpt>
      <trkpt lat="62.634271451112" lon="17.979509434896">
        <ele>92.4</ele>
        <time>2017-12-03T17:22:42Z</time>
      </trkpt>
      <trkpt lat="62.634281006478" lon="17.979431315588">
        <ele>92.4</ele>
        <time>2017-12-03T17:22:43Z</time>
      </trkpt>
      <trkpt lat="62.634306152178" lon="17.97935654904">
        <ele>92.6</ele>
        <time>2017-12-03T17:22:44Z</time>
      </trkpt>
      <trkpt lat="62.634310929861" lon="17.979279016465">
        <ele>92.4</ele>
        <time>2017-12-03T17:22:45Z</time>
      </trkpt>
      <trkpt lat="62.634329789136" lon="17.979222522459">
        <ele>92.4</ele>
        <time>2017-12-03T17:22:46Z</time>
      </trkpt>
      <trkpt lat="62.634344876556" lon="17.9791503543">
        <ele>92.4</ele>
        <time>2017-12-03T17:22:47Z</time>
      </trkpt>
      <trkpt lat="62.63435376137" lon="17.979097799787">
        <ele>92.6</ele>
        <time>2017-12-03T17:22:48Z</time>
      </trkpt>
      <trkpt lat="62.634374632301" lon="17.979032420967">
        <ele>92.4</ele>
        <time>2017-12-03T17:22:49Z</time>
      </trkpt>
      <trkpt lat="62.634393575395" lon="17.978959749894">
        <ele>92.6</ele>
        <time>2017-12-03T17:22:50Z</time>
      </trkpt>
      <trkpt lat="62.634412183213" lon="17.978903507345">
        <ele>92.6</ele>
        <time>2017-12-03T17:22:51Z</time>
      </trkpt>
      <trkpt lat="62.63442416933" lon="17.978845504597">
        <ele>92.4</ele>
        <time>2017-12-03T17:22:52Z</time>
      </trkpt>
      <trkpt lat="62.634432299773" lon="17.978788507677">
        <ele>92.2</ele>
        <time>2017-12-03T17:22:53Z</time>
      </trkpt>
      <trkpt lat="62.634451242867" lon="17.978736958992">
        <ele>92.2</ele>
        <time>2017-12-03T17:22:54Z</time>
      </trkpt>
      <trkpt lat="62.634477645852" lon="17.978715166052">
        <ele>92</ele>
        <time>2017-12-03T17:22:55Z</time>
      </trkpt>
      <trkpt lat="62.634506395769" lon="17.978718183536">
        <ele>92</ele>
        <time>2017-12-03T17:22:56Z</time>
      </trkpt>
      <trkpt lat="62.634526512329" lon="17.97872874473">
        <ele>91.8</ele>
        <time>2017-12-03T17:22:57Z</time>
      </trkpt>
      <trkpt lat="62.634553921142" lon="17.978745927625">
        <ele>91.8</ele>
        <time>2017-12-03T17:22:59Z</time>
      </trkpt>
      <trkpt lat="62.634570768761" lon="17.978741652856">
        <ele>91.8</ele>
        <time>2017-12-03T17:23:00Z</time>
      </trkpt>
      <trkpt lat="62.634590466226" lon="17.978744586521">
        <ele>91.8</ele>
        <time>2017-12-03T17:23:01Z</time>
      </trkpt>
      <trkpt lat="62.634615947202" lon="17.978763445796">
        <ele>92</ele>
        <time>2017-12-03T17:23:02Z</time>
      </trkpt>
      <trkpt lat="62.634653246657" lon="17.978777695026">
        <ele>92</ele>
        <time>2017-12-03T17:23:03Z</time>
      </trkpt>
      <trkpt lat="62.63468317004" lon="17.978793033903">
        <ele>92.2</ele>
        <time>2017-12-03T17:23:04Z</time>
      </trkpt>
      <trkpt lat="62.634715943269" lon="17.978815413576">
        <ele>92.2</ele>
        <time>2017-12-03T17:23:05Z</time>
      </trkpt>
      <trkpt lat="62.634753745638" lon="17.978830836272">
        <ele>92.2</ele>
        <time>2017-12-03T17:23:06Z</time>
      </trkpt>
      <trkpt lat="62.634787776152" lon="17.978857490714">
        <ele>92.2</ele>
        <time>2017-12-03T17:23:07Z</time>
      </trkpt>
      <trkpt lat="62.634814262956" lon="17.978879535111">
        <ele>92</ele>
        <time>2017-12-03T17:23:08Z</time>
      </trkpt>
      <trkpt lat="62.634848628746" lon="17.978895795997">
        <ele>91.6</ele>
        <time>2017-12-03T17:23:09Z</time>
      </trkpt>
      <trkpt lat="62.634873606808" lon="17.978917169842">
        <ele>91.6</ele>
        <time>2017-12-03T17:23:10Z</time>
      </trkpt>
      <trkpt lat="62.634902943458" lon="17.978907530657">
        <ele>91.4</ele>
        <time>2017-12-03T17:23:11Z</time>
      </trkpt>
      <trkpt lat="62.634926161321" lon="17.978938878963">
        <ele>91.2</ele>
        <time>2017-12-03T17:23:12Z</time>
      </trkpt>
      <trkpt lat="62.634954324505" lon="17.97895170327">
        <ele>91.2</ele>
        <time>2017-12-03T17:23:13Z</time>
      </trkpt>
      <trkpt lat="62.634975195436" lon="17.978971987468">
        <ele>91.2</ele>
        <time>2017-12-03T17:23:14Z</time>
      </trkpt>
      <trkpt lat="62.634998748575" lon="17.978967796518">
        <ele>91</ele>
        <time>2017-12-03T17:23:15Z</time>
      </trkpt>
      <trkpt lat="62.635031437985" lon="17.978981123739">
        <ele>91.2</ele>
        <time>2017-12-03T17:23:16Z</time>
      </trkpt>
      <trkpt lat="62.635059768807" lon="17.978992858399">
        <ele>91</ele>
        <time>2017-12-03T17:23:17Z</time>
      </trkpt>
      <trkpt lat="62.635085082145" lon="17.979008951647">
        <ele>91</ele>
        <time>2017-12-03T17:23:18Z</time>
      </trkpt>
      <trkpt lat="62.635121375772" lon="17.979016160081">
        <ele>90.8</ele>
        <time>2017-12-03T17:23:19Z</time>
      </trkpt>
      <trkpt lat="62.635149790413" lon="17.979030744587">
        <ele>90.8</ele>
        <time>2017-12-03T17:23:20Z</time>
      </trkpt>
      <trkpt lat="62.635187844239" lon="17.979036444279">
        <ele>90.6</ele>
        <time>2017-12-03T17:23:21Z</time>
      </trkpt>
      <trkpt lat="62.635221874753" lon="17.979041221962">
        <ele>90.6</ele>
        <time>2017-12-03T17:23:22Z</time>
      </trkpt>
      <trkpt lat="62.635255569991" lon="17.979046167283">
        <ele>90.6</ele>
        <time>2017-12-03T17:23:23Z</time>
      </trkpt>
      <trkpt lat="62.635288510858" lon="17.979053543355">
        <ele>90.4</ele>
        <time>2017-12-03T17:23:24Z</time>
      </trkpt>
      <trkpt lat="62.635320362078" lon="17.9790581534">
        <ele>90.4</ele>
        <time>2017-12-03T17:23:25Z</time>
      </trkpt>
      <trkpt lat="62.635355063144" lon="17.979071480621">
        <ele>90.2</ele>
        <time>2017-12-03T17:23:26Z</time>
      </trkpt>
      <trkpt lat="62.635392865513" lon="17.979069468965">
        <ele>90</ele>
        <time>2017-12-03T17:23:27Z</time>
      </trkpt>
      <trkpt lat="62.635438127773" lon="17.979066451481">
        <ele>89.8</ele>
        <time>2017-12-03T17:23:28Z</time>
      </trkpt>
      <trkpt lat="62.635478193255" lon="17.979063098721">
        <ele>89.6</ele>
        <time>2017-12-03T17:23:29Z</time>
      </trkpt>
      <trkpt lat="62.635517085271" lon="17.979060835608">
        <ele>89.6</ele>
        <time>2017-12-03T17:23:30Z</time>
      </trkpt>
      <trkpt lat="62.635562347531" lon="17.979050358233">
        <ele>89.4</ele>
        <time>2017-12-03T17:23:31Z</time>
      </trkpt>
      <trkpt lat="62.63560434085" lon="17.979046167283">
        <ele>89.2</ele>
        <time>2017-12-03T17:23:32Z</time>
      </trkpt>
      <trkpt lat="62.635645244522" lon="17.979046837835">
        <ele>89</ele>
        <time>2017-12-03T17:23:33Z</time>
      </trkpt>
      <trkpt lat="62.635692183162" lon="17.979047089292">
        <ele>88.8</ele>
        <time>2017-12-03T17:23:34Z</time>
      </trkpt>
      <trkpt lat="62.63573258392" lon="17.979045412912">
        <ele>88.6</ele>
        <time>2017-12-03T17:23:35Z</time>
      </trkpt>
      <trkpt lat="62.635773571411" lon="17.979043317437">
        <ele>88.4</ele>
        <time>2017-12-03T17:23:36Z</time>
      </trkpt>
      <trkpt lat="62.635808691572" lon="17.979045832007">
        <ele>88.2</ele>
        <time>2017-12-03T17:23:37Z</time>
      </trkpt>
      <trkpt lat="62.635840542792" lon="17.97904809512">
        <ele>88.2</ele>
        <time>2017-12-03T17:23:38Z</time>
      </trkpt>
      <trkpt lat="62.635871472003" lon="17.979046921654">
        <ele>88</ele>
        <time>2017-12-03T17:23:39Z</time>
      </trkpt>
      <trkpt lat="62.635897120617" lon="17.979065780929">
        <ele>88</ele>
        <time>2017-12-03T17:23:40Z</time>
      </trkpt>
      <trkpt lat="62.635919165014" lon="17.979072318811">
        <ele>88</ele>
        <time>2017-12-03T17:23:41Z</time>
      </trkpt>
      <trkpt lat="62.635933581882" lon="17.979076342123">
        <ele>87.8</ele>
        <time>2017-12-03T17:23:42Z</time>
      </trkpt>
      <trkpt lat="62.63594967513" lon="17.97909251919">
        <ele>87.8</ele>
        <time>2017-12-03T17:23:43Z</time>
      </trkpt>
      <trkpt lat="62.635962750894" lon="17.979091848638">
        <ele>87.8</ele>
        <time>2017-12-03T17:23:44Z</time>
      </trkpt>
      <trkpt lat="62.635981693988" lon="17.979097967425">
        <ele>87.8</ele>
        <time>2017-12-03T17:23:45Z</time>
      </trkpt>
      <trkpt lat="62.63599577558" lon="17.979107103696">
        <ele>87.8</ele>
        <time>2017-12-03T17:23:46Z</time>
      </trkpt>
      <trkpt lat="62.636011198276" lon="17.979144151694">
        <ele>88</ele>
        <time>2017-12-03T17:23:47Z</time>
      </trkpt>
      <trkpt lat="62.636013629027" lon="17.979187989031">
        <ele>88.2</ele>
        <time>2017-12-03T17:23:48Z</time>
      </trkpt>
      <trkpt lat="62.636017149425" lon="17.979226210495">
        <ele>88.2</ele>
        <time>2017-12-03T17:23:49Z</time>
      </trkpt>
      <trkpt lat="62.636009102801" lon="17.979266527434">
        <ele>88.2</ele>
        <time>2017-12-03T17:23:50Z</time>
      </trkpt>
      <trkpt lat="62.636009438077" lon="17.9792760828">
        <ele>88.2</ele>
        <time>2017-12-03T17:23:51Z</time>
      </trkpt>
      <trkpt lat="62.636002900195" lon="17.979292595143">
        <ele>88.2</ele>
        <time>2017-12-03T17:23:52Z</time>
      </trkpt>
      <trkpt lat="62.636004325118" lon="17.979290499668">
        <ele>88</ele>
        <time>2017-12-03T17:23:53Z</time>
      </trkpt>
      <trkpt lat="62.635997703417" lon="17.979697440913">
        <ele>88</ele>
        <time>2017-12-03T17:24:09Z</time>
      </trkpt>
      <trkpt lat="62.635991500811" lon="17.979873796089">
        <ele>87.6</ele>
        <time>2017-12-03T17:24:10Z</time>
      </trkpt>
      <trkpt lat="62.635994769752" lon="17.980042859012">
        <ele>87.2</ele>
        <time>2017-12-03T17:24:11Z</time>
      </trkpt>
      <trkpt lat="62.636009940991" lon="17.980206892795">
        <ele>86.2</ele>
        <time>2017-12-03T17:24:12Z</time>
      </trkpt>
      <trkpt lat="62.636031733931" lon="17.98036405342">
        <ele>85</ele>
        <time>2017-12-03T17:24:13Z</time>
      </trkpt>
      <trkpt lat="62.636053862147" lon="17.980500007838">
        <ele>83.8</ele>
        <time>2017-12-03T17:24:14Z</time>
      </trkpt>
      <trkpt lat="62.636075990363" lon="17.980649624753">
        <ele>82.8</ele>
        <time>2017-12-03T17:24:15Z</time>
      </trkpt>
      <trkpt lat="62.636109937058" lon="17.980827740128">
        <ele>81.8</ele>
        <time>2017-12-03T17:24:17Z</time>
      </trkpt>
      <trkpt lat="62.636158719716" lon="17.981112137995">
        <ele>81.2</ele>
        <time>2017-12-03T17:24:19Z</time>
      </trkpt>
      <trkpt lat="62.636176405525" lon="17.981262006367">
        <ele>81</ele>
        <time>2017-12-03T17:24:20Z</time>
      </trkpt>
      <trkpt lat="62.636182440493" lon="17.981381113166">
        <ele>80.6</ele>
        <time>2017-12-03T17:24:21Z</time>
      </trkpt>
      <trkpt lat="62.636186547624" lon="17.981540117809">
        <ele>80.2</ele>
        <time>2017-12-03T17:24:22Z</time>
      </trkpt>
      <trkpt lat="62.636192498773" lon="17.981675066399">
        <ele>80</ele>
        <time>2017-12-03T17:24:23Z</time>
      </trkpt>
      <trkpt lat="62.63620197032" lon="17.981805488763">
        <ele>79.6</ele>
        <time>2017-12-03T17:24:24Z</time>
      </trkpt>
      <trkpt lat="62.636210016944" lon="17.981929959978">
        <ele>79.4</ele>
        <time>2017-12-03T17:24:25Z</time>
      </trkpt>
      <trkpt lat="62.636225188183" lon="17.982034230814">
        <ele>79.2</ele>
        <time>2017-12-03T17:24:26Z</time>
      </trkpt>
      <trkpt lat="62.63623549792" lon="17.982151996509">
        <ele>79</ele>
        <time>2017-12-03T17:24:27Z</time>
      </trkpt>
      <trkpt lat="62.6362455562" lon="17.982266912358">
        <ele>79</ele>
        <time>2017-12-03T17:24:28Z</time>
      </trkpt>
      <trkpt lat="62.636254608652" lon="17.982368333348">
        <ele>79.2</ele>
        <time>2017-12-03T17:24:29Z</time>
      </trkpt>
      <trkpt lat="62.636258296688" lon="17.982461037162">
        <ele>79.2</ele>
        <time>2017-12-03T17:24:30Z</time>
      </trkpt>
      <trkpt lat="62.636258631964" lon="17.982532786226">
        <ele>79.6</ele>
        <time>2017-12-03T17:24:31Z</time>
      </trkpt>
      <trkpt lat="62.636256955584" lon="17.982625238583">
        <ele>80</ele>
        <time>2017-12-03T17:24:32Z</time>
      </trkpt>
      <trkpt lat="62.63626734914" lon="17.982711488334">
        <ele>80.4</ele>
        <time>2017-12-03T17:24:33Z</time>
      </trkpt>
      <trkpt lat="62.636273635565" lon="17.982803856872">
        <ele>80.6</ele>
        <time>2017-12-03T17:24:34Z</time>
      </trkpt>
      <trkpt lat="62.636277910334" lon="17.982905026405">
        <ele>81.2</ele>
        <time>2017-12-03T17:24:35Z</time>
      </trkpt>
      <trkpt lat="62.636281766008" lon="17.982985241188">
        <ele>81.4</ele>
        <time>2017-12-03T17:24:36Z</time>
      </trkpt>
      <trkpt lat="62.636288806804" lon="17.983056654976">
        <ele>81.4</ele>
        <time>2017-12-03T17:24:37Z</time>
      </trkpt>
      <trkpt lat="62.636292746297" lon="17.983148101505">
        <ele>81.4</ele>
        <time>2017-12-03T17:24:38Z</time>
      </trkpt>
      <trkpt lat="62.636297272523" lon="17.983223790062">
        <ele>81.4</ele>
        <time>2017-12-03T17:24:39Z</time>
      </trkpt>
      <trkpt lat="62.636304564776" lon="17.983291264357">
        <ele>81.4</ele>
        <time>2017-12-03T17:24:40Z</time>
      </trkpt>
      <trkpt lat="62.63630087674" lon="17.983366366181">
        <ele>81.4</ele>
        <time>2017-12-03T17:24:41Z</time>
      </trkpt>
      <trkpt lat="62.636294925591" lon="17.983456890701">
        <ele>81.4</ele>
        <time>2017-12-03T17:24:42Z</time>
      </trkpt>
      <trkpt lat="62.636286543691" lon="17.983516988924">
        <ele>81.2</ele>
        <time>2017-12-03T17:24:43Z</time>
      </trkpt>
      <trkpt lat="62.636276233954" lon="17.983576751871">
        <ele>81.2</ele>
        <time>2017-12-03T17:24:44Z</time>
      </trkpt>
      <trkpt lat="62.636268606425" lon="17.983644058528">
        <ele>81.2</ele>
        <time>2017-12-03T17:24:45Z</time>
      </trkpt>
      <trkpt lat="62.636264666932" lon="17.983712371013">
        <ele>81.6</ele>
        <time>2017-12-03T17:24:46Z</time>
      </trkpt>
      <trkpt lat="62.636256368851" lon="17.983786550828">
        <ele>81.6</ele>
        <time>2017-12-03T17:24:47Z</time>
      </trkpt>
      <trkpt lat="62.636246478209" lon="17.983851342915">
        <ele>82</ele>
        <time>2017-12-03T17:24:48Z</time>
      </trkpt>
      <trkpt lat="62.636242035802" lon="17.98389702427">
        <ele>82</ele>
        <time>2017-12-03T17:24:49Z</time>
      </trkpt>
      <trkpt lat="62.636230636418" lon="17.983960978167">
        <ele>82.2</ele>
        <time>2017-12-03T17:24:50Z</time>
      </trkpt>
      <trkpt lat="62.636220326681" lon="17.984018478001">
        <ele>82</ele>
        <time>2017-12-03T17:24:51Z</time>
      </trkpt>
      <trkpt lat="62.63621286679" lon="17.984085281744">
        <ele>82.2</ele>
        <time>2017-12-03T17:24:52Z</time>
      </trkpt>
      <trkpt lat="62.636206496546" lon="17.984146888709">
        <ele>82.2</ele>
        <time>2017-12-03T17:24:53Z</time>
      </trkpt>
      <trkpt lat="62.636206580365" lon="17.984206903113">
        <ele>82</ele>
        <time>2017-12-03T17:24:54Z</time>
      </trkpt>
      <trkpt lat="62.636204987804" lon="17.984277394892">
        <ele>82.2</ele>
        <time>2017-12-03T17:24:55Z</time>
      </trkpt>
      <trkpt lat="62.636199791026" lon="17.984341935522">
        <ele>82</ele>
        <time>2017-12-03T17:24:56Z</time>
      </trkpt>
      <trkpt lat="62.636202137958" lon="17.984406559971">
        <ele>82.2</ele>
        <time>2017-12-03T17:24:57Z</time>
      </trkpt>
      <trkpt lat="62.636202640872" lon="17.984490295152">
        <ele>82.4</ele>
        <time>2017-12-03T17:24:58Z</time>
      </trkpt>
      <trkpt lat="62.636200042483" lon="17.984550896289">
        <ele>82.4</ele>
        <time>2017-12-03T17:24:59Z</time>
      </trkpt>
      <trkpt lat="62.636190654755" lon="17.984621136611">
        <ele>82.6</ele>
        <time>2017-12-03T17:25:00Z</time>
      </trkpt>
      <trkpt lat="62.636181350846" lon="17.984670925097">
        <ele>82.6</ele>
        <time>2017-12-03T17:25:01Z</time>
      </trkpt>
      <trkpt lat="62.636172382213" lon="17.984732364424">
        <ele>82.8</ele>
        <time>2017-12-03T17:25:02Z</time>
      </trkpt>
      <trkpt lat="62.636167017797" lon="17.984795228674">
        <ele>83</ele>
        <time>2017-12-03T17:25:03Z</time>
      </trkpt>
      <trkpt lat="62.63616425177" lon="17.984860858951">
        <ele>83</ele>
        <time>2017-12-03T17:25:04Z</time>
      </trkpt>
      <trkpt lat="62.636157378612" lon="17.984934368214">
        <ele>83.2</ele>
        <time>2017-12-03T17:25:05Z</time>
      </trkpt>
      <trkpt lat="62.636151762739" lon="17.984988012374">
        <ele>83.4</ele>
        <time>2017-12-03T17:25:06Z</time>
      </trkpt>
      <trkpt lat="62.636152349472" lon="17.985037465584">
        <ele>83.4</ele>
        <time>2017-12-03T17:25:07Z</time>
      </trkpt>
      <trkpt lat="62.636150337816" lon="17.985099743101">
        <ele>83.4</ele>
        <time>2017-12-03T17:25:08Z</time>
      </trkpt>
      <trkpt lat="62.636146733599" lon="17.98515263289">
        <ele>83.6</ele>
        <time>2017-12-03T17:25:09Z</time>
      </trkpt>
      <trkpt lat="62.636145727771" lon="17.985229243456">
        <ele>83.8</ele>
        <time>2017-12-03T17:25:10Z</time>
      </trkpt>
      <trkpt lat="62.636141369183" lon="17.985281546512">
        <ele>83.6</ele>
        <time>2017-12-03T17:25:11Z</time>
      </trkpt>
      <trkpt lat="62.636138854613" lon="17.985342734382">
        <ele>83.8</ele>
        <time>2017-12-03T17:25:12Z</time>
      </trkpt>
      <trkpt lat="62.636127455229" lon="17.985413729075">
        <ele>84</ele>
        <time>2017-12-03T17:25:13Z</time>
      </trkpt>
      <trkpt lat="62.636124270107" lon="17.9854703069">
        <ele>84</ele>
        <time>2017-12-03T17:25:14Z</time>
      </trkpt>
      <trkpt lat="62.636118486596" lon="17.98552478925">
        <ele>84</ele>
        <time>2017-12-03T17:25:15Z</time>
      </trkpt>
      <trkpt lat="62.636104488823" lon="17.985576673211">
        <ele>84</ele>
        <time>2017-12-03T17:25:16Z</time>
      </trkpt>
      <trkpt lat="62.636090658688" lon="17.985632245208">
        <ele>84.2</ele>
        <time>2017-12-03T17:25:17Z</time>
      </trkpt>
      <trkpt lat="62.636075319811" lon="17.985686224644">
        <ele>84.2</ele>
        <time>2017-12-03T17:25:18Z</time>
      </trkpt>
      <trkpt lat="62.636064926255" lon="17.985731570723">
        <ele>84.2</ele>
        <time>2017-12-03T17:25:19Z</time>
      </trkpt>
      <trkpt lat="62.636053107776" lon="17.985793345326">
        <ele>84.2</ele>
        <time>2017-12-03T17:25:20Z</time>
      </trkpt>
      <trkpt lat="62.636039948193" lon="17.985831315333">
        <ele>84.2</ele>
        <time>2017-12-03T17:25:21Z</time>
      </trkpt>
      <trkpt lat="62.636018490529" lon="17.985874985032">
        <ele>84.2</ele>
        <time>2017-12-03T17:25:22Z</time>
      </trkpt>
      <trkpt lat="62.635998876883" lon="17.985909099365">
        <ele>84.2</ele>
        <time>2017-12-03T17:25:23Z</time>
      </trkpt>
      <trkpt lat="62.635971300432" lon="17.985928629192">
        <ele>84.4</ele>
        <time>2017-12-03T17:25:24Z</time>
      </trkpt>
      <trkpt lat="62.635944981266" lon="17.985957127652">
        <ele>84.6</ele>
        <time>2017-12-03T17:25:25Z</time>
      </trkpt>
      <trkpt lat="62.6359186621" lon="17.985972634167">
        <ele>84.8</ele>
        <time>2017-12-03T17:25:26Z</time>
      </trkpt>
      <trkpt lat="62.635893097305" lon="17.985982860085">
        <ele>85</ele>
        <time>2017-12-03T17:25:27Z</time>
      </trkpt>
      <trkpt lat="62.635866023768" lon="17.985994510926">
        <ele>85.2</ele>
        <time>2017-12-03T17:25:28Z</time>
      </trkpt>
      <trkpt lat="62.635839453145" lon="17.986010855631">
        <ele>85.2</ele>
        <time>2017-12-03T17:25:29Z</time>
      </trkpt>
      <trkpt lat="62.635815983825" lon="17.986037342435">
        <ele>85.4</ele>
        <time>2017-12-03T17:25:30Z</time>
      </trkpt>
      <trkpt lat="62.635792263048" lon="17.986057794271">
        <ele>85.4</ele>
        <time>2017-12-03T17:25:31Z</time>
      </trkpt>
      <trkpt lat="62.635762591122" lon="17.986090986595">
        <ele>85.6</ele>
        <time>2017-12-03T17:25:32Z</time>
      </trkpt>
      <trkpt lat="62.635739708535" lon="17.986121831987">
        <ele>85.4</ele>
        <time>2017-12-03T17:25:33Z</time>
      </trkpt>
      <trkpt lat="62.635714059921" lon="17.986155275768">
        <ele>85.6</ele>
        <time>2017-12-03T17:25:34Z</time>
      </trkpt>
      <trkpt lat="62.635694613913" lon="17.986191653214">
        <ele>85.6</ele>
        <time>2017-12-03T17:25:35Z</time>
      </trkpt>
      <trkpt lat="62.635675419362" lon="17.986225013176">
        <ele>85.6</ele>
        <time>2017-12-03T17:25:36Z</time>
      </trkpt>
      <trkpt lat="62.635652704413" lon="17.986270275436">
        <ele>85.8</ele>
        <time>2017-12-03T17:25:37Z</time>
      </trkpt>
      <trkpt lat="62.635635270061" lon="17.986306317606">
        <ele>85.8</ele>
        <time>2017-12-03T17:25:38Z</time>
      </trkpt>
      <trkpt lat="62.635615824053" lon="17.986340683396">
        <ele>86</ele>
        <time>2017-12-03T17:25:39Z</time>
      </trkpt>
      <trkpt lat="62.635601574823" lon="17.98637806667">
        <ele>86.2</ele>
        <time>2017-12-03T17:25:40Z</time>
      </trkpt>
      <trkpt lat="62.635592187095" lon="17.986433890124">
        <ele>86.2</ele>
        <time>2017-12-03T17:25:41Z</time>
      </trkpt>
      <trkpt lat="62.635579362788" lon="17.986475380529">
        <ele>86.4</ele>
        <time>2017-12-03T17:25:42Z</time>
      </trkpt>
      <trkpt lat="62.635567125214" lon="17.986520978065">
        <ele>86.4</ele>
        <time>2017-12-03T17:25:43Z</time>
      </trkpt>
      <trkpt lat="62.635557905124" lon="17.986570263637">
        <ele>86.4</ele>
        <time>2017-12-03T17:25:44Z</time>
      </trkpt>
      <trkpt lat="62.635542063333" lon="17.986609155653">
        <ele>86.4</ele>
        <time>2017-12-03T17:25:45Z</time>
      </trkpt>
      <trkpt lat="62.635532340329" lon="17.986655088465">
        <ele>86.4</ele>
        <time>2017-12-03T17:25:46Z</time>
      </trkpt>
      <trkpt lat="62.635520186574" lon="17.986693561386">
        <ele>86.6</ele>
        <time>2017-12-03T17:25:47Z</time>
      </trkpt>
      <trkpt lat="62.635507026991" lon="17.986730609384">
        <ele>86.6</ele>
        <time>2017-12-03T17:25:48Z</time>
      </trkpt>
      <trkpt lat="62.635496801073" lon="17.986764388441">
        <ele>86.8</ele>
        <time>2017-12-03T17:25:49Z</time>
      </trkpt>
      <trkpt lat="62.635476349237" lon="17.986808980149">
        <ele>87</ele>
        <time>2017-12-03T17:25:50Z</time>
      </trkpt>
      <trkpt lat="62.635464866034" lon="17.986846028147">
        <ele>87</ele>
        <time>2017-12-03T17:25:51Z</time>
      </trkpt>
      <trkpt lat="62.63545681941" lon="17.986887518552">
        <ele>87.2</ele>
        <time>2017-12-03T17:25:52Z</time>
      </trkpt>
      <trkpt lat="62.635431757529" lon="17.986934289554">
        <ele>87.4</ele>
        <time>2017-12-03T17:25:53Z</time>
      </trkpt>
      <trkpt lat="62.635409294037" lon="17.986973768303">
        <ele>87.4</ele>
        <time>2017-12-03T17:25:54Z</time>
      </trkpt>
      <trkpt lat="62.635394038979" lon="17.987008553188">
        <ele>87.6</ele>
        <time>2017-12-03T17:25:55Z</time>
      </trkpt>
      <trkpt lat="62.635376856084" lon="17.987050881783">
        <ele>87.8</ele>
        <time>2017-12-03T17:25:56Z</time>
      </trkpt>
      <trkpt lat="62.635362690673" lon="17.987099412984">
        <ele>88</ele>
        <time>2017-12-03T17:25:57Z</time>
      </trkpt>
      <trkpt lat="62.635344334312" lon="17.987147022176">
        <ele>88</ele>
        <time>2017-12-03T17:25:58Z</time>
      </trkpt>
      <trkpt lat="62.635320697354" lon="17.987190524237">
        <ele>88.2</ele>
        <time>2017-12-03T17:25:59Z</time>
      </trkpt>
      <trkpt lat="62.635304436468" lon="17.987234948307">
        <ele>88.2</ele>
        <time>2017-12-03T17:26:00Z</time>
      </trkpt>
      <trkpt lat="62.635283062623" lon="17.987278366549">
        <ele>88.4</ele>
        <time>2017-12-03T17:26:01Z</time>
      </trkpt>
      <trkpt lat="62.63526319752" lon="17.987324802275">
        <ele>88.4</ele>
        <time>2017-12-03T17:26:02Z</time>
      </trkpt>
      <trkpt lat="62.635243835331" lon="17.987356821133">
        <ele>88.4</ele>
        <time>2017-12-03T17:26:03Z</time>
      </trkpt>
      <trkpt lat="62.635226987712" lon="17.987390181095">
        <ele>88.4</ele>
        <time>2017-12-03T17:26:04Z</time>
      </trkpt>
      <trkpt lat="62.635208882808" lon="17.987428570197">
        <ele>88.4</ele>
        <time>2017-12-03T17:26:05Z</time>
      </trkpt>
      <trkpt lat="62.63519195137" lon="17.987463271263">
        <ele>88.6</ele>
        <time>2017-12-03T17:26:06Z</time>
      </trkpt>
      <trkpt lat="62.635174181742" lon="17.987500235442">
        <ele>88.8</ele>
        <time>2017-12-03T17:26:07Z</time>
      </trkpt>
      <trkpt lat="62.635157753218" lon="17.987533511585">
        <ele>89</ele>
        <time>2017-12-03T17:26:08Z</time>
      </trkpt>
      <trkpt lat="62.63514417454" lon="17.987562764416">
        <ele>89</ele>
        <time>2017-12-03T17:26:09Z</time>
      </trkpt>
      <trkpt lat="62.63512405798" lon="17.98759679493">
        <ele>89.2</ele>
        <time>2017-12-03T17:26:10Z</time>
      </trkpt>
      <trkpt lat="62.635101594488" lon="17.987637950059">
        <ele>89.2</ele>
        <time>2017-12-03T17:26:11Z</time>
      </trkpt>
      <trkpt lat="62.635085836516" lon="17.987682709405">
        <ele>89.4</ele>
        <time>2017-12-03T17:26:12Z</time>
      </trkpt>
      <trkpt lat="62.635066474327" lon="17.98772587619">
        <ele>89.4</ele>
        <time>2017-12-03T17:26:13Z</time>
      </trkpt>
      <trkpt lat="62.635045854853" lon="17.987766193129">
        <ele>89.6</ele>
        <time>2017-12-03T17:26:14Z</time>
      </trkpt>
      <trkpt lat="62.635026241207" lon="17.987800978014">
        <ele>89.8</ele>
        <time>2017-12-03T17:26:15Z</time>
      </trkpt>
      <trkpt lat="62.635004783543" lon="17.98784489917">
        <ele>89.8</ele>
        <time>2017-12-03T17:26:16Z</time>
      </trkpt>
      <trkpt lat="62.634986008087" lon="17.98787758858">
        <ele>89.8</ele>
        <time>2017-12-03T17:26:17Z</time>
      </trkpt>
      <trkpt lat="62.634965472432" lon="17.987903069556">
        <ele>90</ele>
        <time>2017-12-03T17:26:18Z</time>
      </trkpt>
      <trkpt lat="62.634947786623" lon="17.987931148921">
        <ele>90.2</ele>
        <time>2017-12-03T17:26:19Z</time>
      </trkpt>
      <trkpt lat="62.634923982027" lon="17.987959395924">
        <ele>90.2</ele>
        <time>2017-12-03T17:26:20Z</time>
      </trkpt>
      <trkpt lat="62.634910151892" lon="17.987981943235">
        <ele>90.4</ele>
        <time>2017-12-03T17:26:21Z</time>
      </trkpt>
      <trkpt lat="62.634888275133" lon="17.988011363704">
        <ele>90.4</ele>
        <time>2017-12-03T17:26:22Z</time>
      </trkpt>
      <trkpt lat="62.634867823297" lon="17.988036257947">
        <ele>90.6</ele>
        <time>2017-12-03T17:26:23Z</time>
      </trkpt>
      <trkpt lat="62.634847790556" lon="17.988062493294">
        <ele>90.6</ele>
        <time>2017-12-03T17:26:24Z</time>
      </trkpt>
      <trkpt lat="62.634823315408" lon="17.988077999809">
        <ele>90.8</ele>
        <time>2017-12-03T17:26:25Z</time>
      </trkpt>
      <trkpt lat="62.634798924079" lon="17.988089985926">
        <ele>91</ele>
        <time>2017-12-03T17:26:26Z</time>
      </trkpt>
      <trkpt lat="62.634777298777" lon="17.988096523808">
        <ele>91.2</ele>
        <time>2017-12-03T17:26:27Z</time>
      </trkpt>
      <trkpt lat="62.634754164733" lon="17.98811228178">
        <ele>91.2</ele>
        <time>2017-12-03T17:26:28Z</time>
      </trkpt>
      <trkpt lat="62.634731114508" lon="17.988111359771">
        <ele>91.2</ele>
        <time>2017-12-03T17:26:29Z</time>
      </trkpt>
      <trkpt lat="62.63470831574" lon="17.988116808006">
        <ele>91.4</ele>
        <time>2017-12-03T17:26:30Z</time>
      </trkpt>
      <trkpt lat="62.63468317004" lon="17.988120160766">
        <ele>91.4</ele>
        <time>2017-12-03T17:26:31Z</time>
      </trkpt>
      <trkpt lat="62.634655342132" lon="17.98813156015">
        <ele>91.6</ele>
        <time>2017-12-03T17:26:32Z</time>
      </trkpt>
      <trkpt lat="62.634633968287" lon="17.988136086376">
        <ele>91.6</ele>
        <time>2017-12-03T17:26:33Z</time>
      </trkpt>
      <trkpt lat="62.634609912234" lon="17.98813826567">
        <ele>91.8</ele>
        <time>2017-12-03T17:26:34Z</time>
      </trkpt>
      <trkpt lat="62.634589460398" lon="17.988152263443">
        <ele>92</ele>
        <time>2017-12-03T17:26:35Z</time>
      </trkpt>
      <trkpt lat="62.634573870064" lon="17.988166345035">
        <ele>92</ele>
        <time>2017-12-03T17:26:36Z</time>
      </trkpt>
      <trkpt lat="62.634548892002" lon="17.988172966736">
        <ele>92.2</ele>
        <time>2017-12-03T17:26:37Z</time>
      </trkpt>
      <trkpt lat="62.634514190936" lon="17.988183360292">
        <ele>92.4</ele>
        <time>2017-12-03T17:26:38Z</time>
      </trkpt>
      <trkpt lat="62.634490051064" lon="17.988191742192">
        <ele>92.4</ele>
        <time>2017-12-03T17:26:39Z</time>
      </trkpt>
      <trkpt lat="62.634463480441" lon="17.988190904002">
        <ele>92.4</ele>
        <time>2017-12-03T17:26:40Z</time>
      </trkpt>
      <trkpt lat="62.634439172931" lon="17.988199369721">
        <ele>92.4</ele>
        <time>2017-12-03T17:26:41Z</time>
      </trkpt>
      <trkpt lat="62.634412518489" lon="17.98820783544">
        <ele>92.4</ele>
        <time>2017-12-03T17:26:42Z</time>
      </trkpt>
      <trkpt lat="62.634386869875" lon="17.988224683059">
        <ele>92.6</ele>
        <time>2017-12-03T17:26:43Z</time>
      </trkpt>
      <trkpt lat="62.634358371415" lon="17.988226107982">
        <ele>92.6</ele>
        <time>2017-12-03T17:26:44Z</time>
      </trkpt>
      <trkpt lat="62.634338003398" lon="17.988226946172">
        <ele>92.8</ele>
        <time>2017-12-03T17:26:45Z</time>
      </trkpt>
      <trkpt lat="62.634312103327" lon="17.988222336127">
        <ele>93</ele>
        <time>2017-12-03T17:26:46Z</time>
      </trkpt>
      <trkpt lat="62.634277653718" lon="17.988235663348">
        <ele>93</ele>
        <time>2017-12-03T17:26:47Z</time>
      </trkpt>
      <trkpt lat="62.634249071439" lon="17.988237004452">
        <ele>93.2</ele>
        <time>2017-12-03T17:26:48Z</time>
      </trkpt>
      <trkpt lat="62.634215879115" lon="17.988229796018">
        <ele>93.2</ele>
        <time>2017-12-03T17:26:49Z</time>
      </trkpt>
      <trkpt lat="62.63418528518" lon="17.988235328072">
        <ele>93.2</ele>
        <time>2017-12-03T17:26:50Z</time>
      </trkpt>
      <trkpt lat="62.634156451444" lon="17.988225185973">
        <ele>93.2</ele>
        <time>2017-12-03T17:26:51Z</time>
      </trkpt>
      <trkpt lat="62.634120073998" lon="17.988206326698">
        <ele>93.2</ele>
        <time>2017-12-03T17:26:52Z</time>
      </trkpt>
      <trkpt lat="62.63408889333" lon="17.988177073867">
        <ele>93.4</ele>
        <time>2017-12-03T17:26:53Z</time>
      </trkpt>
      <trkpt lat="62.634063244716" lon="17.988156119117">
        <ele>93.4</ele>
        <time>2017-12-03T17:26:54Z</time>
      </trkpt>
      <trkpt lat="62.634034746256" lon="17.988132985073">
        <ele>93.4</ele>
        <time>2017-12-03T17:26:55Z</time>
      </trkpt>
      <trkpt lat="62.634013959144" lon="17.988117646196">
        <ele>93.4</ele>
        <time>2017-12-03T17:26:56Z</time>
      </trkpt>
      <trkpt lat="62.633991914747" lon="17.988095098885">
        <ele>93.6</ele>
        <time>2017-12-03T17:26:57Z</time>
      </trkpt>
      <trkpt lat="62.633963919201" lon="17.988076071972">
        <ele>93.8</ele>
        <time>2017-12-03T17:26:58Z</time>
      </trkpt>
      <trkpt lat="62.633938102949" lon="17.988067438615">
        <ele>93.8</ele>
        <time>2017-12-03T17:26:59Z</time>
      </trkpt>
      <trkpt lat="62.633907592833" lon="17.988052351195">
        <ele>93.8</ele>
        <time>2017-12-03T17:27:00Z</time>
      </trkpt>
      <trkpt lat="62.633876076889" lon="17.988043298743">
        <ele>94.2</ele>
        <time>2017-12-03T17:27:01Z</time>
      </trkpt>
      <trkpt lat="62.633845566773" lon="17.988025529115">
        <ele>94.2</ele>
        <time>2017-12-03T17:27:02Z</time>
      </trkpt>
      <trkpt lat="62.633811871535" lon="17.988020416156">
        <ele>94.4</ele>
        <time>2017-12-03T17:27:03Z</time>
      </trkpt>
      <trkpt lat="62.633781864333" lon="17.987998539397">
        <ele>94.4</ele>
        <time>2017-12-03T17:27:04Z</time>
      </trkpt>
      <trkpt lat="62.633743391412" lon="17.987989989859">
        <ele>94.6</ele>
        <time>2017-12-03T17:27:05Z</time>
      </trkpt>
      <trkpt lat="62.633715479685" lon="17.987958641553">
        <ele>94.8</ele>
        <time>2017-12-03T17:27:06Z</time>
      </trkpt>
      <trkpt lat="62.633684131379" lon="17.987933412034">
        <ele>94.8</ele>
        <time>2017-12-03T17:27:07Z</time>
      </trkpt>
      <trkpt lat="62.633656806385" lon="17.987898710968">
        <ele>94.8</ele>
        <time>2017-12-03T17:27:08Z</time>
      </trkpt>
      <trkpt lat="62.633637779472" lon="17.987875325467">
        <ele>94.8</ele>
        <time>2017-12-03T17:27:09Z</time>
      </trkpt>
      <trkpt lat="62.633614813066" lon="17.987846994645">
        <ele>94.8</ele>
        <time>2017-12-03T17:27:10Z</time>
      </trkpt>
      <trkpt lat="62.633589164452" lon="17.987821178393">
        <ele>95</ele>
        <time>2017-12-03T17:27:11Z</time>
      </trkpt>
      <trkpt lat="62.633569131711" lon="17.987796535607">
        <ele>94.8</ele>
        <time>2017-12-03T17:27:12Z</time>
      </trkpt>
      <trkpt lat="62.633548931332" lon="17.987761834541">
        <ele>95</ele>
        <time>2017-12-03T17:27:13Z</time>
      </trkpt>
      <trkpt lat="62.633523450356" lon="17.987728642217">
        <ele>95.2</ele>
        <time>2017-12-03T17:27:14Z</time>
      </trkpt>
      <trkpt lat="62.633499310484" lon="17.987699221748">
        <ele>95.4</ele>
        <time>2017-12-03T17:27:15Z</time>
      </trkpt>
      <trkpt lat="62.633474332422" lon="17.987660916465">
        <ele>95.6</ele>
        <time>2017-12-03T17:27:16Z</time>
      </trkpt>
      <trkpt lat="62.63344516341" lon="17.987623449372">
        <ele>95.8</ele>
        <time>2017-12-03T17:27:17Z</time>
      </trkpt>
      <trkpt lat="62.633420772081" lon="17.987582964795">
        <ele>95.8</ele>
        <time>2017-12-03T17:27:18Z</time>
      </trkpt>
      <trkpt lat="62.63340157753" lon="17.987547425539">
        <ele>96</ele>
        <time>2017-12-03T17:27:19Z</time>
      </trkpt>
      <trkpt lat="62.633384394635" lon="17.987511802464">
        <ele>96.4</ele>
        <time>2017-12-03T17:27:20Z</time>
      </trkpt>
      <trkpt lat="62.633369055758" lon="17.987477017579">
        <ele>96.4</ele>
        <time>2017-12-03T17:27:21Z</time>
      </trkpt>
      <trkpt lat="62.633348101008" lon="17.987421948496">
        <ele>96.6</ele>
        <time>2017-12-03T17:27:22Z</time>
      </trkpt>
      <trkpt lat="62.63333033138" lon="17.987373920209">
        <ele>97</ele>
        <time>2017-12-03T17:27:23Z</time>
      </trkpt>
      <trkpt lat="62.633306694422" lon="17.987310888321">
        <ele>97.2</ele>
        <time>2017-12-03T17:27:24Z</time>
      </trkpt>
      <trkpt lat="62.633286410224" lon="17.987240396542">
        <ele>97.2</ele>
        <time>2017-12-03T17:27:25Z</time>
      </trkpt>
      <trkpt lat="62.633268053863" lon="17.987134868421">
        <ele>97.2</ele>
        <time>2017-12-03T17:27:26Z</time>
      </trkpt>
      <trkpt lat="62.633246260923" lon="17.987030849042">
        <ele>97.2</ele>
        <time>2017-12-03T17:27:27Z</time>
      </trkpt>
      <trkpt lat="62.633222372508" lon="17.986910736415">
        <ele>96.6</ele>
        <time>2017-12-03T17:27:28Z</time>
      </trkpt>
      <trkpt lat="62.633204351423" lon="17.986796407299">
        <ele>95.6</ele>
        <time>2017-12-03T17:27:29Z</time>
      </trkpt>
      <trkpt lat="62.633188509632" lon="17.986683754563">
        <ele>94.8</ele>
        <time>2017-12-03T17:27:30Z</time>
      </trkpt>
      <trkpt lat="62.633178702809" lon="17.986581327745">
        <ele>94.2</ele>
        <time>2017-12-03T17:27:31Z</time>
      </trkpt>
      <trkpt lat="62.633171494375" lon="17.986476218719">
        <ele>93.6</ele>
        <time>2017-12-03T17:27:32Z</time>
      </trkpt>
      <trkpt lat="62.633165459407" lon="17.986365326182">
        <ele>93</ele>
        <time>2017-12-03T17:27:33Z</time>
      </trkpt>
      <trkpt lat="62.633161436095" lon="17.986238508035">
        <ele>92.8</ele>
        <time>2017-12-03T17:27:34Z</time>
      </trkpt>
      <trkpt lat="62.633160011172" lon="17.986099452314">
        <ele>92.6</ele>
        <time>2017-12-03T17:27:35Z</time>
      </trkpt>
      <trkpt lat="62.633161017" lon="17.985972466529">
        <ele>92.2</ele>
        <time>2017-12-03T17:27:36Z</time>
      </trkpt>
      <trkpt lat="62.633163699208" lon="17.985831818247">
        <ele>91.8</ele>
        <time>2017-12-03T17:27:37Z</time>
      </trkpt>
      <trkpt lat="62.633167303425" lon="17.985702820806">
        <ele>91.4</ele>
        <time>2017-12-03T17:27:38Z</time>
      </trkpt>
      <trkpt lat="62.633169315081" lon="17.985583630188">
        <ele>91</ele>
        <time>2017-12-03T17:27:39Z</time>
      </trkpt>
      <trkpt lat="62.633171494375" lon="17.985447927227">
        <ele>90.8</ele>
        <time>2017-12-03T17:27:40Z</time>
      </trkpt>
      <trkpt lat="62.633180379189" lon="17.985306692212">
        <ele>90.6</ele>
        <time>2017-12-03T17:27:41Z</time>
      </trkpt>
      <trkpt lat="62.633198903188" lon="17.985150453596">
        <ele>90.4</ele>
        <time>2017-12-03T17:27:42Z</time>
      </trkpt>
      <trkpt lat="62.633219187386" lon="17.984994717894">
        <ele>90.2</ele>
        <time>2017-12-03T17:27:43Z</time>
      </trkpt>
      <trkpt lat="62.633243830172" lon="17.984835713251">
        <ele>89.6</ele>
        <time>2017-12-03T17:27:44Z</time>
      </trkpt>
      <trkpt lat="62.633268975872" lon="17.984704452697">
        <ele>89</ele>
        <time>2017-12-03T17:27:45Z</time>
      </trkpt>
      <trkpt lat="62.633296887599" lon="17.984569587926">
        <ele>88.4</ele>
        <time>2017-12-03T17:27:46Z</time>
      </trkpt>
      <trkpt lat="62.633326391887" lon="17.984438746467">
        <ele>87.8</ele>
        <time>2017-12-03T17:27:47Z</time>
      </trkpt>
      <trkpt lat="62.63334877156" lon="17.984319388211">
        <ele>87.6</ele>
        <time>2017-12-03T17:27:48Z</time>
      </trkpt>
      <trkpt lat="62.633361931143" lon="17.984206232561">
        <ele>87.6</ele>
        <time>2017-12-03T17:27:49Z</time>
      </trkpt>
      <trkpt lat="62.633374084898" lon="17.98408142607">
        <ele>87.6</ele>
        <time>2017-12-03T17:27:50Z</time>
      </trkpt>
      <trkpt lat="62.633382382979" lon="17.983985285677">
        <ele>87.6</ele>
        <time>2017-12-03T17:27:51Z</time>
      </trkpt>
      <trkpt lat="62.633403673005" lon="17.983874057864">
        <ele>87.6</ele>
        <time>2017-12-03T17:27:52Z</time>
      </trkpt>
      <trkpt lat="62.633417754597" lon="17.983774564711">
        <ele>87.8</ele>
        <time>2017-12-03T17:27:53Z</time>
      </trkpt>
      <trkpt lat="62.633434769854" lon="17.983682866725">
        <ele>88</ele>
        <time>2017-12-03T17:27:54Z</time>
      </trkpt>
      <trkpt lat="62.633440637184" lon="17.983587815979">
        <ele>88.2</ele>
        <time>2017-12-03T17:27:55Z</time>
      </trkpt>
      <trkpt lat="62.633457987717" lon="17.983498632563">
        <ele>88.6</ele>
        <time>2017-12-03T17:27:56Z</time>
      </trkpt>
      <trkpt lat="62.633475086793" lon="17.983412215174">
        <ele>89.4</ele>
        <time>2017-12-03T17:27:57Z</time>
      </trkpt>
      <trkpt lat="62.633491347679" lon="17.983318337894">
        <ele>89.8</ele>
        <time>2017-12-03T17:27:58Z</time>
      </trkpt>
      <trkpt lat="62.633499226665" lon="17.98323569236">
        <ele>90</ele>
        <time>2017-12-03T17:27:59Z</time>
      </trkpt>
      <trkpt lat="62.633511715696" lon="17.983148269143">
        <ele>90</ele>
        <time>2017-12-03T17:28:00Z</time>
      </trkpt>
      <trkpt lat="62.633528563315" lon="17.9830647016">
        <ele>90</ele>
        <time>2017-12-03T17:28:01Z</time>
      </trkpt>
      <trkpt lat="62.633546919676" lon="17.982953054692">
        <ele>89.6</ele>
        <time>2017-12-03T17:28:02Z</time>
      </trkpt>
      <trkpt lat="62.633560246897" lon="17.982881473266">
        <ele>89.8</ele>
        <time>2017-12-03T17:28:03Z</time>
      </trkpt>
      <trkpt lat="62.633576507783" lon="17.982810394754">
        <ele>89.6</ele>
        <time>2017-12-03T17:28:04Z</time>
      </trkpt>
      <trkpt lat="62.633591427565" lon="17.982716349836">
        <ele>89.6</ele>
        <time>2017-12-03T17:28:05Z</time>
      </trkpt>
      <trkpt lat="62.633606850261" lon="17.982648372627">
        <ele>89.4</ele>
        <time>2017-12-03T17:28:06Z</time>
      </trkpt>
      <trkpt lat="62.633626463907" lon="17.982565056541">
        <ele>89.4</ele>
        <time>2017-12-03T17:28:07Z</time>
      </trkpt>
      <trkpt lat="62.633643395345" lon="17.982501940834">
        <ele>89.6</ele>
        <time>2017-12-03T17:28:08Z</time>
      </trkpt>
      <trkpt lat="62.633655297643" lon="17.98242348625">
        <ele>89.6</ele>
        <time>2017-12-03T17:28:09Z</time>
      </trkpt>
      <trkpt lat="62.633662086982" lon="17.982331872083">
        <ele>89.8</ele>
        <time>2017-12-03T17:28:10Z</time>
      </trkpt>
      <trkpt lat="62.633663344267" lon="17.982255596793">
        <ele>89.8</ele>
        <time>2017-12-03T17:28:11Z</time>
      </trkpt>
      <trkpt lat="62.633665858837" lon="17.982160210771">
        <ele>90</ele>
        <time>2017-12-03T17:28:12Z</time>
      </trkpt>
      <trkpt lat="62.633667451398" lon="17.982081085635">
        <ele>90</ele>
        <time>2017-12-03T17:28:13Z</time>
      </trkpt>
      <trkpt lat="62.633675498022" lon="17.981998356282">
        <ele>90</ele>
        <time>2017-12-03T17:28:14Z</time>
      </trkpt>
      <trkpt lat="62.633676084755" lon="17.981916465119">
        <ele>89.8</ele>
        <time>2017-12-03T17:28:15Z</time>
      </trkpt>
      <trkpt lat="62.633680191886" lon="17.981843291132">
        <ele>90</ele>
        <time>2017-12-03T17:28:16Z</time>
      </trkpt>
      <trkpt lat="62.633679269877" lon="17.981762489616">
        <ele>90</ele>
        <time>2017-12-03T17:28:17Z</time>
      </trkpt>
      <trkpt lat="62.633676084755" lon="17.981694093312">
        <ele>90</ele>
        <time>2017-12-03T17:28:18Z</time>
      </trkpt>
      <trkpt lat="62.633673905461" lon="17.981617566565">
        <ele>90.2</ele>
        <time>2017-12-03T17:28:19Z</time>
      </trkpt>
      <trkpt lat="62.633679353696" lon="17.981526958226">
        <ele>90.4</ele>
        <time>2017-12-03T17:28:20Z</time>
      </trkpt>
      <trkpt lat="62.633681197714" lon="17.981456047352">
        <ele>90.2</ele>
        <time>2017-12-03T17:28:21Z</time>
      </trkpt>
      <trkpt lat="62.633679772791" lon="17.981364600823">
        <ele>90.4</ele>
        <time>2017-12-03T17:28:22Z</time>
      </trkpt>
      <trkpt lat="62.633681616809" lon="17.981291510655">
        <ele>90.4</ele>
        <time>2017-12-03T17:28:23Z</time>
      </trkpt>
      <trkpt lat="62.633694776392" lon="17.98121649265">
        <ele>90.4</ele>
        <time>2017-12-03T17:28:24Z</time>
      </trkpt>
      <trkpt lat="62.633709779993" lon="17.981147090518">
        <ele>90.2</ele>
        <time>2017-12-03T17:28:25Z</time>
      </trkpt>
      <trkpt lat="62.633722771938" lon="17.981090093598">
        <ele>90.2</ele>
        <time>2017-12-03T17:28:26Z</time>
      </trkpt>
      <trkpt lat="62.63373517715" lon="17.981031839393">
        <ele>90.2</ele>
        <time>2017-12-03T17:28:27Z</time>
      </trkpt>
      <trkpt lat="62.633744313421" lon="17.980951205515">
        <ele>90.2</ele>
        <time>2017-12-03T17:28:28Z</time>
      </trkpt>
      <trkpt lat="62.633757389185" lon="17.980894962966">
        <ele>90.2</ele>
        <time>2017-12-03T17:28:29Z</time>
      </trkpt>
      <trkpt lat="62.633773482433" lon="17.980840648254">
        <ele>90.4</ele>
        <time>2017-12-03T17:28:30Z</time>
      </trkpt>
      <trkpt lat="62.633795191554" lon="17.980789770121">
        <ele>90.4</ele>
        <time>2017-12-03T17:28:31Z</time>
      </trkpt>
      <trkpt lat="62.633826372222" lon="17.980719948894">
        <ele>90.8</ele>
        <time>2017-12-03T17:28:32Z</time>
      </trkpt>
      <trkpt lat="62.633847578429" lon="17.980664376897">
        <ele>90.8</ele>
        <time>2017-12-03T17:28:33Z</time>
      </trkpt>
      <trkpt lat="62.633866353885" lon="17.98060209938">
        <ele>90.8</ele>
        <time>2017-12-03T17:28:34Z</time>
      </trkpt>
      <trkpt lat="62.633888314463" lon="17.98052750047">
        <ele>91</ele>
        <time>2017-12-03T17:28:35Z</time>
      </trkpt>
      <trkpt lat="62.633906587005" lon="17.980478131079">
        <ele>91</ele>
        <time>2017-12-03T17:28:36Z</time>
      </trkpt>
      <trkpt lat="62.633928547583" lon="17.980421804711">
        <ele>91</ele>
        <time>2017-12-03T17:28:37Z</time>
      </trkpt>
      <trkpt lat="62.633957548957" lon="17.980365813619">
        <ele>91.2</ele>
        <time>2017-12-03T17:28:38Z</time>
      </trkpt>
      <trkpt lat="62.633983113752" lon="17.980305799215">
        <ele>91.2</ele>
        <time>2017-12-03T17:28:39Z</time>
      </trkpt>
      <trkpt lat="62.634005241968" lon="17.980256848919">
        <ele>91.4</ele>
        <time>2017-12-03T17:28:40Z</time>
      </trkpt>
      <trkpt lat="62.634033237514" lon="17.980213765953">
        <ele>91.4</ele>
        <time>2017-12-03T17:28:41Z</time>
      </trkpt>
      <trkpt lat="62.634067603304" lon="17.980164228924">
        <ele>91.6</ele>
        <time>2017-12-03T17:28:42Z</time>
      </trkpt>
      <trkpt lat="62.634099370705" lon="17.980120223949">
        <ele>91.6</ele>
        <time>2017-12-03T17:28:43Z</time>
      </trkpt>
      <trkpt lat="62.634127533889" lon="17.980055515681">
        <ele>91.4</ele>
        <time>2017-12-03T17:28:44Z</time>
      </trkpt>
      <trkpt lat="62.634152763408" lon="17.980004721367">
        <ele>91.4</ele>
        <time>2017-12-03T17:28:45Z</time>
      </trkpt>
      <trkpt lat="62.634181513325" lon="17.979947640628">
        <ele>91.4</ele>
        <time>2017-12-03T17:28:46Z</time>
      </trkpt>
      <trkpt lat="62.634211688165" lon="17.979872287347">
        <ele>91.4</ele>
        <time>2017-12-03T17:28:47Z</time>
      </trkpt>
      <trkpt lat="62.634233564924" lon="17.979808752545">
        <ele>91.2</ele>
        <time>2017-12-03T17:28:48Z</time>
      </trkpt>
      <trkpt lat="62.634254184398" lon="17.979747061761">
        <ele>91.2</ele>
        <time>2017-12-03T17:28:49Z</time>
      </trkpt>
      <trkpt lat="62.634271115836" lon="17.979658967992">
        <ele>91.4</ele>
        <time>2017-12-03T17:28:50Z</time>
      </trkpt>
      <trkpt lat="62.634279916831" lon="17.979595265552">
        <ele>91.2</ele>
        <time>2017-12-03T17:28:51Z</time>
      </trkpt>
      <trkpt lat="62.634295842441" lon="17.979517649158">
        <ele>91.2</ele>
        <time>2017-12-03T17:28:52Z</time>
      </trkpt>
      <trkpt lat="62.634299027563" lon="17.979443804619">
        <ele>91.2</ele>
        <time>2017-12-03T17:28:53Z</time>
      </trkpt>
      <trkpt lat="62.634309756395" lon="17.97936241637">
        <ele>91.2</ele>
        <time>2017-12-03T17:28:54Z</time>
      </trkpt>
      <trkpt lat="62.634323502711" lon="17.979280189931">
        <ele>91.4</ele>
        <time>2017-12-03T17:28:55Z</time>
      </trkpt>
      <trkpt lat="62.634333560991" lon="17.979215816939">
        <ele>91.6</ele>
        <time>2017-12-03T17:28:56Z</time>
      </trkpt>
      <trkpt lat="62.634353677551" lon="17.979151779223">
        <ele>91.4</ele>
        <time>2017-12-03T17:28:57Z</time>
      </trkpt>
      <trkpt lat="62.634377482147" lon="17.97907072625">
        <ele>91.4</ele>
        <time>2017-12-03T17:28:58Z</time>
      </trkpt>
      <trkpt lat="62.634397011974" lon="17.978999312462">
        <ele>91.4</ele>
        <time>2017-12-03T17:28:59Z</time>
      </trkpt>
      <trkpt lat="62.634413691955" lon="17.978937956954">
        <ele>91.4</ele>
        <time>2017-12-03T17:29:00Z</time>
      </trkpt>
      <trkpt lat="62.634429785203" lon="17.978881462948">
        <ele>91.2</ele>
        <time>2017-12-03T17:29:01Z</time>
      </trkpt>
      <trkpt lat="62.634448309202" lon="17.978829578987">
        <ele>91.2</ele>
        <time>2017-12-03T17:29:02Z</time>
      </trkpt>
      <trkpt lat="62.634469766866" lon="17.978791022247">
        <ele>91.2</ele>
        <time>2017-12-03T17:29:03Z</time>
      </trkpt>
      <trkpt lat="62.634509413253" lon="17.978748945109">
        <ele>91.2</ele>
        <time>2017-12-03T17:29:05Z</time>
      </trkpt>
      <trkpt lat="62.634523494845" lon="17.978749783299">
        <ele>91</ele>
        <time>2017-12-03T17:29:06Z</time>
      </trkpt>
      <trkpt lat="62.634536151514" lon="17.978753219878">
        <ele>90.8</ele>
        <time>2017-12-03T17:29:07Z</time>
      </trkpt>
      <trkpt lat="62.634545371604" lon="17.978754141887">
        <ele>90.8</ele>
        <time>2017-12-03T17:29:08Z</time>
      </trkpt>
      <trkpt lat="62.634553502047" lon="17.978754644801">
        <ele>91</ele>
        <time>2017-12-03T17:29:09Z</time>
      </trkpt>
      <trkpt lat="62.634565571983" lon="17.978751543498">
        <ele>91.2</ele>
        <time>2017-12-03T17:29:10Z</time>
      </trkpt>
      <trkpt lat="62.634579150661" lon="17.978755231534">
        <ele>91.4</ele>
        <time>2017-12-03T17:29:11Z</time>
      </trkpt>
      <trkpt lat="62.634602536162" lon="17.978765876547">
        <ele>91.4</ele>
        <time>2017-12-03T17:29:12Z</time>
      </trkpt>
      <trkpt lat="62.634629693518" lon="17.978780796329">
        <ele>91.4</ele>
        <time>2017-12-03T17:29:13Z</time>
      </trkpt>
      <trkpt lat="62.634658778711" lon="17.978800074699">
        <ele>91.4</ele>
        <time>2017-12-03T17:29:14Z</time>
      </trkpt>
      <trkpt lat="62.634687277171" lon="17.97881926925">
        <ele>91.2</ele>
        <time>2017-12-03T17:29:15Z</time>
      </trkpt>
      <trkpt lat="62.634718122563" lon="17.978839721086">
        <ele>91</ele>
        <time>2017-12-03T17:29:16Z</time>
      </trkpt>
      <trkpt lat="62.634752991267" lon="17.978862352216">
        <ele>90.8</ele>
        <time>2017-12-03T17:29:17Z</time>
      </trkpt>
      <trkpt lat="62.634784171935" lon="17.978882552595">
        <ele>90.8</ele>
        <time>2017-12-03T17:29:18Z</time>
      </trkpt>
      <trkpt lat="62.634814179137" lon="17.9788905154">
        <ele>90.8</ele>
        <time>2017-12-03T17:29:19Z</time>
      </trkpt>
      <trkpt lat="62.63484074976" lon="17.978907027743">
        <ele>90.8</ele>
        <time>2017-12-03T17:29:20Z</time>
      </trkpt>
      <trkpt lat="62.634877378663" lon="17.978923791543">
        <ele>91</ele>
        <time>2017-12-03T17:29:21Z</time>
      </trkpt>
      <trkpt lat="62.634900345069" lon="17.978942818456">
        <ele>90.8</ele>
        <time>2017-12-03T17:29:22Z</time>
      </trkpt>
      <trkpt lat="62.634924904036" lon="17.97895505603">
        <ele>90.6</ele>
        <time>2017-12-03T17:29:23Z</time>
      </trkpt>
      <trkpt lat="62.634945020596" lon="17.978968299432">
        <ele>90.4</ele>
        <time>2017-12-03T17:29:24Z</time>
      </trkpt>
      <trkpt lat="62.634966394441" lon="17.978972155106">
        <ele>90.4</ele>
        <time>2017-12-03T17:29:25Z</time>
      </trkpt>
      <trkpt lat="62.634983744974" lon="17.978983219214">
        <ele>90</ele>
        <time>2017-12-03T17:29:26Z</time>
      </trkpt>
      <trkpt lat="62.635004532086" lon="17.978990762924">
        <ele>89.8</ele>
        <time>2017-12-03T17:29:27Z</time>
      </trkpt>
      <trkpt lat="62.635027917587" lon="17.979000150652">
        <ele>89.8</ele>
        <time>2017-12-03T17:29:28Z</time>
      </trkpt>
      <trkpt lat="62.635051051631" lon="17.979013142597">
        <ele>89.8</ele>
        <time>2017-12-03T17:29:29Z</time>
      </trkpt>
      <trkpt lat="62.635077370797" lon="17.979023117058">
        <ele>89.8</ele>
        <time>2017-12-03T17:29:30Z</time>
      </trkpt>
      <trkpt lat="62.635103522325" lon="17.979031834234">
        <ele>89.8</ele>
        <time>2017-12-03T17:29:31Z</time>
      </trkpt>
      <trkpt lat="62.635134200079" lon="17.979042814523">
        <ele>89.8</ele>
        <time>2017-12-03T17:29:32Z</time>
      </trkpt>
      <trkpt lat="62.635165380747" lon="17.97905228607">
        <ele>89.6</ele>
        <time>2017-12-03T17:29:33Z</time>
      </trkpt>
      <trkpt lat="62.635195639406" lon="17.979059997418">
        <ele>89.6</ele>
        <time>2017-12-03T17:29:34Z</time>
      </trkpt>
      <trkpt lat="62.635226903893" lon="17.979067708766">
        <ele>89.4</ele>
        <time>2017-12-03T17:29:35Z</time>
      </trkpt>
      <trkpt lat="62.635255821448" lon="17.979073659915">
        <ele>89.4</ele>
        <time>2017-12-03T17:29:36Z</time>
      </trkpt>
      <trkpt lat="62.635287672668" lon="17.979078437598">
        <ele>89.2</ele>
        <time>2017-12-03T17:29:37Z</time>
      </trkpt>
      <trkpt lat="62.635318350422" lon="17.979086568041">
        <ele>89</ele>
        <time>2017-12-03T17:29:38Z</time>
      </trkpt>
      <trkpt lat="62.635349279633" lon="17.979096961597">
        <ele>89</ele>
        <time>2017-12-03T17:29:39Z</time>
      </trkpt>
      <trkpt lat="62.63538557326" lon="17.97910760661">
        <ele>88.8</ele>
        <time>2017-12-03T17:29:40Z</time>
      </trkpt>
      <trkpt lat="62.635419184679" lon="17.979107103696">
        <ele>88.8</ele>
        <time>2017-12-03T17:29:41Z</time>
      </trkpt>
      <trkpt lat="62.635455059211" lon="17.979100984909">
        <ele>88.6</ele>
        <time>2017-12-03T17:29:42Z</time>
      </trkpt>
      <trkpt lat="62.635488502992" lon="17.979096207226">
        <ele>88.6</ele>
        <time>2017-12-03T17:29:43Z</time>
      </trkpt>
      <trkpt lat="62.635524628981" lon="17.97909251919">
        <ele>88.4</ele>
        <time>2017-12-03T17:29:44Z</time>
      </trkpt>
      <trkpt lat="62.63555991678" lon="17.979085394575">
        <ele>88.2</ele>
        <time>2017-12-03T17:29:45Z</time>
      </trkpt>
      <trkpt lat="62.635598808796" lon="17.979080365435">
        <ele>88.2</ele>
        <time>2017-12-03T17:29:46Z</time>
      </trkpt>
      <trkpt lat="62.635640131563" lon="17.979080700711">
        <ele>88</ele>
        <time>2017-12-03T17:29:47Z</time>
      </trkpt>
      <trkpt lat="62.635677347199" lon="17.979082963824">
        <ele>87.8</ele>
        <time>2017-12-03T17:29:48Z</time>
      </trkpt>
      <trkpt lat="62.635711880627" lon="17.979083885833">
        <ele>87.6</ele>
        <time>2017-12-03T17:29:49Z</time>
      </trkpt>
      <trkpt lat="62.63574850953" lon="17.979085562213">
        <ele>87.4</ele>
        <time>2017-12-03T17:29:50Z</time>
      </trkpt>
      <trkpt lat="62.635778516732" lon="17.979085646032">
        <ele>87.2</ele>
        <time>2017-12-03T17:29:51Z</time>
      </trkpt>
      <trkpt lat="62.635815397092" lon="17.979085059299">
        <ele>87</ele>
        <time>2017-12-03T17:29:52Z</time>
      </trkpt>
      <trkpt lat="62.635845655751" lon="17.979085394575">
        <ele>86.8</ele>
        <time>2017-12-03T17:29:53Z</time>
      </trkpt>
      <trkpt lat="62.635870298537" lon="17.979099140891">
        <ele>86.6</ele>
        <time>2017-12-03T17:29:54Z</time>
      </trkpt>
      <trkpt lat="62.63589267821" lon="17.979099643805">
        <ele>86.4</ele>
        <time>2017-12-03T17:29:55Z</time>
      </trkpt>
      <trkpt lat="62.635912040399" lon="17.979106349325">
        <ele>86.6</ele>
        <time>2017-12-03T17:29:56Z</time>
      </trkpt>
      <trkpt lat="62.635928468923" lon="17.979113641578">
        <ele>86.6</ele>
        <time>2017-12-03T17:29:57Z</time>
      </trkpt>
      <trkpt lat="62.635944478352" lon="17.979116323786">
        <ele>86.6</ele>
        <time>2017-12-03T17:29:58Z</time>
      </trkpt>
      <trkpt lat="62.635962164161" lon="17.979128980455">
        <ele>86.8</ele>
        <time>2017-12-03T17:29:59Z</time>
      </trkpt>
      <trkpt lat="62.635974317916" lon="17.979149348472">
        <ele>87</ele>
        <time>2017-12-03T17:30:00Z</time>
      </trkpt>
      <trkpt lat="62.6359857173" lon="17.979171057593">
        <ele>87</ele>
        <time>2017-12-03T17:30:01Z</time>
      </trkpt>
      <trkpt lat="62.63599661377" lon="17.979204082279">
        <ele>87</ele>
        <time>2017-12-03T17:30:02Z</time>
      </trkpt>
      <trkpt lat="62.6360024811" lon="17.979238867164">
        <ele>87.2</ele>
        <time>2017-12-03T17:30:03Z</time>
      </trkpt>
      <trkpt lat="62.636002984014" lon="17.979271388936">
        <ele>87.2</ele>
        <time>2017-12-03T17:30:04Z</time>
      </trkpt>
      <trkpt lat="62.636002145824" lon="17.979292511324">
        <ele>87.2</ele>
        <time>2017-12-03T17:30:05Z</time>
      </trkpt>
      <trkpt lat="62.63599912834" lon="17.97930290488">
        <ele>87.2</ele>
        <time>2017-12-03T17:30:06Z</time>
      </trkpt>
      <trkpt lat="62.635998457788" lon="17.979304078346">
        <ele>87.2</ele>
        <time>2017-12-03T17:30:07Z</time>
      </trkpt>
      <trkpt lat="62.63599912834" lon="17.979317573205">
        <ele>87.2</ele>
        <time>2017-12-03T17:30:09Z</time>
      </trkpt>
      <trkpt lat="62.636000134168" lon="17.979314807178">
        <ele>87.2</ele>
        <time>2017-12-03T17:30:10Z</time>
      </trkpt>
      <trkpt lat="62.636001307634" lon="17.979817050626">
        <ele>86.4</ele>
        <time>2017-12-03T17:30:21Z</time>
      </trkpt>
      <trkpt lat="62.636004828032" lon="17.979983934255">
        <ele>85.6</ele>
        <time>2017-12-03T17:30:22Z</time>
      </trkpt>
      <trkpt lat="62.636017987615" lon="17.980126761831">
        <ele>84.8</ele>
        <time>2017-12-03T17:30:23Z</time>
      </trkpt>
      <trkpt lat="62.636040451107" lon="17.980285934112">
        <ele>83.8</ele>
        <time>2017-12-03T17:30:24Z</time>
      </trkpt>
      <trkpt lat="62.636061824952" lon="17.980423816367">
        <ele>83</ele>
        <time>2017-12-03T17:30:25Z</time>
      </trkpt>
      <trkpt lat="62.636085545729" lon="17.980574942024">
        <ele>82.2</ele>
        <time>2017-12-03T17:30:26Z</time>
      </trkpt>
      <trkpt lat="62.636109098868" lon="17.980719613618">
        <ele>81.4</ele>
        <time>2017-12-03T17:30:27Z</time>
      </trkpt>
      <trkpt lat="62.636135585672" lon="17.980870990732">
        <ele>80.8</ele>
        <time>2017-12-03T17:30:28Z</time>
      </trkpt>
      <trkpt lat="62.636159809363" lon="17.981013566851">
        <ele>80.2</ele>
        <time>2017-12-03T17:30:29Z</time>
      </trkpt>
      <trkpt lat="62.636179590647" lon="17.981157735531">
        <ele>80</ele>
        <time>2017-12-03T17:30:30Z</time>
      </trkpt>
      <trkpt lat="62.636192079678" lon="17.981293103216">
        <ele>79.6</ele>
        <time>2017-12-03T17:30:31Z</time>
      </trkpt>
      <trkpt lat="62.636205406899" lon="17.98144867128">
        <ele>79.2</ele>
        <time>2017-12-03T17:30:32Z</time>
      </trkpt>
      <trkpt lat="62.636212950609" lon="17.981577920178">
        <ele>78.8</ele>
        <time>2017-12-03T17:30:33Z</time>
      </trkpt>
      <trkpt lat="62.636220075224" lon="17.981702139936">
        <ele>78.6</ele>
        <time>2017-12-03T17:30:34Z</time>
      </trkpt>
      <trkpt lat="62.636233402445" lon="17.981837256164">
        <ele>78.2</ele>
        <time>2017-12-03T17:30:35Z</time>
      </trkpt>
      <trkpt lat="62.636245807657" lon="17.981931049625">
        <ele>78.2</ele>
        <time>2017-12-03T17:30:36Z</time>
      </trkpt>
      <trkpt lat="62.636261565629" lon="17.982028531122">
        <ele>78</ele>
        <time>2017-12-03T17:30:37Z</time>
      </trkpt>
      <trkpt lat="62.636265002208" lon="17.982148643749">
        <ele>78</ele>
        <time>2017-12-03T17:30:38Z</time>
      </trkpt>
      <trkpt lat="62.636265588941" lon="17.982261967037">
        <ele>78</ele>
        <time>2017-12-03T17:30:39Z</time>
      </trkpt>
      <trkpt lat="62.636264080199" lon="17.982378056352">
        <ele>78.2</ele>
        <time>2017-12-03T17:30:40Z</time>
      </trkpt>
      <trkpt lat="62.636266594769" lon="17.982483416835">
        <ele>78.4</ele>
        <time>2017-12-03T17:30:41Z</time>
      </trkpt>
      <trkpt lat="62.636264666932" lon="17.982585005463">
        <ele>78.8</ele>
        <time>2017-12-03T17:30:42Z</time>
      </trkpt>
      <trkpt lat="62.636258548145" lon="17.982687851376">
        <ele>79.2</ele>
        <time>2017-12-03T17:30:43Z</time>
      </trkpt>
      <trkpt lat="62.636258212869" lon="17.982789942918">
        <ele>79.6</ele>
        <time>2017-12-03T17:30:44Z</time>
      </trkpt>
      <trkpt lat="62.636260559801" lon="17.982873678099">
        <ele>79.8</ele>
        <time>2017-12-03T17:30:45Z</time>
      </trkpt>
      <trkpt lat="62.636263661104" lon="17.982958419108">
        <ele>80</ele>
        <time>2017-12-03T17:30:46Z</time>
      </trkpt>
      <trkpt lat="62.636271875366" lon="17.983048356895">
        <ele>80</ele>
        <time>2017-12-03T17:30:47Z</time>
      </trkpt>
      <trkpt lat="62.636283358569" lon="17.983119854502">
        <ele>80.2</ele>
        <time>2017-12-03T17:30:48Z</time>
      </trkpt>
      <trkpt lat="62.636288136252" lon="17.983202751493">
        <ele>80.2</ele>
        <time>2017-12-03T17:30:49Z</time>
      </trkpt>
      <trkpt lat="62.636291153736" lon="17.983299730076">
        <ele>80.2</ele>
        <time>2017-12-03T17:30:50Z</time>
      </trkpt>
      <trkpt lat="62.636296266695" lon="17.983367120552">
        <ele>80.2</ele>
        <time>2017-12-03T17:30:51Z</time>
      </trkpt>
      <trkpt lat="62.636292662478" lon="17.983447083878">
        <ele>80.4</ele>
        <time>2017-12-03T17:30:52Z</time>
      </trkpt>
      <trkpt lat="62.636286711329" lon="17.983527298661">
        <ele>80.4</ele>
        <time>2017-12-03T17:30:53Z</time>
      </trkpt>
      <trkpt lat="62.636281849827" lon="17.983592342205">
        <ele>80.2</ele>
        <time>2017-12-03T17:30:54Z</time>
      </trkpt>
      <trkpt lat="62.636273719384" lon="17.983654116808">
        <ele>80.4</ele>
        <time>2017-12-03T17:30:55Z</time>
      </trkpt>
      <trkpt lat="62.636261984724" lon="17.983726368786">
        <ele>80.6</ele>
        <time>2017-12-03T17:30:56Z</time>
      </trkpt>
      <trkpt lat="62.636255363023" lon="17.9838023088">
        <ele>80.4</ele>
        <time>2017-12-03T17:30:57Z</time>
      </trkpt>
      <trkpt lat="62.636258631964" lon="17.983866262697">
        <ele>80.6</ele>
        <time>2017-12-03T17:30:58Z</time>
      </trkpt>
      <trkpt lat="62.636248992779" lon="17.983940107236">
        <ele>80.8</ele>
        <time>2017-12-03T17:30:59Z</time>
      </trkpt>
      <trkpt lat="62.63624807077" lon="17.984005234599">
        <ele>80.8</ele>
        <time>2017-12-03T17:31:00Z</time>
      </trkpt>
      <trkpt lat="62.636240694698" lon="17.984059968406">
        <ele>81</ele>
        <time>2017-12-03T17:31:01Z</time>
      </trkpt>
      <trkpt lat="62.636234995006" lon="17.984117971154">
        <ele>81</ele>
        <time>2017-12-03T17:31:02Z</time>
      </trkpt>
      <trkpt lat="62.636239018318" lon="17.984169603658">
        <ele>81</ele>
        <time>2017-12-03T17:31:03Z</time>
      </trkpt>
      <trkpt lat="62.636247819313" lon="17.984220733248">
        <ele>81</ele>
        <time>2017-12-03T17:31:04Z</time>
      </trkpt>
      <trkpt lat="62.636237258119" lon="17.984305893352">
        <ele>81.2</ele>
        <time>2017-12-03T17:31:05Z</time>
      </trkpt>
      <trkpt lat="62.636233989178" lon="17.984361632987">
        <ele>81.4</ele>
        <time>2017-12-03T17:31:06Z</time>
      </trkpt>
      <trkpt lat="62.636229379133" lon="17.984433884965">
        <ele>81.4</ele>
        <time>2017-12-03T17:31:07Z</time>
      </trkpt>
      <trkpt lat="62.636235246463" lon="17.9844980065">
        <ele>81.6</ele>
        <time>2017-12-03T17:31:08Z</time>
      </trkpt>
      <trkpt lat="62.636229882047" lon="17.984561541302">
        <ele>81.6</ele>
        <time>2017-12-03T17:31:09Z</time>
      </trkpt>
      <trkpt lat="62.636226194011" lon="17.984633206547">
        <ele>81.6</ele>
        <time>2017-12-03T17:31:10Z</time>
      </trkpt>
      <trkpt lat="62.636223679441" lon="17.984690538743">
        <ele>81.6</ele>
        <time>2017-12-03T17:31:11Z</time>
      </trkpt>
      <trkpt lat="62.63621538136" lon="17.984752648622">
        <ele>81.8</ele>
        <time>2017-12-03T17:31:12Z</time>
      </trkpt>
      <trkpt lat="62.636206831822" lon="17.984820122917">
        <ele>81.8</ele>
        <time>2017-12-03T17:31:13Z</time>
      </trkpt>
      <trkpt lat="62.636195097162" lon="17.984884915004">
        <ele>81.8</ele>
        <time>2017-12-03T17:31:14Z</time>
      </trkpt>
      <trkpt lat="62.636180428837" lon="17.984950964376">
        <ele>82</ele>
        <time>2017-12-03T17:31:15Z</time>
      </trkpt>
      <trkpt lat="62.636177495172" lon="17.985010559685">
        <ele>82.4</ele>
        <time>2017-12-03T17:31:16Z</time>
      </trkpt>
      <trkpt lat="62.636177411353" lon="17.985063281836">
        <ele>82.6</ele>
        <time>2017-12-03T17:31:17Z</time>
      </trkpt>
      <trkpt lat="62.63617514824" lon="17.985118602376">
        <ele>82.8</ele>
        <time>2017-12-03T17:31:18Z</time>
      </trkpt>
      <trkpt lat="62.636172298394" lon="17.985175934572">
        <ele>83</ele>
        <time>2017-12-03T17:31:19Z</time>
      </trkpt>
      <trkpt lat="62.636178752457" lon="17.985236284252">
        <ele>83</ele>
        <time>2017-12-03T17:31:20Z</time>
      </trkpt>
      <trkpt lat="62.636180009742" lon="17.985291604792">
        <ele>82.8</ele>
        <time>2017-12-03T17:31:21Z</time>
      </trkpt>
      <trkpt lat="62.636179087733" lon="17.985356396879">
        <ele>83</ele>
        <time>2017-12-03T17:31:22Z</time>
      </trkpt>
      <trkpt lat="62.636171460204" lon="17.985410711591">
        <ele>83</ele>
        <time>2017-12-03T17:31:23Z</time>
      </trkpt>
      <trkpt lat="62.636161485743" lon="17.98547198328">
        <ele>83.2</ele>
        <time>2017-12-03T17:31:24Z</time>
      </trkpt>
      <trkpt lat="62.636149080531" lon="17.985534679892">
        <ele>83.2</ele>
        <time>2017-12-03T17:31:25Z</time>
      </trkpt>
      <trkpt lat="62.636136926776" lon="17.985592431183">
        <ele>83.4</ele>
        <time>2017-12-03T17:31:26Z</time>
      </trkpt>
      <trkpt lat="62.636128712514" lon="17.985647416447">
        <ele>83.4</ele>
        <time>2017-12-03T17:31:27Z</time>
      </trkpt>
      <trkpt lat="62.636118905691" lon="17.985717070036">
        <ele>83.4</ele>
        <time>2017-12-03T17:31:28Z</time>
      </trkpt>
      <trkpt lat="62.636105662289" lon="17.985767780531">
        <ele>83.6</ele>
        <time>2017-12-03T17:31:29Z</time>
      </trkpt>
      <trkpt lat="62.636083366435" lon="17.985807762194">
        <ele>83.6</ele>
        <time>2017-12-03T17:31:30Z</time>
      </trkpt>
      <trkpt lat="62.636060651486" lon="17.985841038337">
        <ele>83.4</ele>
        <time>2017-12-03T17:31:31Z</time>
      </trkpt>
      <trkpt lat="62.63603936146" lon="17.985874817394">
        <ele>83.6</ele>
        <time>2017-12-03T17:31:32Z</time>
      </trkpt>
      <trkpt lat="62.636012623199" lon="17.985896610334">
        <ele>83.8</ele>
        <time>2017-12-03T17:31:33Z</time>
      </trkpt>
      <trkpt lat="62.635986220214" lon="17.985931981952">
        <ele>83.8</ele>
        <time>2017-12-03T17:31:34Z</time>
      </trkpt>
      <trkpt lat="62.635956715926" lon="17.985959223127">
        <ele>84.2</ele>
        <time>2017-12-03T17:31:35Z</time>
      </trkpt>
      <trkpt lat="62.635926876362" lon="17.985979339687">
        <ele>84.4</ele>
        <time>2017-12-03T17:31:36Z</time>
      </trkpt>
      <trkpt lat="62.635900138101" lon="17.985997193134">
        <ele>84.4</ele>
        <time>2017-12-03T17:31:37Z</time>
      </trkpt>
      <trkpt lat="62.635872226374" lon="17.986013537839">
        <ele>84.6</ele>
        <time>2017-12-03T17:31:38Z</time>
      </trkpt>
      <trkpt lat="62.635845823389" lon="17.98603524696">
        <ele>84.8</ele>
        <time>2017-12-03T17:31:39Z</time>
      </trkpt>
      <trkpt lat="62.635815229454" lon="17.986058632461">
        <ele>84.8</ele>
        <time>2017-12-03T17:31:40Z</time>
      </trkpt>
      <trkpt lat="62.635791424858" lon="17.986088807301">
        <ele>85</ele>
        <time>2017-12-03T17:31:41Z</time>
      </trkpt>
      <trkpt lat="62.635767368805" lon="17.986129040421">
        <ele>85</ele>
        <time>2017-12-03T17:31:42Z</time>
      </trkpt>
      <trkpt lat="62.635743061295" lon="17.986174554138">
        <ele>85.2</ele>
        <time>2017-12-03T17:31:43Z</time>
      </trkpt>
      <trkpt lat="62.635728141513" lon="17.986207997919">
        <ele>85.2</ele>
        <time>2017-12-03T17:31:44Z</time>
      </trkpt>
      <trkpt lat="62.635710623342" lon="17.986242447528">
        <ele>85.2</ele>
        <time>2017-12-03T17:31:45Z</time>
      </trkpt>
      <trkpt lat="62.635693105171" lon="17.986281842458">
        <ele>85.2</ele>
        <time>2017-12-03T17:31:46Z</time>
      </trkpt>
      <trkpt lat="62.635674329715" lon="17.986322913768">
        <ele>85.4</ele>
        <time>2017-12-03T17:31:47Z</time>
      </trkpt>
      <trkpt lat="62.635652704413" lon="17.986359207395">
        <ele>85.4</ele>
        <time>2017-12-03T17:31:48Z</time>
      </trkpt>
      <trkpt lat="62.635638622821" lon="17.986406146035">
        <ele>85.6</ele>
        <time>2017-12-03T17:31:49Z</time>
      </trkpt>
      <trkpt lat="62.635618757718" lon="17.986453671408">
        <ele>85.8</ele>
        <time>2017-12-03T17:31:50Z</time>
      </trkpt>
      <trkpt lat="62.635599479348" lon="17.986491725234">
        <ele>85.8</ele>
        <time>2017-12-03T17:31:51Z</time>
      </trkpt>
      <trkpt lat="62.635579698064" lon="17.986537238951">
        <ele>86</ele>
        <time>2017-12-03T17:31:52Z</time>
      </trkpt>
      <trkpt lat="62.635565029739" lon="17.986579819003">
        <ele>86</ele>
        <time>2017-12-03T17:31:53Z</time>
      </trkpt>
      <trkpt lat="62.635551283423" lon="17.986621560865">
        <ele>86.2</ele>
        <time>2017-12-03T17:31:54Z</time>
      </trkpt>
      <trkpt lat="62.635534184347" lon="17.986656764845">
        <ele>86.2</ele>
        <time>2017-12-03T17:31:55Z</time>
      </trkpt>
      <trkpt lat="62.635525886266" lon="17.98670076982">
        <ele>86.2</ele>
        <time>2017-12-03T17:31:56Z</time>
      </trkpt>
      <trkpt lat="62.635520102755" lon="17.986746367356">
        <ele>86.4</ele>
        <time>2017-12-03T17:31:57Z</time>
      </trkpt>
      <trkpt lat="62.635514235425" lon="17.986790791426">
        <ele>86.6</ele>
        <time>2017-12-03T17:31:58Z</time>
      </trkpt>
      <trkpt lat="62.635495459969" lon="17.98683907117">
        <ele>86.8</ele>
        <time>2017-12-03T17:31:59Z</time>
      </trkpt>
      <trkpt lat="62.635472325925" lon="17.986888105285">
        <ele>86.8</ele>
        <time>2017-12-03T17:32:00Z</time>
      </trkpt>
      <trkpt lat="62.635454053383" lon="17.986925823835">
        <ele>87</ele>
        <time>2017-12-03T17:32:01Z</time>
      </trkpt>
      <trkpt lat="62.635439133601" lon="17.986961530729">
        <ele>87</ele>
        <time>2017-12-03T17:32:02Z</time>
      </trkpt>
      <trkpt lat="62.635422034525" lon="17.986988101352">
        <ele>87</ele>
        <time>2017-12-03T17:32:03Z</time>
      </trkpt>
      <trkpt lat="62.635394960988" lon="17.987052306706">
        <ele>87.2</ele>
        <time>2017-12-03T17:32:04Z</time>
      </trkpt>
      <trkpt lat="62.635375095885" lon="17.987100418812">
        <ele>87.2</ele>
        <time>2017-12-03T17:32:05Z</time>
      </trkpt>
      <trkpt lat="62.635356990981" lon="17.987138388819">
        <ele>87.4</ele>
        <time>2017-12-03T17:32:06Z</time>
      </trkpt>
      <trkpt lat="62.635337880249" lon="17.987174095713">
        <ele>87.4</ele>
        <time>2017-12-03T17:32:07Z</time>
      </trkpt>
      <trkpt lat="62.635320278259" lon="17.987208964417">
        <ele>87.8</ele>
        <time>2017-12-03T17:32:08Z</time>
      </trkpt>
      <trkpt lat="62.635297730948" lon="17.987251376831">
        <ele>87.8</ele>
        <time>2017-12-03T17:32:09Z</time>
      </trkpt>
      <trkpt lat="62.635279206949" lon="17.987304853353">
        <ele>88</ele>
        <time>2017-12-03T17:32:10Z</time>
      </trkpt>
      <trkpt lat="62.635257833104" lon="17.987344164464">
        <ele>88</ele>
        <time>2017-12-03T17:32:11Z</time>
      </trkpt>
      <trkpt lat="62.635238722372" lon="17.987381799195">
        <ele>88</ele>
        <time>2017-12-03T17:32:12Z</time>
      </trkpt>
      <trkpt lat="62.635220282192" lon="17.987419182469">
        <ele>88.2</ele>
        <time>2017-12-03T17:32:13Z</time>
      </trkpt>
      <trkpt lat="62.635198908347" lon="17.987457320114">
        <ele>88.2</ele>
        <time>2017-12-03T17:32:14Z</time>
      </trkpt>
      <trkpt lat="62.635175439027" lon="17.987494703388">
        <ele>88.4</ele>
        <time>2017-12-03T17:32:15Z</time>
      </trkpt>
      <trkpt lat="62.635157334123" lon="17.987534517413">
        <ele>88.6</ele>
        <time>2017-12-03T17:32:16Z</time>
      </trkpt>
      <trkpt lat="62.635136882287" lon="17.987573241791">
        <ele>88.6</ele>
        <time>2017-12-03T17:32:17Z</time>
      </trkpt>
      <trkpt lat="62.635113664424" lon="17.987609619237">
        <ele>89</ele>
        <time>2017-12-03T17:32:18Z</time>
      </trkpt>
      <trkpt lat="62.635097319719" lon="17.987648175977">
        <ele>89</ele>
        <time>2017-12-03T17:32:19Z</time>
      </trkpt>
      <trkpt lat="62.635076364969" lon="17.987693438237">
        <ele>89.2</ele>
        <time>2017-12-03T17:32:20Z</time>
      </trkpt>
      <trkpt lat="62.635056416047" lon="17.987729899502">
        <ele>89.4</ele>
        <time>2017-12-03T17:32:21Z</time>
      </trkpt>
      <trkpt lat="62.635035628935" lon="17.987769797346">
        <ele>89.4</ele>
        <time>2017-12-03T17:32:22Z</time>
      </trkpt>
      <trkpt lat="62.635014422728" lon="17.98780382786">
        <ele>89.6</ele>
        <time>2017-12-03T17:32:23Z</time>
      </trkpt>
      <trkpt lat="62.634990199037" lon="17.987835595261">
        <ele>89.6</ele>
        <time>2017-12-03T17:32:24Z</time>
      </trkpt>
      <trkpt lat="62.634969076649" lon="17.987872224164">
        <ele>89.8</ele>
        <time>2017-12-03T17:32:25Z</time>
      </trkpt>
      <trkpt lat="62.634949463003" lon="17.987898124235">
        <ele>89.8</ele>
        <time>2017-12-03T17:32:26Z</time>
      </trkpt>
      <trkpt lat="62.634930939004" lon="17.987926957971">
        <ele>90</ele>
        <time>2017-12-03T17:32:27Z</time>
      </trkpt>
      <trkpt lat="62.634906044761" lon="17.987955204974">
        <ele>90</ele>
        <time>2017-12-03T17:32:28Z</time>
      </trkpt>
      <trkpt lat="62.634880396147" lon="17.987978255199">
        <ele>90.2</ele>
        <time>2017-12-03T17:32:29Z</time>
      </trkpt>
      <trkpt lat="62.634858603207" lon="17.988006921297">
        <ele>90.4</ele>
        <time>2017-12-03T17:32:30Z</time>
      </trkpt>
      <trkpt lat="62.634837983733" lon="17.988019410328">
        <ele>90.6</ele>
        <time>2017-12-03T17:32:31Z</time>
      </trkpt>
      <trkpt lat="62.634811748386" lon="17.988035252119">
        <ele>90.6</ele>
        <time>2017-12-03T17:32:32Z</time>
      </trkpt>
      <trkpt lat="62.634788865799" lon="17.988050339539">
        <ele>90.6</ele>
        <time>2017-12-03T17:32:33Z</time>
      </trkpt>
      <trkpt lat="62.634764642108" lon="17.988059308172">
        <ele>90.8</ele>
        <time>2017-12-03T17:32:34Z</time>
      </trkpt>
      <trkpt lat="62.634746285747" lon="17.988071461927">
        <ele>90.8</ele>
        <time>2017-12-03T17:32:35Z</time>
      </trkpt>
      <trkpt lat="62.634723822255" lon="17.988077999809">
        <ele>90.8</ele>
        <time>2017-12-03T17:32:36Z</time>
      </trkpt>
      <trkpt lat="62.634700855849" lon="17.988091243211">
        <ele>91</ele>
        <time>2017-12-03T17:32:37Z</time>
      </trkpt>
      <trkpt lat="62.634674117588" lon="17.988093422505">
        <ele>91</ele>
        <time>2017-12-03T17:32:38Z</time>
      </trkpt>
      <trkpt lat="62.634648133698" lon="17.988102894052">
        <ele>91</ele>
        <time>2017-12-03T17:32:39Z</time>
      </trkpt>
      <trkpt lat="62.634615192831" lon="17.988110353943">
        <ele>91.4</ele>
        <time>2017-12-03T17:32:40Z</time>
      </trkpt>
      <trkpt lat="62.634586526733" lon="17.988112952332">
        <ele>91.4</ele>
        <time>2017-12-03T17:32:41Z</time>
      </trkpt>
      <trkpt lat="62.634560626662" lon="17.988124603173">
        <ele>91.6</ele>
        <time>2017-12-03T17:32:42Z</time>
      </trkpt>
      <trkpt lat="62.634535313324" lon="17.988131811607">
        <ele>91.8</ele>
        <time>2017-12-03T17:32:43Z</time>
      </trkpt>
      <trkpt lat="62.634504719389" lon="17.988147653398">
        <ele>91.8</ele>
        <time>2017-12-03T17:32:44Z</time>
      </trkpt>
      <trkpt lat="62.634474041635" lon="17.988148743045">
        <ele>92</ele>
        <time>2017-12-03T17:32:45Z</time>
      </trkpt>
      <trkpt lat="62.634450823772" lon="17.988147569579">
        <ele>92</ele>
        <time>2017-12-03T17:32:46Z</time>
      </trkpt>
      <trkpt lat="62.634424756063" lon="17.988143378629">
        <ele>92.2</ele>
        <time>2017-12-03T17:32:47Z</time>
      </trkpt>
      <trkpt lat="62.634405058598" lon="17.988151592891">
        <ele>92.2</ele>
        <time>2017-12-03T17:32:48Z</time>
      </trkpt>
      <trkpt lat="62.634389887359" lon="17.988158046954">
        <ele>92.4</ele>
        <time>2017-12-03T17:32:49Z</time>
      </trkpt>
      <trkpt lat="62.634369854618" lon="17.98815922042">
        <ele>92.4</ele>
        <time>2017-12-03T17:32:50Z</time>
      </trkpt>
      <trkpt lat="62.634341775253" lon="17.98817179327">
        <ele>92.4</ele>
        <time>2017-12-03T17:32:51Z</time>
      </trkpt>
      <trkpt lat="62.634305481626" lon="17.988175481306">
        <ele>92.6</ele>
        <time>2017-12-03T17:32:52Z</time>
      </trkpt>
      <trkpt lat="62.634278156632" lon="17.988183276473">
        <ele>92.6</ele>
        <time>2017-12-03T17:32:53Z</time>
      </trkpt>
      <trkpt lat="62.634248484706" lon="17.988177912057">
        <ele>92.8</ele>
        <time>2017-12-03T17:32:54Z</time>
      </trkpt>
      <trkpt lat="62.634218226047" lon="17.988166177397">
        <ele>92.8</ele>
        <time>2017-12-03T17:32:55Z</time>
      </trkpt>
      <trkpt lat="62.634191403967" lon="17.98815922042">
        <ele>92.8</ele>
        <time>2017-12-03T17:32:56Z</time>
      </trkpt>
      <trkpt lat="62.634158127824" lon="17.988157879316">
        <ele>93</ele>
        <time>2017-12-03T17:32:57Z</time>
      </trkpt>
      <trkpt lat="62.634129294088" lon="17.988146982846">
        <ele>93</ele>
        <time>2017-12-03T17:32:58Z</time>
      </trkpt>
      <trkpt lat="62.634100125076" lon="17.988132230702">
        <ele>93</ele>
        <time>2017-12-03T17:32:59Z</time>
      </trkpt>
      <trkpt lat="62.634072464806" lon="17.988121418051">
        <ele>93</ele>
        <time>2017-12-03T17:33:00Z</time>
      </trkpt>
      <trkpt lat="62.634039272482" lon="17.988108258468">
        <ele>93</ele>
        <time>2017-12-03T17:33:01Z</time>
      </trkpt>
      <trkpt lat="62.634001302475" lon="17.988105408622">
        <ele>93</ele>
        <time>2017-12-03T17:33:02Z</time>
      </trkpt>
      <trkpt lat="62.63397238492" lon="17.988090907935">
        <ele>93.2</ele>
        <time>2017-12-03T17:33:03Z</time>
      </trkpt>
      <trkpt lat="62.633942042442" lon="17.988070037004">
        <ele>93.2</ele>
        <time>2017-12-03T17:33:04Z</time>
      </trkpt>
      <trkpt lat="62.633911532326" lon="17.988046651503">
        <ele>93.4</ele>
        <time>2017-12-03T17:33:05Z</time>
      </trkpt>
      <trkpt lat="62.633884207332" lon="17.988027037857">
        <ele>93.6</ele>
        <time>2017-12-03T17:33:06Z</time>
      </trkpt>
      <trkpt lat="62.633859480727" lon="17.988011866618">
        <ele>93.8</ele>
        <time>2017-12-03T17:33:07Z</time>
      </trkpt>
      <trkpt lat="62.633833580656" lon="17.987994767542">
        <ele>93.8</ele>
        <time>2017-12-03T17:33:08Z</time>
      </trkpt>
      <trkpt lat="62.633810949526" lon="17.987986888556">
        <ele>94</ele>
        <time>2017-12-03T17:33:09Z</time>
      </trkpt>
      <trkpt lat="62.633781529057" lon="17.987960401752">
        <ele>94</ele>
        <time>2017-12-03T17:33:10Z</time>
      </trkpt>
      <trkpt lat="62.63375948466" lon="17.987944224685">
        <ele>94</ele>
        <time>2017-12-03T17:33:11Z</time>
      </trkpt>
      <trkpt lat="62.633730315648" lon="17.98791111618">
        <ele>94</ele>
        <time>2017-12-03T17:33:12Z</time>
      </trkpt>
      <trkpt lat="62.63369997317" lon="17.987887730679">
        <ele>94</ele>
        <time>2017-12-03T17:33:13Z</time>
      </trkpt>
      <trkpt lat="62.633671390891" lon="17.987869625775">
        <ele>94.2</ele>
        <time>2017-12-03T17:33:14Z</time>
      </trkpt>
      <trkpt lat="62.633648089209" lon="17.98784322279">
        <ele>94.2</ele>
        <time>2017-12-03T17:33:15Z</time>
      </trkpt>
      <trkpt lat="62.633624871346" lon="17.987817574176">
        <ele>94.2</ele>
        <time>2017-12-03T17:33:16Z</time>
      </trkpt>
      <trkpt lat="62.633598635999" lon="17.987791003553">
        <ele>94.2</ele>
        <time>2017-12-03T17:33:17Z</time>
      </trkpt>
      <trkpt lat="62.633578938534" lon="17.987762085998">
        <ele>94.4</ele>
        <time>2017-12-03T17:33:18Z</time>
      </trkpt>
      <trkpt lat="62.633553876653" lon="17.987734509547">
        <ele>94.6</ele>
        <time>2017-12-03T17:33:19Z</time>
      </trkpt>
      <trkpt lat="62.633519846139" lon="17.987710285856">
        <ele>94.8</ele>
        <time>2017-12-03T17:33:20Z</time>
      </trkpt>
      <trkpt lat="62.633493275516" lon="17.987677931722">
        <ele>94.8</ele>
        <time>2017-12-03T17:33:21Z</time>
      </trkpt>
      <trkpt lat="62.633461591934" lon="17.987633256195">
        <ele>95.2</ele>
        <time>2017-12-03T17:33:22Z</time>
      </trkpt>
      <trkpt lat="62.633438122614" lon="17.987602159346">
        <ele>95.4</ele>
        <time>2017-12-03T17:33:23Z</time>
      </trkpt>
      <trkpt lat="62.633413647466" lon="17.987576762189">
        <ele>95.6</ele>
        <time>2017-12-03T17:33:24Z</time>
      </trkpt>
      <trkpt lat="62.633393698544" lon="17.987545581521">
        <ele>95.8</ele>
        <time>2017-12-03T17:33:25Z</time>
      </trkpt>
      <trkpt lat="62.633377353839" lon="17.987509539351">
        <ele>96</ele>
        <time>2017-12-03T17:33:26Z</time>
      </trkpt>
      <trkpt lat="62.633360087125" lon="17.987467126937">
        <ele>96.2</ele>
        <time>2017-12-03T17:33:27Z</time>
      </trkpt>
      <trkpt lat="62.633340054384" lon="17.98741323132">
        <ele>96.4</ele>
        <time>2017-12-03T17:33:28Z</time>
      </trkpt>
      <trkpt lat="62.633318680539" lon="17.987360257712">
        <ele>96.6</ele>
        <time>2017-12-03T17:33:29Z</time>
      </trkpt>
      <trkpt lat="62.633297558151" lon="17.987301332955">
        <ele>96.8</ele>
        <time>2017-12-03T17:33:30Z</time>
      </trkpt>
      <trkpt lat="62.633282889826" lon="17.987241486189">
        <ele>96.8</ele>
        <time>2017-12-03T17:33:31Z</time>
      </trkpt>
      <trkpt lat="62.633265874569" lon="17.987153643877">
        <ele>96.6</ele>
        <time>2017-12-03T17:33:32Z</time>
      </trkpt>
      <trkpt lat="62.633249613683" lon="17.987053144896">
        <ele>96.6</ele>
        <time>2017-12-03T17:33:33Z</time>
      </trkpt>
      <trkpt lat="62.633231844055" lon="17.986936468848">
        <ele>96.4</ele>
        <time>2017-12-03T17:33:34Z</time>
      </trkpt>
      <trkpt lat="62.63321298478" lon="17.986810907986">
        <ele>95.8</ele>
        <time>2017-12-03T17:33:35Z</time>
      </trkpt>
      <trkpt lat="62.633200495749" lon="17.986698590526">
        <ele>95.2</ele>
        <time>2017-12-03T17:33:36Z</time>
      </trkpt>
      <trkpt lat="62.633190772745" lon="17.986582836487">
        <ele>94.6</ele>
        <time>2017-12-03T17:33:37Z</time>
      </trkpt>
      <trkpt lat="62.633183396673" lon="17.986481666954">
        <ele>94</ele>
        <time>2017-12-03T17:33:38Z</time>
      </trkpt>
      <trkpt lat="62.633180546827" lon="17.986387873493">
        <ele>93.4</ele>
        <time>2017-12-03T17:33:39Z</time>
      </trkpt>
      <trkpt lat="62.633178535171" lon="17.986263653735">
        <ele>92.8</ele>
        <time>2017-12-03T17:33:40Z</time>
      </trkpt>
      <trkpt lat="62.63317694261" lon="17.98613415338">
        <ele>92.2</ele>
        <time>2017-12-03T17:33:41Z</time>
      </trkpt>
      <trkpt lat="62.633178786628" lon="17.985995935849">
        <ele>92</ele>
        <time>2017-12-03T17:33:42Z</time>
      </trkpt>
      <trkpt lat="62.633180463008" lon="17.985862663639">
        <ele>91.8</ele>
        <time>2017-12-03T17:33:43Z</time>
      </trkpt>
      <trkpt lat="62.633182474664" lon="17.985735258759">
        <ele>91.4</ele>
        <time>2017-12-03T17:33:44Z</time>
      </trkpt>
      <trkpt lat="62.63318448632" lon="17.985620678186">
        <ele>90.8</ele>
        <time>2017-12-03T17:33:45Z</time>
      </trkpt>
      <trkpt lat="62.633188258175" lon="17.985504588871">
        <ele>90.6</ele>
        <time>2017-12-03T17:33:46Z</time>
      </trkpt>
      <trkpt lat="62.633195550428" lon="17.985378357457">
        <ele>90.2</ele>
        <time>2017-12-03T17:33:47Z</time>
      </trkpt>
      <trkpt lat="62.633209967296" lon="17.985250198206">
        <ele>90</ele>
        <time>2017-12-03T17:33:48Z</time>
      </trkpt>
      <trkpt lat="62.633226312001" lon="17.985105526612">
        <ele>89.6</ele>
        <time>2017-12-03T17:33:49Z</time>
      </trkpt>
      <trkpt lat="62.633247937303" lon="17.984944845589">
        <ele>89.2</ele>
        <time>2017-12-03T17:33:50Z</time>
      </trkpt>
      <trkpt lat="62.633269646424" lon="17.984820290555">
        <ele>88.8</ele>
        <time>2017-12-03T17:33:51Z</time>
      </trkpt>
      <trkpt lat="62.633300324178" lon="17.984671930925">
        <ele>88.2</ele>
        <time>2017-12-03T17:33:52Z</time>
      </trkpt>
      <trkpt lat="62.633327565353" lon="17.984545950968">
        <ele>87.6</ele>
        <time>2017-12-03T17:33:53Z</time>
      </trkpt>
      <trkpt lat="62.633353046329" lon="17.984430867481">
        <ele>87.2</ele>
        <time>2017-12-03T17:33:54Z</time>
      </trkpt>
      <trkpt lat="62.633370061586" lon="17.984322238057">
        <ele>87</ele>
        <time>2017-12-03T17:33:55Z</time>
      </trkpt>
      <trkpt lat="62.633380538961" lon="17.984210423511">
        <ele>87</ele>
        <time>2017-12-03T17:33:56Z</time>
      </trkpt>
      <trkpt lat="62.633390261965" lon="17.98410154263">
        <ele>87</ele>
        <time>2017-12-03T17:33:57Z</time>
      </trkpt>
      <trkpt lat="62.633397302761" lon="17.983983190202">
        <ele>87</ele>
        <time>2017-12-03T17:33:58Z</time>
      </trkpt>
      <trkpt lat="62.633405600842" lon="17.983880931022">
        <ele>87</ele>
        <time>2017-12-03T17:33:59Z</time>
      </trkpt>
      <trkpt lat="62.633409372697" lon="17.983783365706">
        <ele>87</ele>
        <time>2017-12-03T17:34:00Z</time>
      </trkpt>
      <trkpt lat="62.633411803448" lon="17.983704743484">
        <ele>87.4</ele>
        <time>2017-12-03T17:34:01Z</time>
      </trkpt>
      <trkpt lat="62.633425382126" lon="17.983606675254">
        <ele>87.6</ele>
        <time>2017-12-03T17:34:02Z</time>
      </trkpt>
      <trkpt lat="62.633442229745" lon="17.983518330028">
        <ele>88.2</ele>
        <time>2017-12-03T17:34:03Z</time>
      </trkpt>
      <trkpt lat="62.633455305509" lon="17.983433672838">
        <ele>88.6</ele>
        <time>2017-12-03T17:34:04Z</time>
      </trkpt>
      <trkpt lat="62.633472404585" lon="17.983339879377">
        <ele>89</ele>
        <time>2017-12-03T17:34:05Z</time>
      </trkpt>
      <trkpt lat="62.633482211408" lon="17.983255222187">
        <ele>89.2</ele>
        <time>2017-12-03T17:34:06Z</time>
      </trkpt>
      <trkpt lat="62.633498137018" lon="17.983158746518">
        <ele>89.2</ele>
        <time>2017-12-03T17:34:07Z</time>
      </trkpt>
      <trkpt lat="62.633516828655" lon="17.983067299989">
        <ele>89.2</ele>
        <time>2017-12-03T17:34:08Z</time>
      </trkpt>
      <trkpt lat="62.63352646784" lon="17.982976021098">
        <ele>89.2</ele>
        <time>2017-12-03T17:34:09Z</time>
      </trkpt>
      <trkpt lat="62.63354155526" lon="17.982884658388">
        <ele>89.2</ele>
        <time>2017-12-03T17:34:10Z</time>
      </trkpt>
      <trkpt lat="62.633557313232" lon="17.982802431949">
        <ele>89.2</ele>
        <time>2017-12-03T17:34:11Z</time>
      </trkpt>
      <trkpt lat="62.633567455331" lon="17.982718696768">
        <ele>89.2</ele>
        <time>2017-12-03T17:34:12Z</time>
      </trkpt>
      <trkpt lat="62.633586314606" lon="17.982636470329">
        <ele>89.2</ele>
        <time>2017-12-03T17:34:13Z</time>
      </trkpt>
      <trkpt lat="62.633601485845" lon="17.982567738749">
        <ele>89.2</ele>
        <time>2017-12-03T17:34:14Z</time>
      </trkpt>
      <trkpt lat="62.633617495274" lon="17.982495067676">
        <ele>89.2</ele>
        <time>2017-12-03T17:34:15Z</time>
      </trkpt>
      <trkpt lat="62.633626380088" lon="17.982409404658">
        <ele>89.2</ele>
        <time>2017-12-03T17:34:16Z</time>
      </trkpt>
      <trkpt lat="62.63363543254" lon="17.982326172391">
        <ele>89.2</ele>
        <time>2017-12-03T17:34:17Z</time>
      </trkpt>
      <trkpt lat="62.633646664286" lon="17.982234139129">
        <ele>89.2</ele>
        <time>2017-12-03T17:34:18Z</time>
      </trkpt>
      <trkpt lat="62.633650100865" lon="17.982156019821">
        <ele>89.2</ele>
        <time>2017-12-03T17:34:19Z</time>
      </trkpt>
      <trkpt lat="62.633653621263" lon="17.982078654884">
        <ele>89.2</ele>
        <time>2017-12-03T17:34:20Z</time>
      </trkpt>
      <trkpt lat="62.633655632919" lon="17.9820085822">
        <ele>89</ele>
        <time>2017-12-03T17:34:21Z</time>
      </trkpt>
      <trkpt lat="62.633654124177" lon="17.9819247632">
        <ele>89</ele>
        <time>2017-12-03T17:34:22Z</time>
      </trkpt>
      <trkpt lat="62.633658482765" lon="17.981845554245">
        <ele>89.2</ele>
        <time>2017-12-03T17:34:23Z</time>
      </trkpt>
      <trkpt lat="62.633660494421" lon="17.981769781869">
        <ele>89.4</ele>
        <time>2017-12-03T17:34:24Z</time>
      </trkpt>
      <trkpt lat="62.63366476919" lon="17.9816984519">
        <ele>89.6</ele>
        <time>2017-12-03T17:34:25Z</time>
      </trkpt>
      <trkpt lat="62.633669379235" lon="17.981627541026">
        <ele>89.6</ele>
        <time>2017-12-03T17:34:26Z</time>
      </trkpt>
      <trkpt lat="62.633675330384" lon="17.981556713971">
        <ele>89.6</ele>
        <time>2017-12-03T17:34:27Z</time>
      </trkpt>
      <trkpt lat="62.633677425859" lon="17.981476666826">
        <ele>89.6</ele>
        <time>2017-12-03T17:34:28Z</time>
      </trkpt>
      <trkpt lat="62.633692094184" lon="17.981416233327">
        <ele>89.8</ele>
        <time>2017-12-03T17:34:29Z</time>
      </trkpt>
      <trkpt lat="62.633702320102" lon="17.981353452896">
        <ele>89.8</ele>
        <time>2017-12-03T17:34:30Z</time>
      </trkpt>
      <trkpt lat="62.633713551848" lon="17.981284050764">
        <ele>89.8</ele>
        <time>2017-12-03T17:34:31Z</time>
      </trkpt>
      <trkpt lat="62.633715395866" lon="17.981205428542">
        <ele>89.8</ele>
        <time>2017-12-03T17:34:32Z</time>
      </trkpt>
      <trkpt lat="62.633729477458" lon="17.981145162681">
        <ele>89.8</ele>
        <time>2017-12-03T17:34:33Z</time>
      </trkpt>
      <trkpt lat="62.633749258742" lon="17.981087327571">
        <ele>89.8</ele>
        <time>2017-12-03T17:34:34Z</time>
      </trkpt>
      <trkpt lat="62.633771806053" lon="17.981033851049">
        <ele>89.8</ele>
        <time>2017-12-03T17:34:35Z</time>
      </trkpt>
      <trkpt lat="62.633790330052" lon="17.980995797223">
        <ele>89.8</ele>
        <time>2017-12-03T17:34:36Z</time>
      </trkpt>
      <trkpt lat="62.633812961182" lon="17.980955312646">
        <ele>89.8</ele>
        <time>2017-12-03T17:34:37Z</time>
      </trkpt>
      <trkpt lat="62.633829305887" lon="17.980898483364">
        <ele>89.8</ele>
        <time>2017-12-03T17:34:38Z</time>
      </trkpt>
      <trkpt lat="62.633850679732" lon="17.980844839204">
        <ele>89.8</ele>
        <time>2017-12-03T17:34:39Z</time>
      </trkpt>
      <trkpt lat="62.633871383025" lon="17.980781052945">
        <ele>90</ele>
        <time>2017-12-03T17:34:40Z</time>
      </trkpt>
      <trkpt lat="62.633883872056" lon="17.980714500659">
        <ele>90</ele>
        <time>2017-12-03T17:34:41Z</time>
      </trkpt>
      <trkpt lat="62.633901390227" lon="17.980646439631">
        <ele>90</ele>
        <time>2017-12-03T17:34:42Z</time>
      </trkpt>
      <trkpt lat="62.633917567294" lon="17.980582234277">
        <ele>90.4</ele>
        <time>2017-12-03T17:34:43Z</time>
      </trkpt>
      <trkpt lat="62.633938522044" lon="17.980516771638">
        <ele>90.4</ele>
        <time>2017-12-03T17:34:44Z</time>
      </trkpt>
      <trkpt lat="62.633956626948" lon="17.980455248492">
        <ele>90.6</ele>
        <time>2017-12-03T17:34:45Z</time>
      </trkpt>
      <trkpt lat="62.633972133463" lon="17.980396156097">
        <ele>90.6</ele>
        <time>2017-12-03T17:34:46Z</time>
      </trkpt>
      <trkpt lat="62.633996608611" lon="17.980326837784">
        <ele>90.8</ele>
        <time>2017-12-03T17:34:47Z</time>
      </trkpt>
      <trkpt lat="62.634010690203" lon="17.980261710421">
        <ele>90.6</ele>
        <time>2017-12-03T17:34:48Z</time>
      </trkpt>
      <trkpt lat="62.63402770546" lon="17.980219298007">
        <ele>90.8</ele>
        <time>2017-12-03T17:34:49Z</time>
      </trkpt>
      <trkpt lat="62.63405201297" lon="17.980169006607">
        <ele>90.8</ele>
        <time>2017-12-03T17:34:50Z</time>
      </trkpt>
      <trkpt lat="62.634072548625" lon="17.980119218121">
        <ele>91</ele>
        <time>2017-12-03T17:34:51Z</time>
      </trkpt>
      <trkpt lat="62.634104399845" lon="17.98006062864">
        <ele>91</ele>
        <time>2017-12-03T17:34:52Z</time>
      </trkpt>
      <trkpt lat="62.634138011264" lon="17.980018383864">
        <ele>90.8</ele>
        <time>2017-12-03T17:34:53Z</time>
      </trkpt>
      <trkpt lat="62.634169275751" lon="17.979976725821">
        <ele>90.8</ele>
        <time>2017-12-03T17:34:54Z</time>
      </trkpt>
      <trkpt lat="62.634201043152" lon="17.979930373914">
        <ele>91</ele>
        <time>2017-12-03T17:34:55Z</time>
      </trkpt>
      <trkpt lat="62.634218226047" lon="17.979860971782">
        <ele>91</ele>
        <time>2017-12-03T17:34:56Z</time>
      </trkpt>
      <trkpt lat="62.634238174969" lon="17.979789977089">
        <ele>91</ele>
        <time>2017-12-03T17:34:57Z</time>
      </trkpt>
      <trkpt lat="62.634257956253" lon="17.979720491138">
        <ele>91</ele>
        <time>2017-12-03T17:34:58Z</time>
      </trkpt>
      <trkpt lat="62.634266924886" lon="17.97965075373">
        <ele>90.8</ele>
        <time>2017-12-03T17:34:59Z</time>
      </trkpt>
      <trkpt lat="62.634280671202" lon="17.979577915019">
        <ele>91</ele>
        <time>2017-12-03T17:35:00Z</time>
      </trkpt>
      <trkpt lat="62.634294920432" lon="17.979514380217">
        <ele>91</ele>
        <time>2017-12-03T17:35:01Z</time>
      </trkpt>
      <trkpt lat="62.634310091671" lon="17.979451767424">
        <ele>90.8</ele>
        <time>2017-12-03T17:35:02Z</time>
      </trkpt>
      <trkpt lat="62.634320401408" lon="17.979391669201">
        <ele>90.8</ele>
        <time>2017-12-03T17:35:03Z</time>
      </trkpt>
      <trkpt lat="62.634347474945" lon="17.97932218325">
        <ele>90.6</ele>
        <time>2017-12-03T17:35:04Z</time>
      </trkpt>
      <trkpt lat="62.634358622872" lon="17.979250350367">
        <ele>90.4</ele>
        <time>2017-12-03T17:35:05Z</time>
      </trkpt>
      <trkpt lat="62.634361388899" lon="17.979176254371">
        <ele>90.4</ele>
        <time>2017-12-03T17:35:06Z</time>
      </trkpt>
      <trkpt lat="62.634379912898" lon="17.979105427316">
        <ele>90.6</ele>
        <time>2017-12-03T17:35:07Z</time>
      </trkpt>
      <trkpt lat="62.634400280915" lon="17.979044993817">
        <ele>90.6</ele>
        <time>2017-12-03T17:35:08Z</time>
      </trkpt>
      <trkpt lat="62.634419224009" lon="17.978986823431">
        <ele>90.6</ele>
        <time>2017-12-03T17:35:09Z</time>
      </trkpt>
      <trkpt lat="62.634435233438" lon="17.978925300285">
        <ele>90.8</ele>
        <time>2017-12-03T17:35:10Z</time>
      </trkpt>
      <trkpt lat="62.634449901763" lon="17.978872494315">
        <ele>90.6</ele>
        <time>2017-12-03T17:35:11Z</time>
      </trkpt>
      <trkpt lat="62.634469766866" lon="17.978813904834">
        <ele>90.4</ele>
        <time>2017-12-03T17:35:12Z</time>
      </trkpt>
      <trkpt lat="62.634494828747" lon="17.978776437741">
        <ele>90.4</ele>
        <time>2017-12-03T17:35:13Z</time>
      </trkpt>
      <trkpt lat="62.634541432111" lon="17.97875724319">
        <ele>90.2</ele>
        <time>2017-12-03T17:35:15Z</time>
      </trkpt>
      <trkpt lat="62.634562805956" lon="17.978754141887">
        <ele>90.4</ele>
        <time>2017-12-03T17:35:16Z</time>
      </trkpt>
      <trkpt lat="62.634582000507" lon="17.978744921797">
        <ele>90.4</ele>
        <time>2017-12-03T17:35:17Z</time>
      </trkpt>
      <trkpt lat="62.634599937773" lon="17.97874467034">
        <ele>89.6</ele>
        <time>2017-12-03T17:35:18Z</time>
      </trkpt>
      <trkpt lat="62.634622485084" lon="17.978756907914">
        <ele>89.6</ele>
        <time>2017-12-03T17:35:19Z</time>
      </trkpt>
      <trkpt lat="62.63465048063" lon="17.978776270103">
        <ele>89.6</ele>
        <time>2017-12-03T17:35:20Z</time>
      </trkpt>
      <trkpt lat="62.634674369045" lon="17.978791525161">
        <ele>89.6</ele>
        <time>2017-12-03T17:35:21Z</time>
      </trkpt>
      <trkpt lat="62.634705382075" lon="17.978809797703">
        <ele>89.6</ele>
        <time>2017-12-03T17:35:22Z</time>
      </trkpt>
      <trkpt lat="62.634734634906" lon="17.978828573159">
        <ele>89.4</ele>
        <time>2017-12-03T17:35:23Z</time>
      </trkpt>
      <trkpt lat="62.634765061203" lon="17.978848354443">
        <ele>89.4</ele>
        <time>2017-12-03T17:35:24Z</time>
      </trkpt>
      <trkpt lat="62.634790709817" lon="17.978866040252">
        <ele>90</ele>
        <time>2017-12-03T17:35:25Z</time>
      </trkpt>
      <trkpt lat="62.634823566865" lon="17.978882301138">
        <ele>89.8</ele>
        <time>2017-12-03T17:35:26Z</time>
      </trkpt>
      <trkpt lat="62.634851310954" lon="17.97889722092">
        <ele>89.6</ele>
        <time>2017-12-03T17:35:27Z</time>
      </trkpt>
      <trkpt lat="62.634880396147" lon="17.978915912557">
        <ele>89.4</ele>
        <time>2017-12-03T17:35:28Z</time>
      </trkpt>
      <trkpt lat="62.634904703657" lon="17.978927144303">
        <ele>89.2</ele>
        <time>2017-12-03T17:35:29Z</time>
      </trkpt>
      <trkpt lat="62.634929011167" lon="17.978940387705">
        <ele>89.2</ele>
        <time>2017-12-03T17:35:30Z</time>
      </trkpt>
      <trkpt lat="62.634951223202" lon="17.978951870908">
        <ele>89.2</ele>
        <time>2017-12-03T17:35:31Z</time>
      </trkpt>
      <trkpt lat="62.634973519056" lon="17.978962096826">
        <ele>89</ele>
        <time>2017-12-03T17:35:32Z</time>
      </trkpt>
      <trkpt lat="62.634991456322" lon="17.978973077115">
        <ele>89.2</ele>
        <time>2017-12-03T17:35:33Z</time>
      </trkpt>
      <trkpt lat="62.635012746348" lon="17.978979698816">
        <ele>89.2</ele>
        <time>2017-12-03T17:35:34Z</time>
      </trkpt>
      <trkpt lat="62.63503437165" lon="17.978983973585">
        <ele>89.4</ele>
        <time>2017-12-03T17:35:35Z</time>
      </trkpt>
      <trkpt lat="62.635056248409" lon="17.978991433476">
        <ele>89.6</ele>
        <time>2017-12-03T17:35:36Z</time>
      </trkpt>
      <trkpt lat="62.63508382486" lon="17.979004173964">
        <ele>89.6</ele>
        <time>2017-12-03T17:35:37Z</time>
      </trkpt>
      <trkpt lat="62.635111401311" lon="17.979018004099">
        <ele>89.6</ele>
        <time>2017-12-03T17:35:38Z</time>
      </trkpt>
      <trkpt lat="62.635139732133" lon="17.97902546399">
        <ele>89.6</ele>
        <time>2017-12-03T17:35:39Z</time>
      </trkpt>
      <trkpt lat="62.635171248077" lon="17.97903133132">
        <ele>89.4</ele>
        <time>2017-12-03T17:35:40Z</time>
      </trkpt>
      <trkpt lat="62.635200081813" lon="17.979039042668">
        <ele>89.2</ele>
        <time>2017-12-03T17:35:41Z</time>
      </trkpt>
      <trkpt lat="62.635230172834" lon="17.979049436224">
        <ele>89.2</ele>
        <time>2017-12-03T17:35:42Z</time>
      </trkpt>
      <trkpt lat="62.635261018226" lon="17.97905982978">
        <ele>89</ele>
        <time>2017-12-03T17:35:43Z</time>
      </trkpt>
      <trkpt lat="62.635286247745" lon="17.979068714594">
        <ele>88.8</ele>
        <time>2017-12-03T17:35:44Z</time>
      </trkpt>
      <trkpt lat="62.635312483092" lon="17.979070474793">
        <ele>88.8</ele>
        <time>2017-12-03T17:35:45Z</time>
      </trkpt>
      <trkpt lat="62.635342993208" lon="17.979077180313">
        <ele>88.6</ele>
        <time>2017-12-03T17:35:46Z</time>
      </trkpt>
      <trkpt lat="62.635377358998" lon="17.9790832991">
        <ele>88.4</ele>
        <time>2017-12-03T17:35:47Z</time>
      </trkpt>
      <trkpt lat="62.635410216046" lon="17.979085143118">
        <ele>88.2</ele>
        <time>2017-12-03T17:35:48Z</time>
      </trkpt>
      <trkpt lat="62.635443743646" lon="17.979088076783">
        <ele>88.2</ele>
        <time>2017-12-03T17:35:49Z</time>
      </trkpt>
      <trkpt lat="62.635485401689" lon="17.979104672945">
        <ele>88</ele>
        <time>2017-12-03T17:35:50Z</time>
      </trkpt>
      <trkpt lat="62.635520773307" lon="17.979108528619">
        <ele>87.8</ele>
        <time>2017-12-03T17:35:51Z</time>
      </trkpt>
      <trkpt lat="62.635562766626" lon="17.979105259678">
        <ele>87.8</ele>
        <time>2017-12-03T17:35:52Z</time>
      </trkpt>
      <trkpt lat="62.635601742461" lon="17.979098637977">
        <ele>87.6</ele>
        <time>2017-12-03T17:35:53Z</time>
      </trkpt>
      <trkpt lat="62.635642310857" lon="17.97909084281">
        <ele>87.4</ele>
        <time>2017-12-03T17:35:54Z</time>
      </trkpt>
      <trkpt lat="62.635684723271" lon="17.979085729851">
        <ele>87.2</ele>
        <time>2017-12-03T17:35:55Z</time>
      </trkpt>
      <trkpt lat="62.635717831776" lon="17.97908497548">
        <ele>87.2</ele>
        <time>2017-12-03T17:35:56Z</time>
      </trkpt>
      <trkpt lat="62.635752868118" lon="17.979083802014">
        <ele>87</ele>
        <time>2017-12-03T17:35:57Z</time>
      </trkpt>
      <trkpt lat="62.635790754306" lon="17.979084891661">
        <ele>87</ele>
        <time>2017-12-03T17:35:58Z</time>
      </trkpt>
      <trkpt lat="62.635825874467" lon="17.979089836982">
        <ele>86.8</ele>
        <time>2017-12-03T17:35:59Z</time>
      </trkpt>
      <trkpt lat="62.635856049307" lon="17.979091597181">
        <ele>86.6</ele>
        <time>2017-12-03T17:36:00Z</time>
      </trkpt>
      <trkpt lat="62.635880775912" lon="17.979099476167">
        <ele>86.6</ele>
        <time>2017-12-03T17:36:01Z</time>
      </trkpt>
      <trkpt lat="62.63590357468" lon="17.979108277162">
        <ele>86.4</ele>
        <time>2017-12-03T17:36:02Z</time>
      </trkpt>
      <trkpt lat="62.63592117667" lon="17.979114060673">
        <ele>86.2</ele>
        <time>2017-12-03T17:36:03Z</time>
      </trkpt>
      <trkpt lat="62.635937269918" lon="17.97912353222">
        <ele>86.2</ele>
        <time>2017-12-03T17:36:04Z</time>
      </trkpt>
      <trkpt lat="62.635950010406" lon="17.979123280763">
        <ele>86.2</ele>
        <time>2017-12-03T17:36:05Z</time>
      </trkpt>
      <trkpt lat="62.635964091998" lon="17.979127052618">
        <ele>86.2</ele>
        <time>2017-12-03T17:36:06Z</time>
      </trkpt>
      <trkpt lat="62.63597901178" lon="17.979135015423">
        <ele>86.2</ele>
        <time>2017-12-03T17:36:07Z</time>
      </trkpt>
      <trkpt lat="62.635992758096" lon="17.979145241341">
        <ele>86.4</ele>
        <time>2017-12-03T17:36:08Z</time>
      </trkpt>
      <trkpt lat="62.636003822204" lon="17.97916125077">
        <ele>86.6</ele>
        <time>2017-12-03T17:36:09Z</time>
      </trkpt>
      <trkpt lat="62.636011198276" lon="17.979178685122">
        <ele>86.8</ele>
        <time>2017-12-03T17:36:10Z</time>
      </trkpt>
      <trkpt lat="62.636017317063" lon="17.979200058967">
        <ele>87</ele>
        <time>2017-12-03T17:36:11Z</time>
      </trkpt>
      <trkpt lat="62.636023687307" lon="17.979229563255">
        <ele>87</ele>
        <time>2017-12-03T17:36:12Z</time>
      </trkpt>
      <trkpt lat="62.63602595042" lon="17.979258816086">
        <ele>87.2</ele>
        <time>2017-12-03T17:36:13Z</time>
      </trkpt>
      <trkpt lat="62.63602511223" lon="17.979278262094">
        <ele>87.2</ele>
        <time>2017-12-03T17:36:14Z</time>
      </trkpt>
      <trkpt lat="62.636023938764" lon="17.979288152736">
        <ele>87</ele>
        <time>2017-12-03T17:36:15Z</time>
      </trkpt>
      <trkpt lat="62.636024022583" lon="17.979292343686">
        <ele>87</ele>
        <time>2017-12-03T17:36:16Z</time>
      </trkpt>
      <trkpt lat="62.635994685933" lon="17.979788384528">
        <ele>86.6</ele>
        <time>2017-12-03T17:36:31Z</time>
      </trkpt>
      <trkpt lat="62.636005079489" lon="17.979978653658">
        <ele>85.4</ele>
        <time>2017-12-03T17:36:32Z</time>
      </trkpt>
      <trkpt lat="62.636018071434" lon="17.980117290284">
        <ele>84.2</ele>
        <time>2017-12-03T17:36:33Z</time>
      </trkpt>
      <trkpt lat="62.636042127487" lon="17.980280485877">
        <ele>83</ele>
        <time>2017-12-03T17:36:34Z</time>
      </trkpt>
      <trkpt lat="62.636066099721" lon="17.980430102792">
        <ele>82</ele>
        <time>2017-12-03T17:36:35Z</time>
      </trkpt>
      <trkpt lat="62.636092670344" lon="17.980580138802">
        <ele>80.8</ele>
        <time>2017-12-03T17:36:36Z</time>
      </trkpt>
      <trkpt lat="62.636122845184" lon="17.98073620978">
        <ele>80.2</ele>
        <time>2017-12-03T17:36:37Z</time>
      </trkpt>
      <trkpt lat="62.636152098015" lon="17.980882138659">
        <ele>79.8</ele>
        <time>2017-12-03T17:36:38Z</time>
      </trkpt>
      <trkpt lat="62.636174812964" lon="17.981019601819">
        <ele>79.4</ele>
        <time>2017-12-03T17:36:39Z</time>
      </trkpt>
      <trkpt lat="62.636195097162" lon="17.981181540127">
        <ele>79</ele>
        <time>2017-12-03T17:36:40Z</time>
      </trkpt>
      <trkpt lat="62.636210016944" lon="17.981329061567">
        <ele>78.8</ele>
        <time>2017-12-03T17:36:41Z</time>
      </trkpt>
      <trkpt lat="62.636217225378" lon="17.981482366518">
        <ele>78.6</ele>
        <time>2017-12-03T17:36:42Z</time>
      </trkpt>
      <trkpt lat="62.636228540943" lon="17.981624020628">
        <ele>78.4</ele>
        <time>2017-12-03T17:36:43Z</time>
      </trkpt>
      <trkpt lat="62.636239102137" lon="17.981758382485">
        <ele>78.2</ele>
        <time>2017-12-03T17:36:44Z</time>
      </trkpt>
      <trkpt lat="62.636244550372" lon="17.981886457917">
        <ele>78.2</ele>
        <time>2017-12-03T17:36:45Z</time>
      </trkpt>
      <trkpt lat="62.636253770462" lon="17.982016042091">
        <ele>78</ele>
        <time>2017-12-03T17:36:46Z</time>
      </trkpt>
      <trkpt lat="62.636260056887" lon="17.982149481939">
        <ele>78</ele>
        <time>2017-12-03T17:36:47Z</time>
      </trkpt>
      <trkpt lat="62.636261984724" lon="17.982264565426">
        <ele>78</ele>
        <time>2017-12-03T17:36:48Z</time>
      </trkpt>
      <trkpt lat="62.636263661104" lon="17.982359448534">
        <ele>78</ele>
        <time>2017-12-03T17:36:49Z</time>
      </trkpt>
      <trkpt lat="62.636267432959" lon="17.982479058247">
        <ele>78</ele>
        <time>2017-12-03T17:36:50Z</time>
      </trkpt>
      <trkpt lat="62.636278580886" lon="17.982561703781">
        <ele>78</ele>
        <time>2017-12-03T17:36:51Z</time>
      </trkpt>
      <trkpt lat="62.636281095456" lon="17.982673015413">
        <ele>78.6</ele>
        <time>2017-12-03T17:36:52Z</time>
      </trkpt>
      <trkpt lat="62.63628076018" lon="17.982764126666">
        <ele>79</ele>
        <time>2017-12-03T17:36:53Z</time>
      </trkpt>
      <trkpt lat="62.636285454044" lon="17.98285012496">
        <ele>79.2</ele>
        <time>2017-12-03T17:36:54Z</time>
      </trkpt>
      <trkpt lat="62.636288639166" lon="17.982943834602">
        <ele>79.6</ele>
        <time>2017-12-03T17:36:55Z</time>
      </trkpt>
      <trkpt lat="62.636293081573" lon="17.983012817639">
        <ele>80</ele>
        <time>2017-12-03T17:36:56Z</time>
      </trkpt>
      <trkpt lat="62.636299116541" lon="17.983078615554">
        <ele>80</ele>
        <time>2017-12-03T17:36:57Z</time>
      </trkpt>
      <trkpt lat="62.636300122369" lon="17.983181796743">
        <ele>80.2</ele>
        <time>2017-12-03T17:36:58Z</time>
      </trkpt>
      <trkpt lat="62.636300457645" lon="17.983258658766">
        <ele>80.2</ele>
        <time>2017-12-03T17:36:59Z</time>
      </trkpt>
      <trkpt lat="62.636301379654" lon="17.983337867721">
        <ele>80.2</ele>
        <time>2017-12-03T17:37:00Z</time>
      </trkpt>
      <trkpt lat="62.636294506496" lon="17.983420597074">
        <ele>80.2</ele>
        <time>2017-12-03T17:37:01Z</time>
      </trkpt>
      <trkpt lat="62.636287046605" lon="17.983497040002">
        <ele>80.2</ele>
        <time>2017-12-03T17:37:02Z</time>
      </trkpt>
      <trkpt lat="62.636277155963" lon="17.983561329175">
        <ele>80.2</ele>
        <time>2017-12-03T17:37:03Z</time>
      </trkpt>
      <trkpt lat="62.636270115167" lon="17.983630815126">
        <ele>80.2</ele>
        <time>2017-12-03T17:37:04Z</time>
      </trkpt>
      <trkpt lat="62.636264583113" lon="17.983703989113">
        <ele>80.2</ele>
        <time>2017-12-03T17:37:05Z</time>
      </trkpt>
      <trkpt lat="62.636257961412" lon="17.983772050141">
        <ele>80.4</ele>
        <time>2017-12-03T17:37:06Z</time>
      </trkpt>
      <trkpt lat="62.636248238408" lon="17.983850337087">
        <ele>80.6</ele>
        <time>2017-12-03T17:37:07Z</time>
      </trkpt>
      <trkpt lat="62.636246645847" lon="17.983918062839">
        <ele>80.6</ele>
        <time>2017-12-03T17:37:08Z</time>
      </trkpt>
      <trkpt lat="62.636237928671" lon="17.983985537134">
        <ele>80.8</ele>
        <time>2017-12-03T17:37:09Z</time>
      </trkpt>
      <trkpt lat="62.636228289486" lon="17.984063991718">
        <ele>81</ele>
        <time>2017-12-03T17:37:10Z</time>
      </trkpt>
      <trkpt lat="62.636218650301" lon="17.984131046918">
        <ele>81.2</ele>
        <time>2017-12-03T17:37:11Z</time>
      </trkpt>
      <trkpt lat="62.636216973921" lon="17.984186283639">
        <ele>81.4</ele>
        <time>2017-12-03T17:37:12Z</time>
      </trkpt>
      <trkpt lat="62.636206831822" lon="17.984257110694">
        <ele>81.4</ele>
        <time>2017-12-03T17:37:13Z</time>
      </trkpt>
      <trkpt lat="62.636200545397" lon="17.984327518654">
        <ele>81.6</ele>
        <time>2017-12-03T17:37:14Z</time>
      </trkpt>
      <trkpt lat="62.636195516257" lon="17.984387784515">
        <ele>81.8</ele>
        <time>2017-12-03T17:37:15Z</time>
      </trkpt>
      <trkpt lat="62.636192666411" lon="17.984450648765">
        <ele>81.8</ele>
        <time>2017-12-03T17:37:16Z</time>
      </trkpt>
      <trkpt lat="62.636202473234" lon="17.984523738933">
        <ele>81.8</ele>
        <time>2017-12-03T17:37:17Z</time>
      </trkpt>
      <trkpt lat="62.636207250917" lon="17.984585848812">
        <ele>82</ele>
        <time>2017-12-03T17:37:18Z</time>
      </trkpt>
      <trkpt lat="62.636203311424" lon="17.984650305623">
        <ele>82.2</ele>
        <time>2017-12-03T17:37:19Z</time>
      </trkpt>
      <trkpt lat="62.63619358842" lon="17.984712750778">
        <ele>82.2</ele>
        <time>2017-12-03T17:37:20Z</time>
      </trkpt>
      <trkpt lat="62.636185541796" lon="17.984765137653">
        <ele>82.2</ele>
        <time>2017-12-03T17:37:21Z</time>
      </trkpt>
      <trkpt lat="62.636182859588" lon="17.984840071839">
        <ele>82.4</ele>
        <time>2017-12-03T17:37:22Z</time>
      </trkpt>
      <trkpt lat="62.636179674466" lon="17.984892039619">
        <ele>82.6</ele>
        <time>2017-12-03T17:37:23Z</time>
      </trkpt>
      <trkpt lat="62.636168777996" lon="17.984954233317">
        <ele>82.6</ele>
        <time>2017-12-03T17:37:24Z</time>
      </trkpt>
      <trkpt lat="62.636169113272" lon="17.985015253549">
        <ele>82.8</ele>
        <time>2017-12-03T17:37:25Z</time>
      </trkpt>
      <trkpt lat="62.636166263426" lon="17.985068394795">
        <ele>83</ele>
        <time>2017-12-03T17:37:26Z</time>
      </trkpt>
      <trkpt lat="62.63615754625" lon="17.985125978448">
        <ele>83.2</ele>
        <time>2017-12-03T17:37:27Z</time>
      </trkpt>
      <trkpt lat="62.636159557906" lon="17.985175599296">
        <ele>83.2</ele>
        <time>2017-12-03T17:37:28Z</time>
      </trkpt>
      <trkpt lat="62.636162910666" lon="17.985238463546">
        <ele>83.4</ele>
        <time>2017-12-03T17:37:29Z</time>
      </trkpt>
      <trkpt lat="62.636159893182" lon="17.985297891217">
        <ele>83.4</ele>
        <time>2017-12-03T17:37:30Z</time>
      </trkpt>
      <trkpt lat="62.636156121327" lon="17.985349272264">
        <ele>83.4</ele>
        <time>2017-12-03T17:37:31Z</time>
      </trkpt>
      <trkpt lat="62.636138184061" lon="17.985422027156">
        <ele>83.6</ele>
        <time>2017-12-03T17:37:32Z</time>
      </trkpt>
      <trkpt lat="62.636125946487" lon="17.985478185886">
        <ele>83.4</ele>
        <time>2017-12-03T17:37:33Z</time>
      </trkpt>
      <trkpt lat="62.636119240967" lon="17.985547755656">
        <ele>83.6</ele>
        <time>2017-12-03T17:37:34Z</time>
      </trkpt>
      <trkpt lat="62.636101890434" lon="17.985611793372">
        <ele>83.6</ele>
        <time>2017-12-03T17:37:35Z</time>
      </trkpt>
      <trkpt lat="62.636082192969" lon="17.985659067288">
        <ele>83.6</ele>
        <time>2017-12-03T17:37:36Z</time>
      </trkpt>
      <trkpt lat="62.636064004246" lon="17.985709945421">
        <ele>83.6</ele>
        <time>2017-12-03T17:37:37Z</time>
      </trkpt>
      <trkpt lat="62.636045815523" lon="17.985754369491">
        <ele>83.8</ele>
        <time>2017-12-03T17:37:38Z</time>
      </trkpt>
      <trkpt lat="62.636022430022" lon="17.985792339498">
        <ele>84</ele>
        <time>2017-12-03T17:37:39Z</time>
      </trkpt>
      <trkpt lat="62.635999631254" lon="17.985833578446">
        <ele>84.2</ele>
        <time>2017-12-03T17:37:40Z</time>
      </trkpt>
      <trkpt lat="62.635975826658" lon="17.985863753286">
        <ele>84.4</ele>
        <time>2017-12-03T17:37:41Z</time>
      </trkpt>
      <trkpt lat="62.635941377049" lon="17.985894179583">
        <ele>84.6</ele>
        <time>2017-12-03T17:37:42Z</time>
      </trkpt>
      <trkpt lat="62.635910615476" lon="17.985925695527">
        <ele>84.8</ele>
        <time>2017-12-03T17:37:43Z</time>
      </trkpt>
      <trkpt lat="62.635883039025" lon="17.985946315001">
        <ele>84.8</ele>
        <time>2017-12-03T17:37:44Z</time>
      </trkpt>
      <trkpt lat="62.635859569705" lon="17.985976741298">
        <ele>84.8</ele>
        <time>2017-12-03T17:37:45Z</time>
      </trkpt>
      <trkpt lat="62.635838112041" lon="17.986001551722">
        <ele>85</ele>
        <time>2017-12-03T17:37:46Z</time>
      </trkpt>
      <trkpt lat="62.635813972169" lon="17.986016974418">
        <ele>84.8</ele>
        <time>2017-12-03T17:37:47Z</time>
      </trkpt>
      <trkpt lat="62.635792430686" lon="17.986039605548">
        <ele>85</ele>
        <time>2017-12-03T17:37:48Z</time>
      </trkpt>
      <trkpt lat="62.635768458452" lon="17.986069696569">
        <ele>85</ele>
        <time>2017-12-03T17:37:49Z</time>
      </trkpt>
      <trkpt lat="62.635743061295" lon="17.986113785363">
        <ele>85</ele>
        <time>2017-12-03T17:37:50Z</time>
      </trkpt>
      <trkpt lat="62.635728476789" lon="17.986146139497">
        <ele>85</ele>
        <time>2017-12-03T17:37:51Z</time>
      </trkpt>
      <trkpt lat="62.635708527867" lon="17.986189809196">
        <ele>85.2</ele>
        <time>2017-12-03T17:37:52Z</time>
      </trkpt>
      <trkpt lat="62.635691847886" lon="17.986225935185">
        <ele>85.2</ele>
        <time>2017-12-03T17:37:53Z</time>
      </trkpt>
      <trkpt lat="62.635672569516" lon="17.986262899364">
        <ele>85.4</ele>
        <time>2017-12-03T17:37:54Z</time>
      </trkpt>
      <trkpt lat="62.635654799888" lon="17.986300282638">
        <ele>85.6</ele>
        <time>2017-12-03T17:37:55Z</time>
      </trkpt>
      <trkpt lat="62.635639880106" lon="17.986339258473">
        <ele>85.8</ele>
        <time>2017-12-03T17:37:56Z</time>
      </trkpt>
      <trkpt lat="62.635622613392" lon="17.986385358923">
        <ele>86.2</ele>
        <time>2017-12-03T17:37:57Z</time>
      </trkpt>
      <trkpt lat="62.6356001499" lon="17.986429615355">
        <ele>86.4</ele>
        <time>2017-12-03T17:37:58Z</time>
      </trkpt>
      <trkpt lat="62.635582799367" lon="17.986478733289">
        <ele>86.4</ele>
        <time>2017-12-03T17:37:59Z</time>
      </trkpt>
      <trkpt lat="62.63557332782" lon="17.986528186499">
        <ele>86.6</ele>
        <time>2017-12-03T17:38:00Z</time>
      </trkpt>
      <trkpt lat="62.635562012255" lon="17.986574538406">
        <ele>86.6</ele>
        <time>2017-12-03T17:38:01Z</time>
      </trkpt>
      <trkpt lat="62.635543823532" lon="17.986621560865">
        <ele>86.6</ele>
        <time>2017-12-03T17:38:02Z</time>
      </trkpt>
      <trkpt lat="62.635532088872" lon="17.986664476193">
        <ele>86.8</ele>
        <time>2017-12-03T17:38:03Z</time>
      </trkpt>
      <trkpt lat="62.635513145778" lon="17.986709235539">
        <ele>87</ele>
        <time>2017-12-03T17:38:04Z</time>
      </trkpt>
      <trkpt lat="62.635491352838" lon="17.986760197491">
        <ele>87</ele>
        <time>2017-12-03T17:38:05Z</time>
      </trkpt>
      <trkpt lat="62.635479785816" lon="17.986810991805">
        <ele>87.2</ele>
        <time>2017-12-03T17:38:06Z</time>
      </trkpt>
      <trkpt lat="62.635456735591" lon="17.986860612653">
        <ele>87.4</ele>
        <time>2017-12-03T17:38:07Z</time>
      </trkpt>
      <trkpt lat="62.635432344262" lon="17.986903863257">
        <ele>87.6</ele>
        <time>2017-12-03T17:38:08Z</time>
      </trkpt>
      <trkpt lat="62.63541323353" lon="17.986940827436">
        <ele>87.6</ele>
        <time>2017-12-03T17:38:09Z</time>
      </trkpt>
      <trkpt lat="62.63539646973" lon="17.98697653433">
        <ele>87.6</ele>
        <time>2017-12-03T17:38:10Z</time>
      </trkpt>
      <trkpt lat="62.63538305869" lon="17.987015258708">
        <ele>87.8</ele>
        <time>2017-12-03T17:38:11Z</time>
      </trkpt>
      <trkpt lat="62.635362355397" lon="17.987065969203">
        <ele>87.8</ele>
        <time>2017-12-03T17:38:12Z</time>
      </trkpt>
      <trkpt lat="62.635338550801" lon="17.987103184839">
        <ele>88</ele>
        <time>2017-12-03T17:38:13Z</time>
      </trkpt>
      <trkpt lat="62.635319607707" lon="17.98715087785">
        <ele>88</ele>
        <time>2017-12-03T17:38:14Z</time>
      </trkpt>
      <trkpt lat="62.63530091607" lon="17.987191781522">
        <ele>88.2</ele>
        <time>2017-12-03T17:38:15Z</time>
      </trkpt>
      <trkpt lat="62.635279206949" lon="17.987237546696">
        <ele>88.2</ele>
        <time>2017-12-03T17:38:16Z</time>
      </trkpt>
      <trkpt lat="62.635258000742" lon="17.987281551671">
        <ele>88.4</ele>
        <time>2017-12-03T17:38:17Z</time>
      </trkpt>
      <trkpt lat="62.635230759567" lon="17.987323377352">
        <ele>88.4</ele>
        <time>2017-12-03T17:38:18Z</time>
      </trkpt>
      <trkpt lat="62.635210894464" lon="17.987360676807">
        <ele>88.6</ele>
        <time>2017-12-03T17:38:19Z</time>
      </trkpt>
      <trkpt lat="62.635190694085" lon="17.987400742289">
        <ele>88.6</ele>
        <time>2017-12-03T17:38:20Z</time>
      </trkpt>
      <trkpt lat="62.635171415715" lon="17.987436113907">
        <ele>88.8</ele>
        <time>2017-12-03T17:38:21Z</time>
      </trkpt>
      <trkpt lat="62.63514668911" lon="17.987486740583">
        <ele>88.8</ele>
        <time>2017-12-03T17:38:22Z</time>
      </trkpt>
      <trkpt lat="62.635128165111" lon="17.987524878228">
        <ele>89</ele>
        <time>2017-12-03T17:38:23Z</time>
      </trkpt>
      <trkpt lat="62.635105701619" lon="17.987570475764">
        <ele>89</ele>
        <time>2017-12-03T17:38:24Z</time>
      </trkpt>
      <trkpt lat="62.635088267267" lon="17.987617665861">
        <ele>89.2</ele>
        <time>2017-12-03T17:38:25Z</time>
      </trkpt>
      <trkpt lat="62.635069240354" lon="17.987659072447">
        <ele>89.4</ele>
        <time>2017-12-03T17:38:26Z</time>
      </trkpt>
      <trkpt lat="62.635044262292" lon="17.987702239232">
        <ele>89.6</ele>
        <time>2017-12-03T17:38:27Z</time>
      </trkpt>
      <trkpt lat="62.635022385533" lon="17.987743394361">
        <ele>90</ele>
        <time>2017-12-03T17:38:28Z</time>
      </trkpt>
      <trkpt lat="62.634997658928" lon="17.987782286377">
        <ele>90</ele>
        <time>2017-12-03T17:38:29Z</time>
      </trkpt>
      <trkpt lat="62.634974357246" lon="17.987820004927">
        <ele>90</ele>
        <time>2017-12-03T17:38:30Z</time>
      </trkpt>
      <trkpt lat="62.634955246514" lon="17.987857723477">
        <ele>90.2</ele>
        <time>2017-12-03T17:38:31Z</time>
      </trkpt>
      <trkpt lat="62.634929514081" lon="17.98789686695">
        <ele>90.2</ele>
        <time>2017-12-03T17:38:32Z</time>
      </trkpt>
      <trkpt lat="62.634902859639" lon="17.987936764794">
        <ele>90.2</ele>
        <time>2017-12-03T17:38:33Z</time>
      </trkpt>
      <trkpt lat="62.63488098288" lon="17.987965430892">
        <ele>90.4</ele>
        <time>2017-12-03T17:38:34Z</time>
      </trkpt>
      <trkpt lat="62.634857010646" lon="17.987990073678">
        <ele>90.4</ele>
        <time>2017-12-03T17:38:35Z</time>
      </trkpt>
      <trkpt lat="62.63483404424" lon="17.988015806111">
        <ele>90.4</ele>
        <time>2017-12-03T17:38:36Z</time>
      </trkpt>
      <trkpt lat="62.63481057492" lon="17.98803935925">
        <ele>90.6</ele>
        <time>2017-12-03T17:38:37Z</time>
      </trkpt>
      <trkpt lat="62.63478291465" lon="17.988050004263">
        <ele>90.8</ele>
        <time>2017-12-03T17:38:38Z</time>
      </trkpt>
      <trkpt lat="62.634758523321" lon="17.98805360848">
        <ele>91.2</ele>
        <time>2017-12-03T17:38:39Z</time>
      </trkpt>
      <trkpt lat="62.634732371793" lon="17.988063834398">
        <ele>91.2</ele>
        <time>2017-12-03T17:38:40Z</time>
      </trkpt>
      <trkpt lat="62.634710243577" lon="17.988067606253">
        <ele>91.4</ele>
        <time>2017-12-03T17:38:41Z</time>
      </trkpt>
      <trkpt lat="62.634687947723" lon="17.988073138307">
        <ele>91.6</ele>
        <time>2017-12-03T17:38:42Z</time>
      </trkpt>
      <trkpt lat="62.634663472575" lon="17.988075988153">
        <ele>91.6</ele>
        <time>2017-12-03T17:38:43Z</time>
      </trkpt>
      <trkpt lat="62.634631956631" lon="17.988085124424">
        <ele>91.8</ele>
        <time>2017-12-03T17:38:44Z</time>
      </trkpt>
      <trkpt lat="62.634608152035" lon="17.9881022235">
        <ele>91.8</ele>
        <time>2017-12-03T17:38:45Z</time>
      </trkpt>
      <trkpt lat="62.634577641919" lon="17.988117646196">
        <ele>92</ele>
        <time>2017-12-03T17:38:46Z</time>
      </trkpt>
      <trkpt lat="62.634539923369" lon="17.988126028096">
        <ele>92</ele>
        <time>2017-12-03T17:38:47Z</time>
      </trkpt>
      <trkpt lat="62.634513268927" lon="17.988139439136">
        <ele>92.2</ele>
        <time>2017-12-03T17:38:48Z</time>
      </trkpt>
      <trkpt lat="62.634487452675" lon="17.988143546267">
        <ele>92.2</ele>
        <time>2017-12-03T17:38:49Z</time>
      </trkpt>
      <trkpt lat="62.634455349998" lon="17.988153520728">
        <ele>92.4</ele>
        <time>2017-12-03T17:38:50Z</time>
      </trkpt>
      <trkpt lat="62.634432132135" lon="17.988162237904">
        <ele>92.4</ele>
        <time>2017-12-03T17:38:51Z</time>
      </trkpt>
      <trkpt lat="62.63439986182" lon="17.988162656999">
        <ele>92.6</ele>
        <time>2017-12-03T17:38:52Z</time>
      </trkpt>
      <trkpt lat="62.63437220155" lon="17.98817263146">
        <ele>92.8</ele>
        <time>2017-12-03T17:38:53Z</time>
      </trkpt>
      <trkpt lat="62.634347977859" lon="17.988179672256">
        <ele>92.8</ele>
        <time>2017-12-03T17:38:54Z</time>
      </trkpt>
      <trkpt lat="62.634320736684" lon="17.988182438283">
        <ele>92.8</ele>
        <time>2017-12-03T17:38:55Z</time>
      </trkpt>
      <trkpt lat="62.634298524649" lon="17.988182019188">
        <ele>93</ele>
        <time>2017-12-03T17:38:56Z</time>
      </trkpt>
      <trkpt lat="62.634270696741" lon="17.988178079695">
        <ele>93</ele>
        <time>2017-12-03T17:38:57Z</time>
      </trkpt>
      <trkpt lat="62.634241779186" lon="17.988184785215">
        <ele>93.2</ele>
        <time>2017-12-03T17:38:58Z</time>
      </trkpt>
      <trkpt lat="62.634209927966" lon="17.988195346409">
        <ele>93.2</ele>
        <time>2017-12-03T17:38:59Z</time>
      </trkpt>
      <trkpt lat="62.634169946303" lon="17.98819274802">
        <ele>93.2</ele>
        <time>2017-12-03T17:39:00Z</time>
      </trkpt>
      <trkpt lat="62.63414002292" lon="17.98819526259">
        <ele>93.4</ele>
        <time>2017-12-03T17:39:01Z</time>
      </trkpt>
      <trkpt lat="62.634099705981" lon="17.988182270645">
        <ele>93.4</ele>
        <time>2017-12-03T17:39:02Z</time>
      </trkpt>
      <trkpt lat="62.634067184209" lon="17.988173385831">
        <ele>93.4</ele>
        <time>2017-12-03T17:39:03Z</time>
      </trkpt>
      <trkpt lat="62.634035416808" lon="17.988153856004">
        <ele>93.4</ele>
        <time>2017-12-03T17:39:04Z</time>
      </trkpt>
      <trkpt lat="62.634008343271" lon="17.988135583462">
        <ele>93.6</ele>
        <time>2017-12-03T17:39:05Z</time>
      </trkpt>
      <trkpt lat="62.633981269734" lon="17.988122088603">
        <ele>93.6</ele>
        <time>2017-12-03T17:39:06Z</time>
      </trkpt>
      <trkpt lat="62.633946568668" lon="17.988102810233">
        <ele>93.6</ele>
        <time>2017-12-03T17:39:07Z</time>
      </trkpt>
      <trkpt lat="62.633914382172" lon="17.98808713608">
        <ele>93.8</ele>
        <time>2017-12-03T17:39:08Z</time>
      </trkpt>
      <trkpt lat="62.633888398282" lon="17.988070456099">
        <ele>93.8</ele>
        <time>2017-12-03T17:39:09Z</time>
      </trkpt>
      <trkpt lat="62.633855541234" lon="17.988046148589">
        <ele>94</ele>
        <time>2017-12-03T17:39:10Z</time>
      </trkpt>
      <trkpt lat="62.633826120765" lon="17.988024942382">
        <ele>94.2</ele>
        <time>2017-12-03T17:39:11Z</time>
      </trkpt>
      <trkpt lat="62.633791503518" lon="17.987996779198">
        <ele>94.2</ele>
        <time>2017-12-03T17:39:12Z</time>
      </trkpt>
      <trkpt lat="62.633760071393" lon="17.987972555507">
        <ele>94.4</ele>
        <time>2017-12-03T17:39:13Z</time>
      </trkpt>
      <trkpt lat="62.633735512426" lon="17.987943218857">
        <ele>94.6</ele>
        <time>2017-12-03T17:39:14Z</time>
      </trkpt>
      <trkpt lat="62.633706008138" lon="17.987911451456">
        <ele>94.6</ele>
        <time>2017-12-03T17:39:15Z</time>
      </trkpt>
      <trkpt lat="62.633679186058" lon="17.987886305756">
        <ele>94.6</ele>
        <time>2017-12-03T17:39:16Z</time>
      </trkpt>
      <trkpt lat="62.633652028702" lon="17.987859902771">
        <ele>94.6</ele>
        <time>2017-12-03T17:39:17Z</time>
      </trkpt>
      <trkpt lat="62.633627302097" lon="17.987831655768">
        <ele>94.4</ele>
        <time>2017-12-03T17:39:18Z</time>
      </trkpt>
      <trkpt lat="62.633605592976" lon="17.987808773181">
        <ele>94.6</ele>
        <time>2017-12-03T17:39:19Z</time>
      </trkpt>
      <trkpt lat="62.633583800036" lon="17.987784130395">
        <ele>94.6</ele>
        <time>2017-12-03T17:39:20Z</time>
      </trkpt>
      <trkpt lat="62.63356251001" lon="17.987765857853">
        <ele>94.8</ele>
        <time>2017-12-03T17:39:21Z</time>
      </trkpt>
      <trkpt lat="62.633535352654" lon="17.987732078796">
        <ele>95.2</ele>
        <time>2017-12-03T17:39:22Z</time>
      </trkpt>
      <trkpt lat="62.633508195298" lon="17.987698132101">
        <ele>95.6</ele>
        <time>2017-12-03T17:39:23Z</time>
      </trkpt>
      <trkpt lat="62.633482127589" lon="17.987673321677">
        <ele>95.8</ele>
        <time>2017-12-03T17:39:24Z</time>
      </trkpt>
      <trkpt lat="62.63345605988" lon="17.987642392466">
        <ele>96</ele>
        <time>2017-12-03T17:39:25Z</time>
      </trkpt>
      <trkpt lat="62.633433764026" lon="17.987616492395">
        <ele>96.2</ele>
        <time>2017-12-03T17:39:26Z</time>
      </trkpt>
      <trkpt lat="62.633407361041" lon="17.987585479365">
        <ele>96.2</ele>
        <time>2017-12-03T17:39:27Z</time>
      </trkpt>
      <trkpt lat="62.633384562273" lon="17.987549269557">
        <ele>96.4</ele>
        <time>2017-12-03T17:39:28Z</time>
      </trkpt>
      <trkpt lat="62.633367463197" lon="17.987497972329">
        <ele>96.4</ele>
        <time>2017-12-03T17:39:29Z</time>
      </trkpt>
      <trkpt lat="62.633348017189" lon="17.987445753092">
        <ele>96.6</ele>
        <time>2017-12-03T17:39:30Z</time>
      </trkpt>
      <trkpt lat="62.633327397715" lon="17.987391941294">
        <ele>96.6</ele>
        <time>2017-12-03T17:39:31Z</time>
      </trkpt>
      <trkpt lat="62.633306526784" lon="17.98733611784">
        <ele>97</ele>
        <time>2017-12-03T17:39:32Z</time>
      </trkpt>
      <trkpt lat="62.633281800179" lon="17.987276690169">
        <ele>97.2</ele>
        <time>2017-12-03T17:39:33Z</time>
      </trkpt>
      <trkpt lat="62.633255983927" lon="17.987197900309">
        <ele>97.2</ele>
        <time>2017-12-03T17:39:34Z</time>
      </trkpt>
      <trkpt lat="62.633232766064" lon="17.98709388093">
        <ele>97</ele>
        <time>2017-12-03T17:39:35Z</time>
      </trkpt>
      <trkpt lat="62.633210386391" lon="17.986978545986">
        <ele>96.8</ele>
        <time>2017-12-03T17:39:36Z</time>
      </trkpt>
      <trkpt lat="62.633188341994" lon="17.986846531061">
        <ele>95.8</ele>
        <time>2017-12-03T17:39:37Z</time>
      </trkpt>
      <trkpt lat="62.633174511859" lon="17.986719293819">
        <ele>95</ele>
        <time>2017-12-03T17:39:38Z</time>
      </trkpt>
      <trkpt lat="62.633165794683" lon="17.986604210332">
        <ele>94.4</ele>
        <time>2017-12-03T17:39:39Z</time>
      </trkpt>
      <trkpt lat="62.633160765543" lon="17.986481331678">
        <ele>93.8</ele>
        <time>2017-12-03T17:39:40Z</time>
      </trkpt>
      <trkpt lat="62.633156323136" lon="17.986379240136">
        <ele>93</ele>
        <time>2017-12-03T17:39:41Z</time>
      </trkpt>
      <trkpt lat="62.633151629272" lon="17.986227360108">
        <ele>92.6</ele>
        <time>2017-12-03T17:39:42Z</time>
      </trkpt>
      <trkpt lat="62.633152132186" lon="17.98609559664">
        <ele>92.4</ele>
        <time>2017-12-03T17:39:43Z</time>
      </trkpt>
      <trkpt lat="62.633154227661" lon="17.985961318602">
        <ele>92</ele>
        <time>2017-12-03T17:39:44Z</time>
      </trkpt>
      <trkpt lat="62.63315598786" lon="17.985830225686">
        <ele>91.6</ele>
        <time>2017-12-03T17:39:45Z</time>
      </trkpt>
      <trkpt lat="62.633159675896" lon="17.985701060607">
        <ele>91.2</ele>
        <time>2017-12-03T17:39:46Z</time>
      </trkpt>
      <trkpt lat="62.633162358104" lon="17.985565106189">
        <ele>90.8</ele>
        <time>2017-12-03T17:39:47Z</time>
      </trkpt>
      <trkpt lat="62.633164788855" lon="17.985435186739">
        <ele>90.4</ele>
        <time>2017-12-03T17:39:48Z</time>
      </trkpt>
      <trkpt lat="62.633174344221" lon="17.985290850421">
        <ele>90.2</ele>
        <time>2017-12-03T17:39:49Z</time>
      </trkpt>
      <trkpt lat="62.633190688926" lon="17.985135952909">
        <ele>90</ele>
        <time>2017-12-03T17:39:50Z</time>
      </trkpt>
      <trkpt lat="62.633209212925" lon="17.984996142817">
        <ele>89.6</ele>
        <time>2017-12-03T17:39:51Z</time>
      </trkpt>
      <trkpt lat="62.633235532091" lon="17.984838982192">
        <ele>89.2</ele>
        <time>2017-12-03T17:39:52Z</time>
      </trkpt>
      <trkpt lat="62.633262102714" lon="17.984706883448">
        <ele>88.4</ele>
        <time>2017-12-03T17:39:53Z</time>
      </trkpt>
      <trkpt lat="62.633290684993" lon="17.984573275962">
        <ele>87.8</ele>
        <time>2017-12-03T17:39:54Z</time>
      </trkpt>
      <trkpt lat="62.633318680539" lon="17.984449810575">
        <ele>87.4</ele>
        <time>2017-12-03T17:39:55Z</time>
      </trkpt>
      <trkpt lat="62.633336114891" lon="17.984349395413">
        <ele>87.2</ele>
        <time>2017-12-03T17:39:56Z</time>
      </trkpt>
      <trkpt lat="62.633354303614" lon="17.984218218678">
        <ele>87</ele>
        <time>2017-12-03T17:39:57Z</time>
      </trkpt>
      <trkpt lat="62.633369307215" lon="17.984106907046">
        <ele>87</ele>
        <time>2017-12-03T17:39:58Z</time>
      </trkpt>
      <trkpt lat="62.63338062278" lon="17.98399257793">
        <ele>87</ele>
        <time>2017-12-03T17:39:59Z</time>
      </trkpt>
      <trkpt lat="62.633398895322" lon="17.983893755329">
        <ele>87</ele>
        <time>2017-12-03T17:40:00Z</time>
      </trkpt>
      <trkpt lat="62.633421442633" lon="17.983802979352">
        <ele>87.2</ele>
        <time>2017-12-03T17:40:01Z</time>
      </trkpt>
      <trkpt lat="62.633438709347" lon="17.983697032136">
        <ele>87.4</ele>
        <time>2017-12-03T17:40:02Z</time>
      </trkpt>
      <trkpt lat="62.633444073763" lon="17.983600137372">
        <ele>87.8</ele>
        <time>2017-12-03T17:40:03Z</time>
      </trkpt>
      <trkpt lat="62.633451366016" lon="17.983510953956">
        <ele>88.4</ele>
        <time>2017-12-03T17:40:04Z</time>
      </trkpt>
      <trkpt lat="62.633464190323" lon="17.983430487716">
        <ele>88.8</ele>
        <time>2017-12-03T17:40:05Z</time>
      </trkpt>
      <trkpt lat="62.633471398757" lon="17.983337867721">
        <ele>89.2</ele>
        <time>2017-12-03T17:40:06Z</time>
      </trkpt>
      <trkpt lat="62.633483468693" lon="17.983245499183">
        <ele>89.4</ele>
        <time>2017-12-03T17:40:07Z</time>
      </trkpt>
      <trkpt lat="62.633500819226" lon="17.983152963007">
        <ele>89.4</ele>
        <time>2017-12-03T17:40:08Z</time>
      </trkpt>
      <trkpt lat="62.633513978809" lon="17.983082387409">
        <ele>89.4</ele>
        <time>2017-12-03T17:40:09Z</time>
      </trkpt>
      <trkpt lat="62.633527808944" lon="17.982989851233">
        <ele>89.4</ele>
        <time>2017-12-03T17:40:10Z</time>
      </trkpt>
      <trkpt lat="62.633539124509" lon="17.982916258151">
        <ele>89.4</ele>
        <time>2017-12-03T17:40:11Z</time>
      </trkpt>
      <trkpt lat="62.63355580449" lon="17.982824560165">
        <ele>89.6</ele>
        <time>2017-12-03T17:40:12Z</time>
      </trkpt>
      <trkpt lat="62.633566533322" lon="17.982737723681">
        <ele>89.4</ele>
        <time>2017-12-03T17:40:13Z</time>
      </trkpt>
      <trkpt lat="62.633577681249" lon="17.982653401767">
        <ele>89.4</ele>
        <time>2017-12-03T17:40:14Z</time>
      </trkpt>
      <trkpt lat="62.633595283239" lon="17.982576455925">
        <ele>89.4</ele>
        <time>2017-12-03T17:40:15Z</time>
      </trkpt>
      <trkpt lat="62.633605928252" lon="17.982487356328">
        <ele>89.4</ele>
        <time>2017-12-03T17:40:16Z</time>
      </trkpt>
      <trkpt lat="62.633613891057" lon="17.982398927283">
        <ele>89.2</ele>
        <time>2017-12-03T17:40:17Z</time>
      </trkpt>
      <trkpt lat="62.633618836378" lon="17.982316281749">
        <ele>89.4</ele>
        <time>2017-12-03T17:40:18Z</time>
      </trkpt>
      <trkpt lat="62.633619339292" lon="17.982232462749">
        <ele>89.6</ele>
        <time>2017-12-03T17:40:19Z</time>
      </trkpt>
      <trkpt lat="62.633621686224" lon="17.982152164147">
        <ele>89.4</ele>
        <time>2017-12-03T17:40:20Z</time>
      </trkpt>
      <trkpt lat="62.633627134459" lon="17.982088880802">
        <ele>89.6</ele>
        <time>2017-12-03T17:40:21Z</time>
      </trkpt>
      <trkpt lat="62.633633839979" lon="17.982005313259">
        <ele>89.4</ele>
        <time>2017-12-03T17:40:22Z</time>
      </trkpt>
      <trkpt lat="62.633628140287" lon="17.981923338277">
        <ele>89.6</ele>
        <time>2017-12-03T17:40:23Z</time>
      </trkpt>
      <trkpt lat="62.633623278785" lon="17.981840692743">
        <ele>89.4</ele>
        <time>2017-12-03T17:40:24Z</time>
      </trkpt>
      <trkpt lat="62.633628140287" lon="17.981759136856">
        <ele>89.4</ele>
        <time>2017-12-03T17:40:25Z</time>
      </trkpt>
      <trkpt lat="62.633631409228" lon="17.981689902362">
        <ele>89.6</ele>
        <time>2017-12-03T17:40:26Z</time>
      </trkpt>
      <trkpt lat="62.633634845807" lon="17.981597450005">
        <ele>89.6</ele>
        <time>2017-12-03T17:40:27Z</time>
      </trkpt>
      <trkpt lat="62.633644065897" lon="17.981511032616">
        <ele>89.8</ele>
        <time>2017-12-03T17:40:28Z</time>
      </trkpt>
      <trkpt lat="62.63365471091" lon="17.981425704874">
        <ele>89.8</ele>
        <time>2017-12-03T17:40:29Z</time>
      </trkpt>
      <trkpt lat="62.633659823869" lon="17.981342053512">
        <ele>90</ele>
        <time>2017-12-03T17:40:30Z</time>
      </trkpt>
      <trkpt lat="62.633670804158" lon="17.981276507054">
        <ele>89.8</ele>
        <time>2017-12-03T17:40:31Z</time>
      </trkpt>
      <trkpt lat="62.633690082528" lon="17.981196543728">
        <ele>90</ele>
        <time>2017-12-03T17:40:32Z</time>
      </trkpt>
      <trkpt lat="62.633704667034" lon="17.981125046121">
        <ele>90</ele>
        <time>2017-12-03T17:40:33Z</time>
      </trkpt>
      <trkpt lat="62.633719167721" lon="17.981055392532">
        <ele>90.2</ele>
        <time>2017-12-03T17:40:34Z</time>
      </trkpt>
      <trkpt lat="62.633737440263" lon="17.981013399213">
        <ele>90</ele>
        <time>2017-12-03T17:40:35Z</time>
      </trkpt>
      <trkpt lat="62.633755964262" lon="17.980980374527">
        <ele>90</ele>
        <time>2017-12-03T17:40:36Z</time>
      </trkpt>
      <trkpt lat="62.633781026143" lon="17.9809440809">
        <ele>90.2</ele>
        <time>2017-12-03T17:40:37Z</time>
      </trkpt>
      <trkpt lat="62.633805166015" lon="17.980895298242">
        <ele>90.2</ele>
        <time>2017-12-03T17:40:38Z</time>
      </trkpt>
      <trkpt lat="62.633827964783" lon="17.980832936906">
        <ele>90</ele>
        <time>2017-12-03T17:40:39Z</time>
      </trkpt>
      <trkpt lat="62.633851182646" lon="17.980767558086">
        <ele>90.2</ele>
        <time>2017-12-03T17:40:40Z</time>
      </trkpt>
      <trkpt lat="62.633864593686" lon="17.980714249202">
        <ele>90.4</ele>
        <time>2017-12-03T17:40:41Z</time>
      </trkpt>
      <trkpt lat="62.633880519296" lon="17.980639734111">
        <ele>90.4</ele>
        <time>2017-12-03T17:40:42Z</time>
      </trkpt>
      <trkpt lat="62.633898540381" lon="17.980576618404">
        <ele>90.4</ele>
        <time>2017-12-03T17:40:43Z</time>
      </trkpt>
      <trkpt lat="62.633916980561" lon="17.980507970643">
        <ele>90.4</ele>
        <time>2017-12-03T17:40:44Z</time>
      </trkpt>
      <trkpt lat="62.633935923655" lon="17.980442591823">
        <ele>90.6</ele>
        <time>2017-12-03T17:40:45Z</time>
      </trkpt>
      <trkpt lat="62.633957548957" lon="17.980388612387">
        <ele>90.8</ele>
        <time>2017-12-03T17:40:46Z</time>
      </trkpt>
      <trkpt lat="62.633986466512" lon="17.980321976282">
        <ele>90.6</ele>
        <time>2017-12-03T17:40:47Z</time>
      </trkpt>
      <trkpt lat="62.634006499253" lon="17.980250311037">
        <ele>90.8</ele>
        <time>2017-12-03T17:40:48Z</time>
      </trkpt>
      <trkpt lat="62.634027789279" lon="17.980196834515">
        <ele>90.8</ele>
        <time>2017-12-03T17:40:49Z</time>
      </trkpt>
      <trkpt lat="62.634053856988" lon="17.98014863859">
        <ele>90.8</ele>
        <time>2017-12-03T17:40:50Z</time>
      </trkpt>
      <trkpt lat="62.634078583593" lon="17.980100526484">
        <ele>90.8</ele>
        <time>2017-12-03T17:40:51Z</time>
      </trkpt>
      <trkpt lat="62.634115631591" lon="17.980042439917">
        <ele>91</ele>
        <time>2017-12-03T17:40:52Z</time>
      </trkpt>
      <trkpt lat="62.634151925218" lon="17.979991813241">
        <ele>91</ele>
        <time>2017-12-03T17:40:53Z</time>
      </trkpt>
      <trkpt lat="62.634185368999" lon="17.979932637027">
        <ele>91</ele>
        <time>2017-12-03T17:40:54Z</time>
      </trkpt>
      <trkpt lat="62.634212442536" lon="17.979865833284">
        <ele>91</ele>
        <time>2017-12-03T17:40:55Z</time>
      </trkpt>
      <trkpt lat="62.634231553268" lon="17.979805902699">
        <ele>91.2</ele>
        <time>2017-12-03T17:40:56Z</time>
      </trkpt>
      <trkpt lat="62.634252591837" lon="17.979721245509">
        <ele>91.2</ele>
        <time>2017-12-03T17:40:57Z</time>
      </trkpt>
      <trkpt lat="62.634267511619" lon="17.979643545296">
        <ele>91</ele>
        <time>2017-12-03T17:40:58Z</time>
      </trkpt>
      <trkpt lat="62.634282599039" lon="17.979567856739">
        <ele>91.2</ele>
        <time>2017-12-03T17:40:59Z</time>
      </trkpt>
      <trkpt lat="62.634293160233" lon="17.979489234517">
        <ele>91.2</ele>
        <time>2017-12-03T17:41:00Z</time>
      </trkpt>
      <trkpt lat="62.634308582929" lon="17.979426957">
        <ele>91.2</ele>
        <time>2017-12-03T17:41:01Z</time>
      </trkpt>
      <trkpt lat="62.634327190747" lon="17.979349508244">
        <ele>91</ele>
        <time>2017-12-03T17:41:02Z</time>
      </trkpt>
      <trkpt lat="62.634340434149" lon="17.97928362651">
        <ele>91</ele>
        <time>2017-12-03T17:41:03Z</time>
      </trkpt>
      <trkpt lat="62.634352587904" lon="17.979220510803">
        <ele>91</ele>
        <time>2017-12-03T17:41:04Z</time>
      </trkpt>
      <trkpt lat="62.634364238745" lon="17.979155718716">
        <ele>90.8</ele>
        <time>2017-12-03T17:41:05Z</time>
      </trkpt>
      <trkpt lat="62.63437806888" lon="17.979093608837">
        <ele>90.8</ele>
        <time>2017-12-03T17:41:06Z</time>
      </trkpt>
      <trkpt lat="62.634394162128" lon="17.979021356859">
        <ele>90.8</ele>
        <time>2017-12-03T17:41:07Z</time>
      </trkpt>
      <trkpt lat="62.634410674471" lon="17.978956061858">
        <ele>90.6</ele>
        <time>2017-12-03T17:41:08Z</time>
      </trkpt>
      <trkpt lat="62.634462977527" lon="17.978796805758">
        <ele>90.6</ele>
        <time>2017-12-03T17:41:11Z</time>
      </trkpt>
      <trkpt lat="62.634479573689" lon="17.978741149942">
        <ele>90.6</ele>
        <time>2017-12-03T17:41:12Z</time>
      </trkpt>
      <trkpt lat="62.634493655281" lon="17.978690439447">
        <ele>90.6</ele>
        <time>2017-12-03T17:41:13Z</time>
      </trkpt>
      <trkpt lat="62.634506982502" lon="17.978635454183">
        <ele>90.6</ele>
        <time>2017-12-03T17:41:14Z</time>
      </trkpt>
      <trkpt lat="62.634518717162" lon="17.978586755344">
        <ele>90.4</ele>
        <time>2017-12-03T17:41:15Z</time>
      </trkpt>
      <trkpt lat="62.634530870917" lon="17.978528249682">
        <ele>90.4</ele>
        <time>2017-12-03T17:41:16Z</time>
      </trkpt>
      <trkpt lat="62.634542689396" lon="17.978456249161">
        <ele>90.6</ele>
        <time>2017-12-03T17:41:17Z</time>
      </trkpt>
      <trkpt lat="62.634553418228" lon="17.97838341045">
        <ele>90.6</ele>
        <time>2017-12-03T17:41:18Z</time>
      </trkpt>
      <trkpt lat="62.634565739621" lon="17.978316019974">
        <ele>90.4</ele>
        <time>2017-12-03T17:41:19Z</time>
      </trkpt>
      <trkpt lat="62.634577725738" lon="17.978243097444">
        <ele>90.4</ele>
        <time>2017-12-03T17:41:20Z</time>
      </trkpt>
      <trkpt lat="62.63458594" lon="17.978175371692">
        <ele>90.4</ele>
        <time>2017-12-03T17:41:21Z</time>
      </trkpt>
      <trkpt lat="62.634600105411" lon="17.978086439733">
        <ele>90.2</ele>
        <time>2017-12-03T17:41:22Z</time>
      </trkpt>
      <trkpt lat="62.634609996053" lon="17.978016618506">
        <ele>90</ele>
        <time>2017-12-03T17:41:23Z</time>
      </trkpt>
      <trkpt lat="62.634622233627" lon="17.977938499198">
        <ele>90</ele>
        <time>2017-12-03T17:41:24Z</time>
      </trkpt>
      <trkpt lat="62.634634303563" lon="17.977860798985">
        <ele>90</ele>
        <time>2017-12-03T17:41:25Z</time>
      </trkpt>
      <trkpt lat="62.634642685463" lon="17.977801287495">
        <ele>90</ele>
        <time>2017-12-03T17:41:26Z</time>
      </trkpt>
      <trkpt lat="62.63464964244" lon="17.977739345254">
        <ele>89.8</ele>
        <time>2017-12-03T17:41:27Z</time>
      </trkpt>
      <trkpt lat="62.634666322421" lon="17.977653598417">
        <ele>89.8</ele>
        <time>2017-12-03T17:41:28Z</time>
      </trkpt>
      <trkpt lat="62.634681409841" lon="17.977565253191">
        <ele>89.8</ele>
        <time>2017-12-03T17:41:29Z</time>
      </trkpt>
      <trkpt lat="62.634693060682" lon="17.977481098915">
        <ele>89.6</ele>
        <time>2017-12-03T17:41:30Z</time>
      </trkpt>
      <trkpt lat="62.634700352935" lon="17.977412702611">
        <ele>89.4</ele>
        <time>2017-12-03T17:41:31Z</time>
      </trkpt>
      <trkpt lat="62.634711417043" lon="17.977335840588">
        <ele>89.2</ele>
        <time>2017-12-03T17:41:32Z</time>
      </trkpt>
      <trkpt lat="62.634722145875" lon="17.977282112609">
        <ele>89.2</ele>
        <time>2017-12-03T17:41:33Z</time>
      </trkpt>
      <trkpt lat="62.634734802544" lon="17.977223774585">
        <ele>89.2</ele>
        <time>2017-12-03T17:41:34Z</time>
      </trkpt>
      <trkpt lat="62.634746704842" lon="17.97716552038">
        <ele>89</ele>
        <time>2017-12-03T17:41:35Z</time>
      </trkpt>
      <trkpt lat="62.634756846941" lon="17.977114474609">
        <ele>89</ele>
        <time>2017-12-03T17:41:36Z</time>
      </trkpt>
      <trkpt lat="62.634771766723" lon="17.977038618414">
        <ele>89</ele>
        <time>2017-12-03T17:41:37Z</time>
      </trkpt>
      <trkpt lat="62.634785093944" lon="17.976967539902">
        <ele>89</ele>
        <time>2017-12-03T17:41:38Z</time>
      </trkpt>
      <trkpt lat="62.634800265183" lon="17.97689729958">
        <ele>89</ele>
        <time>2017-12-03T17:41:39Z</time>
      </trkpt>
      <trkpt lat="62.634811832205" lon="17.976823455041">
        <ele>89</ele>
        <time>2017-12-03T17:41:40Z</time>
      </trkpt>
      <trkpt lat="62.634820297924" lon="17.9767615128">
        <ele>88.8</ele>
        <time>2017-12-03T17:41:41Z</time>
      </trkpt>
      <trkpt lat="62.634833625145" lon="17.976679537818">
        <ele>88.8</ele>
        <time>2017-12-03T17:41:42Z</time>
      </trkpt>
      <trkpt lat="62.634843180511" lon="17.976611392971">
        <ele>88.8</ele>
        <time>2017-12-03T17:41:43Z</time>
      </trkpt>
      <trkpt lat="62.63485332261" lon="17.976536374966">
        <ele>88.8</ele>
        <time>2017-12-03T17:41:44Z</time>
      </trkpt>
      <trkpt lat="62.634867236564" lon="17.976467056653">
        <ele>88.8</ele>
        <time>2017-12-03T17:41:45Z</time>
      </trkpt>
      <trkpt lat="62.634878300672" lon="17.976394553218">
        <ele>88.8</ele>
        <time>2017-12-03T17:41:46Z</time>
      </trkpt>
      <trkpt lat="62.634890957341" lon="17.976317942652">
        <ele>88.6</ele>
        <time>2017-12-03T17:41:47Z</time>
      </trkpt>
      <trkpt lat="62.634907637322" lon="17.976239907163">
        <ele>88.6</ele>
        <time>2017-12-03T17:41:48Z</time>
      </trkpt>
      <trkpt lat="62.634926496597" lon="17.976174109248">
        <ele>88.6</ele>
        <time>2017-12-03T17:41:49Z</time>
      </trkpt>
      <trkpt lat="62.634951223202" lon="17.976102527822">
        <ele>88.2</ele>
        <time>2017-12-03T17:41:50Z</time>
      </trkpt>
      <trkpt lat="62.634971172124" lon="17.976032706595">
        <ele>88.2</ele>
        <time>2017-12-03T17:41:51Z</time>
      </trkpt>
      <trkpt lat="62.634994473806" lon="17.975944780464">
        <ele>87.8</ele>
        <time>2017-12-03T17:41:52Z</time>
      </trkpt>
      <trkpt lat="62.635011237606" lon="17.975872696124">
        <ele>87.2</ele>
        <time>2017-12-03T17:41:53Z</time>
      </trkpt>
      <trkpt lat="62.635028420501" lon="17.975783847984">
        <ele>86.8</ele>
        <time>2017-12-03T17:41:54Z</time>
      </trkpt>
      <trkpt lat="62.635045854853" lon="17.975704639029">
        <ele>86.8</ele>
        <time>2017-12-03T17:41:55Z</time>
      </trkpt>
      <trkpt lat="62.635061026092" lon="17.975629704843">
        <ele>86.6</ele>
        <time>2017-12-03T17:41:56Z</time>
      </trkpt>
      <trkpt lat="62.635076616426" lon="17.97554110816">
        <ele>86.6</ele>
        <time>2017-12-03T17:41:57Z</time>
      </trkpt>
      <trkpt lat="62.635086758525" lon="17.975461899205">
        <ele>86.6</ele>
        <time>2017-12-03T17:41:58Z</time>
      </trkpt>
      <trkpt lat="62.635097906452" lon="17.975374392169">
        <ele>86.8</ele>
        <time>2017-12-03T17:41:59Z</time>
      </trkpt>
      <trkpt lat="62.635106120714" lon="17.975279676699">
        <ele>87</ele>
        <time>2017-12-03T17:42:00Z</time>
      </trkpt>
      <trkpt lat="62.635108216189" lon="17.975190409464">
        <ele>87</ele>
        <time>2017-12-03T17:42:01Z</time>
      </trkpt>
      <trkpt lat="62.635103522325" lon="17.975094269071">
        <ele>87.2</ele>
        <time>2017-12-03T17:42:02Z</time>
      </trkpt>
      <trkpt lat="62.635095727158" lon="17.975007432587">
        <ele>87.2</ele>
        <time>2017-12-03T17:42:03Z</time>
      </trkpt>
      <trkpt lat="62.635089608371" lon="17.974980861964">
        <ele>87.2</ele>
        <time>2017-12-03T17:42:04Z</time>
      </trkpt>
      <trkpt lat="62.63504945907" lon="17.974824371891">
        <ele>87.4</ele>
        <time>2017-12-03T17:42:05Z</time>
      </trkpt>
      <trkpt lat="62.63502598975" lon="17.974740049977">
        <ele>87.2</ele>
        <time>2017-12-03T17:42:06Z</time>
      </trkpt>
      <trkpt lat="62.634999419127" lon="17.974630330906">
        <ele>86.4</ele>
        <time>2017-12-03T17:42:07Z</time>
      </trkpt>
      <trkpt lat="62.634973938151" lon="17.974531005391">
        <ele>85.6</ele>
        <time>2017-12-03T17:42:08Z</time>
      </trkpt>
      <trkpt lat="62.634952899582" lon="17.974445426192">
        <ele>84.2</ele>
        <time>2017-12-03T17:42:09Z</time>
      </trkpt>
      <trkpt lat="62.634931693375" lon="17.974345597763">
        <ele>83</ele>
        <time>2017-12-03T17:42:10Z</time>
      </trkpt>
      <trkpt lat="62.63491115772" lon="17.974256330528">
        <ele>82.6</ele>
        <time>2017-12-03T17:42:11Z</time>
      </trkpt>
      <trkpt lat="62.634883078355" lon="17.974172427709">
        <ele>83</ele>
        <time>2017-12-03T17:42:12Z</time>
      </trkpt>
      <trkpt lat="62.634863464709" lon="17.974103779948">
        <ele>83.2</ele>
        <time>2017-12-03T17:42:13Z</time>
      </trkpt>
      <trkpt lat="62.634851813868" lon="17.974034964549">
        <ele>83.6</ele>
        <time>2017-12-03T17:42:14Z</time>
      </trkpt>
      <trkpt lat="62.634832116403" lon="17.97397956019">
        <ele>83.8</ele>
        <time>2017-12-03T17:42:15Z</time>
      </trkpt>
      <trkpt lat="62.634807305979" lon="17.973903536357">
        <ele>83.8</ele>
        <time>2017-12-03T17:42:16Z</time>
      </trkpt>
      <trkpt lat="62.634785932134" lon="17.97382281866">
        <ele>83.6</ele>
        <time>2017-12-03T17:42:17Z</time>
      </trkpt>
      <trkpt lat="62.634767491954" lon="17.973748974121">
        <ele>83.6</ele>
        <time>2017-12-03T17:42:18Z</time>
      </trkpt>
      <trkpt lat="62.634750392878" lon="17.973679991084">
        <ele>83.4</ele>
        <time>2017-12-03T17:42:19Z</time>
      </trkpt>
      <trkpt lat="62.634737736209" lon="17.973612013875">
        <ele>83.4</ele>
        <time>2017-12-03T17:42:20Z</time>
      </trkpt>
      <trkpt lat="62.634724325169" lon="17.973548898168">
        <ele>83.4</ele>
        <time>2017-12-03T17:42:21Z</time>
      </trkpt>
      <trkpt lat="62.634700520573" lon="17.973462899874">
        <ele>83.2</ele>
        <time>2017-12-03T17:42:22Z</time>
      </trkpt>
      <trkpt lat="62.63468987556" lon="17.973368603499">
        <ele>83.2</ele>
        <time>2017-12-03T17:42:23Z</time>
      </trkpt>
      <trkpt lat="62.63468987556" lon="17.973282018472">
        <ele>83.2</ele>
        <time>2017-12-03T17:42:24Z</time>
      </trkpt>
      <trkpt lat="62.634695575252" lon="17.973188141192">
        <ele>83</ele>
        <time>2017-12-03T17:42:25Z</time>
      </trkpt>
      <trkpt lat="62.634704795342" lon="17.973103986916">
        <ele>83</ele>
        <time>2017-12-03T17:42:26Z</time>
      </trkpt>
      <trkpt lat="62.634718206382" lon="17.973006924514">
        <ele>82.8</ele>
        <time>2017-12-03T17:42:27Z</time>
      </trkpt>
      <trkpt lat="62.634739244951" lon="17.972921596772">
        <ele>82.8</ele>
        <time>2017-12-03T17:42:28Z</time>
      </trkpt>
      <trkpt lat="62.634762127538" lon="17.972835514659">
        <ele>82.6</ele>
        <time>2017-12-03T17:42:29Z</time>
      </trkpt>
      <trkpt lat="62.63478375284" lon="17.972748929632">
        <ele>82.6</ele>
        <time>2017-12-03T17:42:30Z</time>
      </trkpt>
      <trkpt lat="62.634802695934" lon="17.972673911627">
        <ele>82</ele>
        <time>2017-12-03T17:42:31Z</time>
      </trkpt>
      <trkpt lat="62.634824153598" lon="17.972590763179">
        <ele>81.4</ele>
        <time>2017-12-03T17:42:32Z</time>
      </trkpt>
      <trkpt lat="62.634843431968" lon="17.972518343563">
        <ele>81</ele>
        <time>2017-12-03T17:42:33Z</time>
      </trkpt>
      <trkpt lat="62.634864051442" lon="17.972439302246">
        <ele>80.4</ele>
        <time>2017-12-03T17:42:34Z</time>
      </trkpt>
      <trkpt lat="62.634885509106" lon="17.972365290069">
        <ele>80.2</ele>
        <time>2017-12-03T17:42:35Z</time>
      </trkpt>
      <trkpt lat="62.634906212399" lon="17.97230401838">
        <ele>80</ele>
        <time>2017-12-03T17:42:36Z</time>
      </trkpt>
      <trkpt lat="62.634931944832" lon="17.972230760574">
        <ele>80</ele>
        <time>2017-12-03T17:42:37Z</time>
      </trkpt>
      <trkpt lat="62.63495222903" lon="17.972158005682">
        <ele>79.8</ele>
        <time>2017-12-03T17:42:38Z</time>
      </trkpt>
      <trkpt lat="62.634971423581" lon="17.972086256618">
        <ele>79.6</ele>
        <time>2017-12-03T17:42:39Z</time>
      </trkpt>
      <trkpt lat="62.634994557625" lon="17.971996318831">
        <ele>79.4</ele>
        <time>2017-12-03T17:42:40Z</time>
      </trkpt>
      <trkpt lat="62.635015260918" lon="17.971916271686">
        <ele>79.4</ele>
        <time>2017-12-03T17:42:41Z</time>
      </trkpt>
      <trkpt lat="62.635039819885" lon="17.971805798244">
        <ele>79</ele>
        <time>2017-12-03T17:42:42Z</time>
      </trkpt>
      <trkpt lat="62.635056835142" lon="17.971705131625">
        <ele>78.6</ele>
        <time>2017-12-03T17:42:43Z</time>
      </trkpt>
      <trkpt lat="62.635071503467" lon="17.971600944608">
        <ele>78</ele>
        <time>2017-12-03T17:42:44Z</time>
      </trkpt>
      <trkpt lat="62.635083573403" lon="17.971508492251">
        <ele>77.6</ele>
        <time>2017-12-03T17:42:45Z</time>
      </trkpt>
      <trkpt lat="62.635095224244" lon="17.971416710446">
        <ele>77.2</ele>
        <time>2017-12-03T17:42:46Z</time>
      </trkpt>
      <trkpt lat="62.635106120714" lon="17.971321240605">
        <ele>76.8</ele>
        <time>2017-12-03T17:42:47Z</time>
      </trkpt>
      <trkpt lat="62.635117520098" lon="17.971238008338">
        <ele>76.6</ele>
        <time>2017-12-03T17:42:48Z</time>
      </trkpt>
      <trkpt lat="62.635125901998" lon="17.971164582894">
        <ele>76.4</ele>
        <time>2017-12-03T17:42:49Z</time>
      </trkpt>
      <trkpt lat="62.635136379373" lon="17.971082943188">
        <ele>76.4</ele>
        <time>2017-12-03T17:42:50Z</time>
      </trkpt>
      <trkpt lat="62.635145096549" lon="17.971020078938">
        <ele>76.4</ele>
        <time>2017-12-03T17:42:51Z</time>
      </trkpt>
      <trkpt lat="62.635154819553" lon="17.970948497512">
        <ele>76.4</ele>
        <time>2017-12-03T17:42:52Z</time>
      </trkpt>
      <trkpt lat="62.635162866177" lon="17.97088328633">
        <ele>76.2</ele>
        <time>2017-12-03T17:42:53Z</time>
      </trkpt>
      <trkpt lat="62.635169906973" lon="17.970819164795">
        <ele>76</ele>
        <time>2017-12-03T17:42:54Z</time>
      </trkpt>
      <trkpt lat="62.635175690484" lon="17.970756971097">
        <ele>75.8</ele>
        <time>2017-12-03T17:42:55Z</time>
      </trkpt>
      <trkpt lat="62.635180049072" lon="17.970704668041">
        <ele>75.8</ele>
        <time>2017-12-03T17:42:56Z</time>
      </trkpt>
      <trkpt lat="62.635186251678" lon="17.97064440218">
        <ele>75.6</ele>
        <time>2017-12-03T17:42:57Z</time>
      </trkpt>
      <trkpt lat="62.635192454284" lon="17.970586064156">
        <ele>75.4</ele>
        <time>2017-12-03T17:42:58Z</time>
      </trkpt>
      <trkpt lat="62.635198153976" lon="17.970530156883">
        <ele>75.2</ele>
        <time>2017-12-03T17:42:59Z</time>
      </trkpt>
      <trkpt lat="62.635203518392" lon="17.970472992325">
        <ele>75.2</ele>
        <time>2017-12-03T17:43:00Z</time>
      </trkpt>
      <trkpt lat="62.635209469541" lon="17.970415157215">
        <ele>75</ele>
        <time>2017-12-03T17:43:01Z</time>
      </trkpt>
      <trkpt lat="62.635220617468" lon="17.970356483915">
        <ele>74.8</ele>
        <time>2017-12-03T17:43:02Z</time>
      </trkpt>
      <trkpt lat="62.635229837558" lon="17.970303929402">
        <ele>74.8</ele>
        <time>2017-12-03T17:43:03Z</time>
      </trkpt>
      <trkpt lat="62.635236878354" lon="17.97023452727">
        <ele>74.8</ele>
        <time>2017-12-03T17:43:04Z</time>
      </trkpt>
      <trkpt lat="62.635245008797" lon="17.970166801518">
        <ele>74.6</ele>
        <time>2017-12-03T17:43:05Z</time>
      </trkpt>
      <trkpt lat="62.63525397743" lon="17.970103434354">
        <ele>74.4</ele>
        <time>2017-12-03T17:43:06Z</time>
      </trkpt>
      <trkpt lat="62.635264622443" lon="17.970033613127">
        <ele>74.4</ele>
        <time>2017-12-03T17:43:07Z</time>
      </trkpt>
      <trkpt lat="62.635275435094" lon="17.969966641746">
        <ele>74.2</ele>
        <time>2017-12-03T17:43:08Z</time>
      </trkpt>
      <trkpt lat="62.635288091763" lon="17.969903861315">
        <ele>74</ele>
        <time>2017-12-03T17:43:09Z</time>
      </trkpt>
      <trkpt lat="62.635304687925" lon="17.969836219382">
        <ele>73.8</ele>
        <time>2017-12-03T17:43:10Z</time>
      </trkpt>
      <trkpt lat="62.635316925499" lon="17.969780479747">
        <ele>73.6</ele>
        <time>2017-12-03T17:43:11Z</time>
      </trkpt>
      <trkpt lat="62.635334862765" lon="17.969708311588">
        <ele>73.4</ele>
        <time>2017-12-03T17:43:12Z</time>
      </trkpt>
      <trkpt lat="62.635350117823" lon="17.969643016587">
        <ele>73</ele>
        <time>2017-12-03T17:43:13Z</time>
      </trkpt>
      <trkpt lat="62.635366211071" lon="17.969576045206">
        <ele>72.6</ele>
        <time>2017-12-03T17:43:14Z</time>
      </trkpt>
      <trkpt lat="62.635380879396" lon="17.96951871301">
        <ele>72.2</ele>
        <time>2017-12-03T17:43:15Z</time>
      </trkpt>
      <trkpt lat="62.635394122798" lon="17.96945920152">
        <ele>71.8</ele>
        <time>2017-12-03T17:43:16Z</time>
      </trkpt>
      <trkpt lat="62.635410048408" lon="17.969394996166">
        <ele>71.4</ele>
        <time>2017-12-03T17:43:17Z</time>
      </trkpt>
      <trkpt lat="62.635427734217" lon="17.969331209907">
        <ele>71</ele>
        <time>2017-12-03T17:43:18Z</time>
      </trkpt>
      <trkpt lat="62.635446258216" lon="17.969262897422">
        <ele>70.6</ele>
        <time>2017-12-03T17:43:19Z</time>
      </trkpt>
      <trkpt lat="62.635464949853" lon="17.969192070367">
        <ele>70.2</ele>
        <time>2017-12-03T17:43:20Z</time>
      </trkpt>
      <trkpt lat="62.635482132748" lon="17.969135827818">
        <ele>70</ele>
        <time>2017-12-03T17:43:21Z</time>
      </trkpt>
      <trkpt lat="62.635504009507" lon="17.969079669088">
        <ele>69.4</ele>
        <time>2017-12-03T17:43:22Z</time>
      </trkpt>
      <trkpt lat="62.635523120239" lon="17.969032059896">
        <ele>69</ele>
        <time>2017-12-03T17:43:23Z</time>
      </trkpt>
      <trkpt lat="62.635540806048" lon="17.968987468188">
        <ele>68.6</ele>
        <time>2017-12-03T17:43:24Z</time>
      </trkpt>
      <trkpt lat="62.635556731658" lon="17.968942960299">
        <ele>68.4</ele>
        <time>2017-12-03T17:43:25Z</time>
      </trkpt>
      <trkpt lat="62.63557081325" lon="17.968901050799">
        <ele>68</ele>
        <time>2017-12-03T17:43:26Z</time>
      </trkpt>
      <trkpt lat="62.635588582878" lon="17.968849669752">
        <ele>68</ele>
        <time>2017-12-03T17:43:27Z</time>
      </trkpt>
      <trkpt lat="62.635608280343" lon="17.968791080271">
        <ele>67.8</ele>
        <time>2017-12-03T17:43:28Z</time>
      </trkpt>
      <trkpt lat="62.63562781017" lon="17.968727042555">
        <ele>67.6</ele>
        <time>2017-12-03T17:43:29Z</time>
      </trkpt>
      <trkpt lat="62.63564876492" lon="17.968659819717">
        <ele>67.6</ele>
        <time>2017-12-03T17:43:30Z</time>
      </trkpt>
      <trkpt lat="62.635672653335" lon="17.968597709838">
        <ele>67.6</ele>
        <time>2017-12-03T17:43:31Z</time>
      </trkpt>
      <trkpt lat="62.635705091288" lon="17.968534594131">
        <ele>67.6</ele>
        <time>2017-12-03T17:43:32Z</time>
      </trkpt>
      <trkpt lat="62.635738115974" lon="17.968486733482">
        <ele>67.4</ele>
        <time>2017-12-03T17:43:33Z</time>
      </trkpt>
      <trkpt lat="62.635779774017" lon="17.968444572525">
        <ele>67.4</ele>
        <time>2017-12-03T17:43:34Z</time>
      </trkpt>
      <trkpt lat="62.635822102612" lon="17.96841146402">
        <ele>67.2</ele>
        <time>2017-12-03T17:43:35Z</time>
      </trkpt>
      <trkpt lat="62.635864934121" lon="17.968393526754">
        <ele>66.8</ele>
        <time>2017-12-03T17:43:36Z</time>
      </trkpt>
      <trkpt lat="62.635914052055" lon="17.968391263641">
        <ele>66.6</ele>
        <time>2017-12-03T17:43:37Z</time>
      </trkpt>
      <trkpt lat="62.635958811401" lon="17.968395370772">
        <ele>66.2</ele>
        <time>2017-12-03T17:43:38Z</time>
      </trkpt>
      <trkpt lat="62.635998709245" lon="17.968403752672">
        <ele>66</ele>
        <time>2017-12-03T17:43:39Z</time>
      </trkpt>
      <trkpt lat="62.636040954021" lon="17.968415990246">
        <ele>65.6</ele>
        <time>2017-12-03T17:43:40Z</time>
      </trkpt>
      <trkpt lat="62.63607121268" lon="17.968425629431">
        <ele>65.4</ele>
        <time>2017-12-03T17:43:41Z</time>
      </trkpt>
      <trkpt lat="62.636101136063" lon="17.968436693539">
        <ele>65.2</ele>
        <time>2017-12-03T17:43:42Z</time>
      </trkpt>
      <trkpt lat="62.636118067501" lon="17.968440716851">
        <ele>65</ele>
        <time>2017-12-03T17:43:43Z</time>
      </trkpt>
      <trkpt lat="62.636127455229" lon="17.968447338552">
        <ele>65.2</ele>
        <time>2017-12-03T17:43:44Z</time>
      </trkpt>
      <trkpt lat="62.63612485684" lon="17.9684550499">
        <ele>65.2</ele>
        <time>2017-12-03T17:43:45Z</time>
      </trkpt>
      <trkpt lat="62.636118402777" lon="17.968452954425">
        <ele>65.4</ele>
        <time>2017-12-03T17:43:46Z</time>
      </trkpt>
      <trkpt lat="62.636111864895" lon="17.96846426999">
        <ele>65.6</ele>
        <time>2017-12-03T17:43:48Z</time>
      </trkpt>
      <trkpt lat="62.636099124407" lon="17.968456391004">
        <ele>65.8</ele>
        <time>2017-12-03T17:43:49Z</time>
      </trkpt>
      <trkpt lat="62.636082695883" lon="17.968439711023">
        <ele>66</ele>
        <time>2017-12-03T17:43:50Z</time>
      </trkpt>
      <trkpt lat="62.636067440825" lon="17.968426970535">
        <ele>66.2</ele>
        <time>2017-12-03T17:43:51Z</time>
      </trkpt>
      <trkpt lat="62.636048413912" lon="17.968411212563">
        <ele>66.2</ele>
        <time>2017-12-03T17:43:52Z</time>
      </trkpt>
      <trkpt lat="62.636031985388" lon="17.968396795695">
        <ele>66.2</ele>
        <time>2017-12-03T17:43:53Z</time>
      </trkpt>
    </trkseg>
  </trk>
</gpx>